Date StartTime U_cm/s V_cm/s W_cm/s Ustd_cm/s Vstd_cm/s Wstd_cm/s Uvar_(cm/s)^2 Vvar_(cm/s)^2 Wvar_(cm/s)^2 KE_(m/s)^2 TurbulentKE_(m/s)^2 HorizWindSpeed_cm/s FrictionSpeec_cm/s DragCoef SpeedOfSound_m/s SonicTemperature_C Pressure_mb 
12/16/2014  00:00:00      -44.969      -50.520       -0.981       23.193       19.205       17.216      537.899      368.849      296.405        0.289        0.060       67.635       12.834        0.036      333.827        3.398      856.334
12/16/2014  00:01:00      -66.914      -62.476       -6.928       13.619       15.169       11.559      185.468      230.103      133.620        0.449        0.027       91.547        7.872        0.007      333.778        3.318      856.298
12/16/2014  00:02:00      -43.824      -39.475       -3.814       14.622       17.226       14.414      213.791      296.726      207.750        0.211        0.036       58.981        8.638        0.021      333.842        3.423      856.276
12/16/2014  00:03:00      -88.719      -22.601      -11.604       19.031       16.607       13.909      362.192      275.798      193.456        0.467        0.042       91.552        9.961        0.012      333.804        3.359      856.252
12/16/2014  00:04:00      -66.018        1.861       -8.143       20.088       17.916       12.663      403.508      320.973      160.343        0.266        0.044       66.044        8.877        0.018      333.900        3.519      856.229
12/16/2014  00:05:00      -49.063        6.498       -0.602       18.019       12.804       12.764      324.668      163.945      162.930        0.155        0.033       49.492        9.712        0.039      333.997        3.681      856.210
12/16/2014  00:06:00       10.016       -1.796       12.540       13.345        6.160        9.413      178.080       37.940       88.611        0.028        0.015       10.175        5.040        0.245      333.835        3.410      856.183
12/16/2014  00:07:00       27.902       36.669        2.196        9.671       15.641       10.835       93.523      244.640      117.401        0.129        0.023       46.077        8.231        0.032      333.793        3.341      856.162
12/16/2014  00:08:00       27.169       44.394       -2.128       17.284       15.422       15.542      298.738      237.823      241.565        0.175        0.039       52.048       11.087        0.045      333.732        3.240      856.157
12/16/2014  00:09:00        8.689       41.298       -8.554        7.415        9.788        6.241       54.975       95.796       38.953        0.102        0.009       42.202        5.629        0.018      333.776        3.312      856.163
12/16/2014  00:10:00       -1.122        5.834       -2.832        6.530       12.065        3.349       42.647      145.554       11.216        0.012        0.010        5.941        5.635        0.900      333.773        3.311      856.178
12/16/2014  00:11:00      -35.855      -16.607       -2.723       15.373       11.293        9.828      236.329      127.529       96.580        0.101        0.023       39.514        5.757        0.021      333.802        3.357      856.189
12/16/2014  00:12:00      -57.529      -26.547       -5.685       11.562        8.463        7.003      133.690       71.627       49.047        0.215        0.013       63.359        3.744        0.003      333.776        3.310      856.205
12/16/2014  00:13:00      -24.161      -23.278        7.206       19.897       15.761       15.781      395.882      248.413      249.037        0.104        0.045       33.550       12.859        0.147      333.799        3.351      856.222
12/16/2014  00:14:00      -31.574      -31.810        3.461       32.117       26.802       15.887     1031.513      718.323      252.392        0.201        0.100       44.820       20.433        0.208      333.860        3.453      856.230
12/16/2014  00:15:00      -34.709      -39.404        7.257       27.840       26.962       15.914      775.044      726.939      253.256        0.228        0.088       52.511       16.787        0.102      333.856        3.445      856.227
12/16/2014  00:16:00        2.619       -8.411       11.541       20.283       15.538       14.704      411.407      241.435      216.202        0.054        0.043        8.809       10.695        1.474      333.866        3.462      856.236
12/16/2014  00:17:00      -28.649      -32.295        5.226       31.407       25.661       16.728      986.396      658.495      279.835        0.191        0.096       43.172       12.506        0.084      333.844        3.426      856.238
12/16/2014  00:18:00      -19.127      -27.974        1.603       30.138       22.082       15.893      908.290      487.608      252.594        0.140        0.082       33.888       12.607        0.138      333.931        3.569      856.242
12/16/2014  00:19:00      -44.849      -47.092        4.223       42.892       26.612       22.199     1839.728      708.222      492.774        0.364        0.152       65.032       25.385        0.152      333.945        3.593      856.243
12/16/2014  00:20:00      -76.997      -57.103        2.188       33.238       30.623       23.928     1104.743      937.749      572.531        0.590        0.131       95.861       19.674        0.042      333.953        3.606      856.222
12/16/2014  00:21:00      -71.763      -48.937        4.392       37.897       33.152       17.673     1436.150     1099.033      312.325        0.521        0.142       86.861       16.939        0.038      333.930        3.570      856.200
12/16/2014  00:22:00     -104.996      -27.231       -6.671       39.002       21.974       18.712     1521.133      482.859      350.152        0.708        0.118      108.470       21.433        0.039      333.901        3.520      856.163
12/16/2014  00:23:00     -111.586      -13.225       -8.006       26.673       25.005       19.004      711.458      625.246      361.155        0.719        0.085      112.367       14.247        0.016      333.930        3.568      856.121
12/16/2014  00:24:00     -105.196      -22.660       -7.730       36.616       20.277       17.135     1340.708      411.175      293.625        0.684        0.102      107.609       19.242        0.032      333.855        3.445      856.074
12/16/2014  00:25:00     -104.118        8.911      -10.956       33.019       28.630       17.910     1090.255      819.691      320.751        0.663        0.112      104.498       14.289        0.019      333.949        3.599      856.032
12/16/2014  00:26:00     -115.679        0.909      -15.280       32.105       25.354       16.001     1030.760      642.814      256.027        0.777        0.096      115.683       13.197        0.013      334.018        3.714      856.013
12/16/2014  00:27:00     -127.104      -35.052      -14.053       23.623       25.370       17.676      558.044      643.646      312.445        0.955        0.076      131.848       14.546        0.012      333.762        3.289      856.005
12/16/2014  00:28:00     -111.349      -73.646       -3.849       29.919       20.555       16.633      895.174      422.508      276.668        0.972        0.080      133.500       14.498        0.012      333.730        3.236      856.008
12/16/2014  00:29:00      -30.408      -25.001       -6.800       39.245       16.081       13.551     1540.199      258.586      183.635        0.179        0.099       39.366       10.107        0.066      333.740        3.252      856.032
12/16/2014  00:30:00      -10.073      -23.772       -1.014       21.978       12.931       10.861      483.024      167.206      117.965        0.072        0.038       25.818        1.998        0.006      333.674        3.143      856.055
12/16/2014  00:31:00       -2.646        8.365       15.355        9.460       23.720       11.965       89.501      562.621      143.160        0.055        0.040        8.774        5.765        0.432      333.627        3.067      856.068
12/16/2014  00:32:00       10.533       26.924       43.651       25.152       24.035       24.790      632.599      577.685      614.565        0.228        0.091       28.911       20.913        0.523      333.625        3.064      856.081
12/16/2014  00:33:00       64.382       45.822       45.518       41.403       43.413       33.678     1714.202     1884.685     1134.224        0.652        0.237       79.023       22.961        0.084      333.415        2.714      856.093
12/16/2014  00:34:00       80.278       73.286       56.064       59.541       33.440       35.960     3545.081     1118.264     1293.113        1.046        0.298      108.699       35.750        0.108      333.302        2.528      856.102
12/16/2014  00:35:00       81.628       73.611       68.895       52.964       34.859       34.138     2805.147     1215.169     1165.395        1.101        0.259      109.917       21.708        0.039      333.275        2.483      856.105
12/16/2014  00:36:00       93.288       47.190       35.315       38.768       31.681       37.294     1502.957     1003.716     1390.820        0.804        0.195      104.544       28.718        0.075      333.284        2.497      856.095
12/16/2014  00:37:00       45.487       44.495       49.523       31.828       32.057       28.803     1013.028     1027.641      829.586        0.469        0.144       63.630       21.895        0.118      333.297        2.520      856.085
12/16/2014  00:38:00       43.381       22.921       22.175       27.864       29.152       20.686      776.405      849.861      427.925        0.248        0.103       49.064       13.003        0.070      333.318        2.555      856.083
12/16/2014  00:39:00       41.818       14.088       27.061       21.441       16.720       15.655      459.713      279.557      245.090        0.183        0.049       44.127       13.818        0.098      333.311        2.543      856.077
12/16/2014  00:40:00       57.577       38.139       22.006       22.147       15.130       19.019      490.486      228.932      361.719        0.317        0.054       69.063       14.576        0.045      333.363        2.628      856.033
12/16/2014  00:41:00       73.743       44.296       13.522       24.004       16.409       15.168      576.186      269.265      230.076        0.433        0.054       86.024       11.545        0.018      333.341        2.592      855.982
12/16/2014  00:42:00       62.388       54.854        8.087       26.622       21.903       13.717      708.755      479.730      188.144        0.417        0.069       83.073       12.832        0.024      333.311        2.542      855.942
12/16/2014  00:43:00       52.823       34.293        5.254       29.287       26.500       20.598      857.706      702.251      424.286        0.299        0.099       62.978       20.521        0.106      333.310        2.539      855.930
12/16/2014  00:44:00       64.926       30.246        5.179       26.504       22.404       20.314      702.451      501.931      412.665        0.339        0.081       71.626        9.869        0.019      333.357        2.618      855.941
12/16/2014  00:45:00       30.118        5.937        9.388       29.793       21.068       22.469      887.623      443.859      504.873        0.143        0.092       30.697       19.415        0.400      333.400        2.690      855.972
12/16/2014  00:46:00       -3.300       23.822       40.476       12.202       16.627        7.197      148.879      276.447       51.799        0.135        0.024       24.050        9.019        0.141      333.425        2.731      856.007
12/16/2014  00:47:00       30.822      -54.009       -1.253       24.091       33.281       23.375      580.353     1107.640      546.412        0.305        0.112       62.185       19.453        0.098      333.524        2.894      856.047
12/16/2014  00:48:00       21.813      -58.692       -7.417       20.631       43.641       28.648      425.636     1904.520      820.732        0.356        0.158       62.615       28.734        0.211      333.566        2.964      856.063
12/16/2014  00:49:00       -8.957      -29.372       18.907       25.635       39.360       19.595      657.135     1549.196      383.949        0.194        0.130       30.707       16.526        0.290      333.538        2.918      856.062
12/16/2014  00:50:00      -13.470       -2.619       10.969       12.815       29.944       10.533      164.232      896.618      110.954        0.074        0.059       13.722        8.889        0.420      333.498        2.853      856.060
12/16/2014  00:51:00      -12.189        4.924        3.124       12.118       11.062       11.570      146.841      122.370      133.861        0.029        0.020       13.145        7.980        0.368      333.548        2.936      856.062
12/16/2014  00:52:00      -10.306      -19.337       -8.181       20.130       19.251       16.105      405.228      370.595      259.370        0.079        0.052       21.911       17.647        0.649      333.568        2.970      856.048
12/16/2014  00:53:00      -30.836       -4.809      -24.941       17.079       25.594       10.930      291.685      655.066      119.463        0.133        0.053       31.209        6.954        0.050      333.533        2.909      856.040
12/16/2014  00:54:00      -17.242       15.870       -1.103       15.860       13.957       17.053      251.550      194.789      290.789        0.064        0.037       23.434       11.946        0.260      333.489        2.837      856.013
12/16/2014  00:55:00       -1.952       25.855       24.966       19.264       16.297       11.753      371.086      265.580      138.123        0.104        0.039       25.929        7.747        0.089      333.389        2.671      855.986
12/16/2014  00:56:00       14.006       20.077        8.616       20.215       18.673       15.142      408.657      348.672      229.278        0.083        0.049       24.480        8.298        0.115      333.351        2.609      855.956
12/16/2014  00:57:00        2.948       15.674       -8.380       26.253       16.609       13.837      689.198      275.875      191.462        0.074        0.058       15.948       13.287        0.694      333.228        2.403      855.943
12/16/2014  00:58:00       -7.563       11.479       -8.337       23.794       18.055       11.795      566.154      326.000      139.123        0.064        0.052       13.746       11.033        0.644      333.208        2.371      855.942
12/16/2014  00:59:00      -39.524        9.823       -8.868       16.265       14.787        7.145      264.559      218.657       51.050        0.114        0.027       40.727        3.187        0.006      333.309        2.539      855.944
12/16/2014  01:00:00      -64.250        4.262       -5.869       19.764       15.177       13.726      390.633      230.330      188.399        0.249        0.040       64.391        7.115        0.012      333.326        2.565      855.947
12/16/2014  01:01:00      -64.312       22.133       -3.710       26.891       21.719       16.954      723.130      471.711      287.453        0.306        0.074       68.014       14.890        0.048      333.498        2.853      855.937
12/16/2014  01:02:00      -60.143       48.788      -11.019       23.884       21.582       20.842      570.467      465.781      434.405        0.379        0.074       77.443       16.539        0.046      333.550        2.939      855.920
12/16/2014  01:03:00      -64.967       64.011      -20.873       13.145       22.054       12.031      172.780      486.389      144.745        0.478        0.040       91.204       12.122        0.018      333.504        2.862      855.908
12/16/2014  01:04:00      -39.908       35.624       -1.811       19.041       33.508       11.857      362.558     1122.780      140.581        0.225        0.081       53.496       11.478        0.046      333.488        2.835      855.898
12/16/2014  01:05:00      -49.275      -13.711        2.927       18.008       22.184       13.888      324.296      492.147      192.880        0.182        0.050       51.147       11.651        0.052      333.425        2.732      855.895
12/16/2014  01:06:00     -100.609      -31.441       -8.217       21.145       13.395       11.875      447.100      179.436      141.020        0.597        0.038      105.407        6.061        0.003      333.259        2.454      855.888
12/16/2014  01:07:00     -113.436      -26.501      -10.761       27.837       24.610       18.918      774.907      605.635      357.874        0.771        0.087      116.491       16.478        0.020      333.194        2.349      855.869
12/16/2014  01:08:00     -110.134       -8.821       -9.441       31.711       28.355       20.737     1005.597      804.015      430.007        0.727        0.112      110.486       17.570        0.025      333.192        2.344      855.848
12/16/2014  01:09:00     -106.811       25.301       -7.410       32.513       24.400       18.908     1057.107      595.383      357.498        0.706        0.100      109.767       11.758        0.011      333.352        2.609      855.830
12/16/2014  01:10:00      -42.953        9.826       -0.776       17.084       20.740       13.242      291.863      430.138      175.352        0.142        0.045       44.063        8.454        0.037      333.413        2.711      855.821
12/16/2014  01:11:00      -58.733      -32.517       -8.699       16.467       14.309        9.375      271.165      204.740       87.890        0.257        0.028       67.134        5.455        0.007      333.235        2.415      855.834
12/16/2014  01:12:00      -66.704      -45.731       -9.041       21.614       16.905       12.156      467.148      285.787      147.763        0.376        0.045       80.874        4.826        0.004      333.226        2.402      855.861
12/16/2014  01:13:00      -81.333      -44.617        1.032       33.770       15.628       15.081     1140.430      244.222      227.433        0.511        0.081       92.767       16.095        0.030      333.196        2.353      855.883
12/16/2014  01:14:00     -120.327      -45.498       -6.346       22.143       21.342       15.229      490.303      455.485      231.913        0.888        0.059      128.642       12.970        0.010      333.174        2.315      855.889
12/16/2014  01:15:00     -119.307      -16.200       -9.939       25.174       22.669       18.412      633.709      513.880      338.997        0.804        0.074      120.402       15.585        0.017      333.157        2.287      855.879
12/16/2014  01:16:00     -103.632       -4.240        1.596       44.710       28.112       28.739     1998.961      790.258      825.945        0.719        0.181      103.719       28.720        0.077      333.110        2.211      855.871
12/16/2014  01:17:00     -128.134       10.180      -10.847       57.859       36.027       21.780     3347.689     1297.913      474.361        1.088        0.256      128.538       17.990        0.020      333.139        2.258      855.850
12/16/2014  01:18:00     -158.984       20.933      -15.401       46.069       30.649       21.239     2122.367      939.349      451.107        1.473        0.176      160.356       21.914        0.019      333.099        2.191      855.840
12/16/2014  01:19:00     -110.695      -13.406       -8.559       34.720       23.125       19.557     1205.491      534.769      382.465        0.731        0.106      111.504       18.735        0.028      333.062        2.131      855.849
12/16/2014  01:20:00     -130.655       -4.407      -16.585       24.910       34.857       15.177      620.503     1214.997      230.339        0.972        0.103      130.729       11.034        0.007      333.043        2.099      855.864
12/16/2014  01:21:00     -105.978      -19.342       -2.472       42.467       34.995       23.501     1803.456     1224.635      552.297        0.760        0.179      107.728       26.517        0.061      332.975        1.987      855.894
12/16/2014  01:22:00      -74.312      -46.466        8.799       42.145       30.376       19.760     1776.168      922.691      390.467        0.542        0.154       87.643       19.604        0.050      333.001        2.030      855.905
12/16/2014  01:23:00      -51.107      -24.359       -1.232       31.741       27.074       15.116     1007.461      732.992      228.496        0.259        0.098       56.615       14.413        0.065      333.052        2.116      855.912
12/16/2014  01:24:00      -10.776       -8.281       10.151       18.020       20.306       19.173      324.727      412.320      367.612        0.070        0.055       13.590       15.880        1.365      333.127        2.239      855.920
12/16/2014  01:25:00      -44.660      -13.356       -4.766       15.165       15.640       10.621      229.962      244.617      112.811        0.139        0.029       46.615        6.384        0.019      333.122        2.229      855.942
12/16/2014  01:26:00      -41.241       -8.174       -2.992       12.413       13.580        9.488      154.076      184.425       90.019        0.110        0.021       42.043        6.997        0.028      333.157        2.285      855.972
12/16/2014  01:27:00      -58.167       -1.678       -7.588       14.439       21.833       11.732      208.471      476.683      137.647        0.213        0.041       58.191        8.810        0.023      333.194        2.347      855.999
12/16/2014  01:28:00      -50.603        1.484        0.888       27.553       13.756       12.599      759.178      189.229      158.731        0.184        0.055       50.625       17.047        0.113      333.166        2.301      856.013
12/16/2014  01:29:00      -63.122      -37.090       -7.153       38.521       20.697       16.521     1483.879      428.349      272.944        0.380        0.109       73.212       16.321        0.050      333.152        2.281      856.010
12/16/2014  01:30:00      -63.189      -38.566       -2.036       22.799       17.265       13.036      519.808      298.076      169.935        0.324        0.049       74.028       12.187        0.027      333.173        2.313      855.994
12/16/2014  01:31:00      -25.471        8.981       -2.807       16.793       28.845       10.991      282.002      832.025      120.807        0.099        0.062       27.009       11.385        0.178      333.114        2.216      855.965
12/16/2014  01:32:00      -37.157        9.106       -0.800       18.028       20.931       16.637      325.008      438.126      276.780        0.125        0.052       38.256       10.476        0.075      333.190        2.342      855.928
12/16/2014  01:33:00       17.070       50.709        4.566       19.040       16.816       17.777      362.524      282.767      316.013        0.192        0.048       53.505        7.078        0.018      333.183        2.330      855.903
12/16/2014  01:34:00      -38.487       21.651       -3.299       26.952       25.113       16.205      726.389      630.677      262.589        0.179        0.081       44.159       11.426        0.067      333.350        2.608      855.900
12/16/2014  01:35:00      -62.967      -10.733      -18.223       18.696       25.567       12.952      349.554      653.669      167.753        0.279        0.059       63.876       13.030        0.042      333.332        2.579      855.906
12/16/2014  01:36:00      -87.540      -41.215      -10.084       18.077       19.814       11.629      326.785      392.590      135.224        0.516        0.043       96.757        6.983        0.005      333.263        2.463      855.926
12/16/2014  01:37:00      -71.602      -48.706        3.574       61.100       33.715       21.489     3733.246     1136.713      461.796        0.642        0.267       86.597       28.299        0.107      333.268        2.470      855.938
12/16/2014  01:38:00     -103.828      -62.725       -7.489       42.778       37.486       25.469     1829.950     1405.216      648.668        0.933        0.194      121.304       22.593        0.035      333.297        2.520      855.949
12/16/2014  01:39:00     -102.508      -71.368       -3.904       41.169       28.667       21.994     1694.910      821.813      483.745        0.931        0.150      124.905       21.380        0.029      333.294        2.515      855.942
12/16/2014  01:40:00      -49.048      -31.639       -0.609       27.252       31.078       13.918      742.666      965.823      193.719        0.265        0.095       58.367       14.403        0.061      333.290        2.508      855.927
12/16/2014  01:41:00      -24.704      -18.382       -9.521       17.113       23.852        9.862      292.857      568.930       97.253        0.100        0.048       30.793        8.588        0.078      333.324        2.564      855.912
12/16/2014  01:42:00      -23.959      -13.651        0.151       12.393       10.551        9.115      153.574      111.323       83.089        0.055        0.017       27.575        7.227        0.069      333.492        2.841      855.898
12/16/2014  01:43:00       -8.905      -15.794        3.989       10.743       13.857        8.038      115.405      192.022       64.614        0.036        0.019       18.131        6.361        0.123      333.445        2.762      855.891
12/16/2014  01:44:00        9.231       10.765       14.472       13.232        9.229        5.648      175.093       85.183       31.897        0.035        0.015       14.181        4.731        0.111      333.397        2.686      855.879
12/16/2014  01:45:00       18.367       16.511       -7.142        8.110       12.441        7.288       65.778      154.771       53.120        0.047        0.014       24.697        4.218        0.029      333.314        2.547      855.871
12/16/2014  01:46:00       14.495       13.226        0.552        7.097        8.781        7.629       50.372       77.103       58.196        0.029        0.009       19.623        6.181        0.099      333.330        2.574      855.876
12/16/2014  01:47:00        2.668       10.515        2.500        5.131        5.834        3.821       26.323       34.032       14.603        0.010        0.004       10.848        1.864        0.030      333.391        2.672      855.896
12/16/2014  01:48:00      -14.875       -7.632        1.634       15.687        9.969        9.415      246.084       99.380       88.640        0.036        0.022       16.719        5.806        0.121      333.412        2.708      855.911
12/16/2014  01:49:00      -21.460       -1.292        2.529       10.957        7.144        5.435      120.055       51.038       29.544        0.033        0.010       21.499        4.411        0.042      333.343        2.595      855.907
12/16/2014  01:50:00        5.319        9.814        9.408       10.195        6.346        5.543      103.929       40.277       30.726        0.019        0.009       11.163        6.012        0.290      333.388        2.668      855.890
12/16/2014  01:51:00       33.061       21.702        6.779       11.255        8.499        9.919      126.682       72.241       98.388        0.095        0.015       39.547        5.690        0.021      333.399        2.689      855.866
12/16/2014  01:52:00       43.610       30.072        5.120       11.210        7.701        8.950      125.670       59.309       80.111        0.155        0.013       52.974        4.527        0.007      333.384        2.662      855.855
12/16/2014  01:53:00       39.728       34.921        3.589       13.065       14.388       10.610      170.690      207.011      112.565        0.165        0.025       52.894        4.246        0.006      333.419        2.719      855.857
12/16/2014  01:54:00       23.898       35.941       27.137       21.034       22.039       14.803      442.418      485.699      219.117        0.187        0.057       43.161       10.178        0.056      333.479        2.820      855.866
12/16/2014  01:55:00        5.410       15.965       32.154       12.932       17.307        6.963      167.248      299.521       48.477        0.092        0.026       16.856        4.536        0.072      333.472        2.808      855.879
12/16/2014  01:56:00       -1.479       13.788       21.074        4.672        9.120        4.388       21.824       83.175       19.259        0.038        0.006       13.867        4.490        0.105      333.475        2.813      855.880
12/16/2014  01:57:00      -18.077      -16.265        1.073       16.307       22.314       19.244      265.929      497.934      370.351        0.086        0.057       24.317       20.076        0.682      333.484        2.829      855.879
12/16/2014  01:58:00      -16.540      -39.198      -11.625       25.696       22.143       13.935      660.300      490.299      194.193        0.164        0.067       42.544        8.996        0.045      333.457        2.782      855.883
12/16/2014  01:59:00       -3.908      -28.403      -13.795       17.300       19.896       14.226      299.303      395.837      202.387        0.095        0.045       28.670       11.845        0.171      333.472        2.809      855.883
12/16/2014  02:00:00        0.312       31.803        9.535       16.057       22.020       13.881      257.835      484.860      192.678        0.102        0.047       31.805       11.141        0.123      333.415        2.714      855.869
12/16/2014  02:01:00        4.794       35.949       56.955       26.768       30.193       21.966      716.501      911.619      482.519        0.333        0.106       36.267       16.876        0.217      333.397        2.684      855.832
12/16/2014  02:02:00       80.111       57.118        6.029       23.000       22.406       19.435      529.013      502.034      377.702        0.556        0.070       98.388       11.949        0.015      333.343        2.596      855.796
12/16/2014  02:03:00       89.203       47.297        0.991       30.113       25.157       19.249      906.817      632.885      370.526        0.605        0.096      100.966        7.320        0.005      333.309        2.540      855.763
12/16/2014  02:04:00       98.036       49.643       16.871       40.250       36.474       28.904     1620.049     1330.318      835.449        0.807        0.189      109.889       22.727        0.043      333.230        2.406      855.752
12/16/2014  02:05:00       81.394       35.380       17.460       38.219       26.569       22.642     1460.695      705.905      512.641        0.543        0.134       88.751        9.000        0.010      333.171        2.311      855.766
12/16/2014  02:06:00       33.365        7.087        9.548       22.301       21.535       13.322      497.327      463.739      177.466        0.120        0.057       34.109        7.250        0.045      333.149        2.274      855.801
12/16/2014  02:07:00      -16.495       -6.494        1.634       25.500        8.949        9.450      650.251       80.086       89.295        0.057        0.041       17.728       12.037        0.461      333.229        2.406      855.835
12/16/2014  02:08:00      -19.805       -9.539       -2.000       16.042       10.591        9.476      257.360      112.179       89.798        0.047        0.023       21.983        8.550        0.151      333.393        2.677      855.864
12/16/2014  02:09:00       -8.494      -19.704        1.694       20.845       17.233       12.923      434.511      296.977      167.013        0.068        0.045       21.457       10.235        0.228      333.418        2.720      855.872
12/16/2014  02:10:00       -7.580       18.610       -5.904       11.517       10.618       11.542      132.630      112.736      133.218        0.041        0.019       20.095        7.711        0.147      333.368        2.639      855.854
12/16/2014  02:11:00      -13.811       16.767       45.528       14.610       24.118       21.865      213.462      581.698      478.066        0.191        0.064       21.723        6.171        0.081      333.415        2.715      855.831
12/16/2014  02:12:00       39.090       69.389       71.304       45.854       26.718       18.814     2102.617      713.844      353.965        0.730        0.159       79.642       21.907        0.076      333.403        2.695      855.810
12/16/2014  02:13:00       85.289       60.540       37.211       25.157       19.865       22.924      632.875      394.625      525.525        0.694        0.078      104.591       17.430        0.028      333.381        2.660      855.806
12/16/2014  02:14:00       62.591       54.786       49.078       34.413       31.911       29.279     1184.272     1018.309      857.239        0.619        0.153       83.182       16.098        0.037      333.385        2.665      855.825
12/16/2014  02:15:00       69.136       72.121       46.202       28.836       21.263       18.484      831.536      452.134      341.642        0.687        0.081       99.906       15.912        0.025      333.335        2.583      855.861
12/16/2014  02:16:00       70.389       66.640       47.148       31.315       20.561       19.988      980.623      422.745      399.529        0.671        0.090       96.930       10.246        0.011      333.271        2.476      855.904
12/16/2014  02:17:00       62.354       42.770       26.923       36.951       18.230       23.289     1365.347      332.338      542.357        0.434        0.112       75.612       18.757        0.062      333.214        2.380      855.969
12/16/2014  02:18:00       53.277        0.592        4.626       26.533       25.953       24.894      703.993      673.538      619.714        0.243        0.100       53.280       21.260        0.159      333.256        2.451      856.020
12/16/2014  02:19:00       29.555      -14.449       15.323       24.343       25.316       28.254      592.564      640.899      798.273        0.167        0.102       32.897       22.198        0.455      333.312        2.544      856.055
12/16/2014  02:20:00       25.858        6.869       27.955       26.129       41.981       25.807      682.711     1762.377      665.979        0.230        0.156       26.755       29.088        1.182      333.293        2.511      856.080
12/16/2014  02:21:00       37.283      -25.385       15.345       24.614       28.613       22.691      605.846      818.696      514.866        0.210        0.097       45.104       19.688        0.191      333.342        2.594      856.085
12/16/2014  02:22:00       17.682       39.351       36.592       20.171       16.376       17.372      406.867      268.159      301.797        0.209        0.049       43.141        7.273        0.028      333.298        2.520      856.078
12/16/2014  02:23:00       31.860       40.384       43.777       29.961       21.235       17.367      897.673      450.924      301.605        0.311        0.083       51.439       16.353        0.101      333.322        2.560      856.078
12/16/2014  02:24:00       65.290       52.977       16.688       21.598       21.423       21.262      466.466      458.951      452.079        0.436        0.069       84.079        7.730        0.008      333.210        2.374      856.075
12/16/2014  02:25:00       87.457       62.420        6.193       20.146       19.069       19.306      405.865      363.627      372.730        0.636        0.057      107.448        7.746        0.005      333.109        2.208      856.068
12/16/2014  02:26:00       80.684       61.259       -2.454       19.537       19.216       13.599      381.713      369.240      184.932        0.560        0.047      101.305        6.128        0.004      333.087        2.171      856.066
12/16/2014  02:27:00       57.033       56.335        4.239       14.812       11.169       14.338      219.394      124.753      205.591        0.350        0.027       80.165        8.224        0.011      333.089        2.177      856.061
12/16/2014  02:28:00       28.871       41.723        1.283       26.319       20.484       15.978      692.714      419.589      255.289        0.197        0.068       50.738       13.868        0.075      333.115        2.222      856.057
12/16/2014  02:29:00       34.348       37.458        4.275       22.830       27.378       21.874      521.217      749.556      478.452        0.217        0.087       50.822       18.308        0.130      333.115        2.220      856.060
12/16/2014  02:30:00       44.921       29.190        6.665       18.327       14.898       14.255      335.886      221.950      203.215        0.184        0.038       53.572        4.139        0.006      333.106        2.203      856.098
12/16/2014  02:31:00       55.239       35.071       11.479       23.443       16.485       14.483      549.594      271.764      209.756        0.272        0.052       65.432        7.450        0.013      333.148        2.274      856.159
12/16/2014  02:32:00       81.215       45.186        8.722       14.942       13.984       16.247      223.278      195.539      263.966        0.470        0.034       92.939        5.052        0.003      333.141        2.262      856.225
12/16/2014  02:33:00       62.643       45.135       10.724       22.357       18.478       17.603      499.833      341.449      309.850        0.361        0.058       77.210        8.459        0.012      333.117        2.223      856.259
12/16/2014  02:34:00       67.432       44.371        2.763       19.762       18.015       18.576      390.528      324.523      345.081        0.379        0.053       80.720        9.531        0.014      333.076        2.155      856.263
12/16/2014  02:35:00       38.293       52.525       -1.335       22.002       28.553       19.385      484.079      815.251      375.785        0.295        0.084       65.001       17.825        0.075      333.055        2.118      856.245
12/16/2014  02:36:00       35.000       38.576        9.672       31.971       25.755       21.653     1022.120      663.326      468.847        0.248        0.108       52.088       11.643        0.050      333.050        2.112      856.222
12/16/2014  02:37:00       34.490       54.842       -6.050       22.737       29.500       17.092      516.958      870.229      292.125        0.296        0.084       64.786        9.391        0.021      333.003        2.036      856.201
12/16/2014  02:38:00       28.396       59.659      -10.145       15.623       21.867       12.259      244.092      478.176      150.294        0.267        0.044       66.072       12.430        0.035      332.997        2.026      856.197
12/16/2014  02:39:00       17.034       41.048       -0.052        9.380       10.254        9.357       87.984      105.150       87.561        0.113        0.014       44.441        7.517        0.029      333.003        2.036      856.202
12/16/2014  02:40:00       10.038       19.305        2.040        9.536       17.986        8.163       90.927      323.499       66.638        0.048        0.024       21.759       10.179        0.219      333.062        2.130      856.201
12/16/2014  02:41:00       37.609       28.149        9.578       13.144        9.453        8.868      172.767       89.354       78.639        0.132        0.017       46.976        6.252        0.018      333.086        2.172      856.206
12/16/2014  02:42:00       45.940       33.201        6.827       12.242        9.168       10.549      149.876       84.052      111.274        0.180        0.017       56.681        7.853        0.019      333.047        2.105      856.204
12/16/2014  02:43:00       55.792       36.914       12.106       11.074       13.112       12.175      122.636      171.934      148.235        0.253        0.022       66.898        9.286        0.019      333.041        2.096      856.198
12/16/2014  02:44:00      103.659       64.898       14.473       21.505       19.494       22.944      462.458      380.034      526.429        0.827        0.068      122.299        8.654        0.005      333.033        2.084      856.192
12/16/2014  02:45:00      114.124       61.840       13.870       28.330       19.671       23.600      802.601      386.952      556.951        0.939        0.087      129.801        5.352        0.002      333.031        2.080      856.184
12/16/2014  02:46:00       81.041       35.751        4.308       28.865       33.186       27.990      833.164     1101.322      783.432        0.529        0.136       88.577       13.846        0.024      333.001        2.030      856.180
12/16/2014  02:47:00       73.605       51.268       12.367       25.079       15.767       15.704      628.933      248.590      246.609        0.466        0.056       89.700       11.242        0.016      332.942        1.932      856.183
12/16/2014  02:48:00       73.783       45.813        0.834       13.522       12.462       10.216      182.842      155.296      104.370        0.399        0.022       86.849        6.798        0.006      332.942        1.934      856.178
12/16/2014  02:49:00       62.044       32.121        6.626       15.127       14.091       12.773      228.824      198.548      163.158        0.276        0.030       69.865        8.280        0.014      332.967        1.973      856.179
12/16/2014  02:50:00       35.198        8.388        5.725       24.107       16.034       12.282      581.135      257.091      150.848        0.117        0.049       36.183        8.193        0.051      333.030        2.078      856.176
12/16/2014  02:51:00        0.634        7.075       14.552        7.488       19.528       14.632       56.077      381.332      214.103        0.046        0.033        7.103        8.582        1.460      333.064        2.132      856.182
12/16/2014  02:52:00      -16.497        7.496        5.944       13.922        7.604       13.260      193.811       57.814      175.820        0.040        0.021       18.120       10.541        0.338      333.041        2.096      856.176
12/16/2014  02:53:00      -57.705       17.623       -5.280       18.582       11.466        8.196      345.284      131.480       67.174        0.211        0.027       60.336        6.497        0.012      333.063        2.134      856.174
12/16/2014  02:54:00      -69.229       25.482       -7.178       18.173       18.297       16.784      330.257      334.772      281.694        0.322        0.047       73.770       13.246        0.032      333.085        2.169      856.172
12/16/2014  02:55:00      -87.726       15.032       -4.467       19.045       14.699       12.242      362.720      216.058      149.868        0.434        0.036       89.005        2.889        0.001      333.215        2.383      856.176
12/16/2014  02:56:00      -87.767       -4.894       -2.048       37.313       25.145       21.458     1392.287      632.262      460.467        0.511        0.124       87.904       19.094        0.047      333.157        2.287      856.167
12/16/2014  02:57:00     -110.170      -34.530        0.972       41.789       23.187       19.859     1746.333      537.614      394.371        0.800        0.134      115.454       12.730        0.012      333.143        2.265      856.157
12/16/2014  02:58:00      -97.614      -32.462       -3.443       30.670       32.110       16.098      940.629     1031.056      259.158        0.641        0.112      102.870       14.448        0.020      333.130        2.245      856.146
12/16/2014  02:59:00      -93.892       -6.057       -7.850       27.124       26.958       17.775      735.715      726.713      315.963        0.535        0.089       94.087       16.643        0.031      333.163        2.298      856.149
12/16/2014  03:00:00      -91.032      -14.392       -5.395       24.367       20.842       18.081      593.729      434.391      326.926        0.494        0.068       92.163       13.320        0.021      333.158        2.291      856.154
12/16/2014  03:01:00     -117.685        3.302      -12.770       25.392       27.238       16.026      644.757      741.891      256.838        0.783        0.082      117.731       10.284        0.008      333.238        2.421      856.149
12/16/2014  03:02:00     -124.027       -0.351      -12.888       33.496       29.334       16.179     1121.997      860.460      261.765        0.890        0.112      124.028       15.556        0.016      333.190        2.342      856.137
12/16/2014  03:03:00     -133.262       32.409      -10.277       37.696       26.883       20.908     1420.983      722.676      437.141        1.075        0.129      137.146       19.401        0.020      333.153        2.280      856.126
12/16/2014  03:04:00     -107.817       -3.817      -11.093       48.556       27.118       22.853     2357.704      735.408      522.273        0.769        0.181      107.885       23.164        0.046      333.131        2.244      856.117
12/16/2014  03:05:00      -74.594       -8.898       -0.835       33.373       30.697       17.900     1113.740      942.293      320.397        0.401        0.119       75.123       14.188        0.036      333.099        2.190      856.117
12/16/2014  03:06:00     -116.282      -26.652      -12.412       18.820       18.238       11.473      354.209      332.610      131.639        0.760        0.041      119.297        9.902        0.007      333.066        2.139      856.125
12/16/2014  03:07:00      -90.638      -45.821        5.607       33.811       28.712       19.052     1143.154      824.363      362.963        0.634        0.117      101.562       20.629        0.041      333.107        2.204      856.126
12/16/2014  03:08:00      -98.351      -53.962       -1.652       23.574       21.969       15.911      555.732      482.644      253.148        0.694        0.065      112.182       13.694        0.015      333.126        2.238      856.120
12/16/2014  03:09:00     -109.476      -36.627       -1.446       40.502       28.819       22.488     1640.372      830.535      505.702        0.815        0.149      115.440       18.950        0.027      333.175        2.315      856.103
12/16/2014  03:10:00     -107.596      -51.245       -1.934       39.061       31.098       16.225     1525.744      967.115      263.241        0.848        0.138      119.176       16.782        0.020      333.191        2.343      856.093
12/16/2014  03:11:00      -70.000      -32.545       -3.790       26.411       26.759       12.540      697.551      716.018      157.249        0.377        0.079       77.195       11.338        0.022      333.232        2.410      856.092
12/16/2014  03:12:00      -53.857      -55.326        2.128       37.963       26.959       18.183     1441.162      726.768      330.606        0.423        0.125       77.212       18.033        0.055      333.287        2.503      856.099
12/16/2014  03:13:00      -72.903      -73.410       -2.817       27.259       27.960       17.514      743.068      781.735      306.746        0.627        0.092      103.459       15.757        0.023      333.250        2.441      856.106
12/16/2014  03:14:00      -92.544      -87.405      -11.663       27.050       38.831       14.132      731.703     1507.849      199.702        0.939        0.122      127.296       11.065        0.008      333.277        2.486      856.105
12/16/2014  03:15:00      -82.078      -65.428       -9.204       30.343       35.164       20.454      920.695     1236.530      418.350        0.684        0.129      104.964        8.388        0.006      333.320        2.557      856.095
12/16/2014  03:16:00      -93.143      -46.400       -0.450       38.978       29.986       17.694     1519.289      899.139      313.069        0.678        0.137      104.061       20.715        0.040      333.262        2.461      856.088
12/16/2014  03:17:00      -85.889      -52.591       -4.673       20.173       34.436       18.731      406.953     1185.845      350.864        0.605        0.097      100.711       10.805        0.012      333.263        2.463      856.087
12/16/2014  03:18:00      -93.135      -36.377        5.192       28.073       43.172       25.067      788.077     1863.860      628.341        0.665        0.164       99.987       16.962        0.029      333.231        2.408      856.087
12/16/2014  03:19:00      -97.909       -3.878       -3.889       34.036       26.769       22.831     1158.453      716.597      521.262        0.601        0.120       97.986       20.714        0.045      333.154        2.283      856.075
12/16/2014  03:20:00      -70.313       -1.449       -2.416       41.309       17.566       20.742     1706.405      308.568      430.216        0.370        0.122       70.328       23.395        0.111      333.166        2.303      856.054
12/16/2014  03:21:00     -122.467       -3.630       -7.253       33.106       20.780       19.393     1096.021      431.797      376.098        0.848        0.095      122.520       17.568        0.021      333.168        2.305      856.023
12/16/2014  03:22:00     -133.508       -7.334       -1.838       40.173       24.814       23.143     1613.884      615.749      535.597        1.032        0.138      133.710       21.977        0.027      333.158        2.290      856.008
12/16/2014  03:23:00     -158.331       -3.450       -2.499       47.663       37.404       28.803     2271.728     1399.063      829.605        1.479        0.225      158.368       29.986        0.036      333.151        2.278      856.007
12/16/2014  03:24:00     -182.407      -45.470      -12.188       43.250       40.314       25.223     1870.565     1625.214      636.201        1.981        0.207      187.988       23.789        0.016      333.080        2.161      856.010
12/16/2014  03:25:00     -151.491      -38.383      -12.149       41.042       45.079       27.068     1684.409     2032.127      732.687        1.451        0.222      156.278       21.841        0.020      333.106        2.203      856.019
12/16/2014  03:26:00     -113.618      -54.704      -12.703       46.016       60.531       23.369     2117.448     3664.040      546.131        1.119        0.316      126.101       20.536        0.027      333.092        2.180      856.030
12/16/2014  03:27:00      -69.213      -48.296        2.011       56.658       36.368       28.322     3210.172     1322.614      802.126        0.623        0.267       84.398       30.395        0.130      333.095        2.185      856.029
12/16/2014  03:28:00      -68.695      -18.304       -8.831       59.845       40.916       19.851     3581.369     1674.124      394.070        0.539        0.282       71.092       25.005        0.124      333.137        2.255      856.017
12/16/2014  03:29:00     -130.754       14.071      -16.354       25.037       32.723       16.844      626.864     1070.774      283.733        0.977        0.099      131.509        8.837        0.005      333.112        2.214      855.990
12/16/2014  03:30:00      -81.571       -1.753      -13.161       19.759       27.481       18.015      390.424      755.230      324.553        0.415        0.074       81.590        5.247        0.004      333.126        2.238      855.964
12/16/2014  03:31:00     -101.296      -14.315      -13.440       27.053       26.646       18.184      731.842      710.012      330.669        0.621        0.089      102.303       14.758        0.021      333.167        2.304      855.951
12/16/2014  03:32:00     -108.450      -32.154        0.351       31.797       31.967       19.755     1011.078     1021.921      390.271        0.761        0.121      113.117       16.987        0.023      333.173        2.314      855.959
12/16/2014  03:33:00     -109.965      -63.092       -6.042       34.557       25.506       20.525     1194.185      650.553      421.291        0.919        0.113      126.779       17.478        0.019      333.134        2.250      855.960
12/16/2014  03:34:00      -97.421      -54.970       -6.816       31.626       22.101       20.548     1000.192      488.438      422.203        0.723        0.096      111.859       14.609        0.017      333.143        2.265      855.939
12/16/2014  03:35:00      -68.926        9.561       -2.767       26.594       40.209       21.339      707.216     1616.768      455.364        0.381        0.139       69.586       15.061        0.047      333.213        2.380      855.916
12/16/2014  03:36:00      -33.244       43.113        1.566       21.378       32.146       17.152      457.024     1033.371      294.176        0.238        0.089       54.442       15.632        0.082      333.180        2.325      855.898
12/16/2014  03:37:00      -36.016       56.610       -1.851       21.661       33.044       20.151      469.183     1091.924      406.061        0.324        0.098       67.096       18.127        0.073      333.383        2.661      855.894
12/16/2014  03:38:00      -34.112       37.242       -2.004       23.160       34.858       17.932      536.399     1215.065      321.550        0.231        0.104       50.503       18.349        0.132      333.372        2.643      855.913
12/16/2014  03:39:00      -65.378      -15.518       -7.217       23.799       28.036       12.611      566.379      785.992      159.027        0.304        0.076       67.195       12.416        0.034      333.281        2.493      855.930
12/16/2014  03:40:00      -53.330      -14.429       -6.418       23.384       17.629       14.177      546.823      310.766      200.999        0.208        0.053       55.247       14.690        0.071      333.251        2.442      855.927
12/16/2014  03:41:00      -24.506        8.593       -2.680       25.814       29.572       10.636      666.382      874.530      113.134        0.117        0.083       25.969       11.401        0.193      333.306        2.532      855.909
12/16/2014  03:42:00       22.342       81.185       -0.563       27.108       29.440       21.846      734.822      866.696      477.226        0.458        0.104       84.203       20.894        0.062      333.320        2.555      855.892
12/16/2014  03:43:00       19.653       82.994      -12.547       14.612       15.368        9.023      213.505      236.181       81.415        0.398        0.027       85.289        4.975        0.003      333.284        2.493      855.888
12/16/2014  03:44:00       26.796       31.307       -0.346       10.216       22.501       12.444      104.373      506.275      154.848        0.123        0.038       41.209       10.459        0.064      333.273        2.475      855.899
12/16/2014  03:45:00       16.169        5.287       10.384       22.171       23.871        9.438      491.560      569.816       89.068        0.077        0.058       17.012        7.791        0.210      333.333        2.578      855.913
12/16/2014  03:46:00        2.089       13.909        2.827        6.728       11.886       10.836       45.266      141.270      117.418        0.025        0.015       14.065        9.509        0.457      333.277        2.484      855.922
12/16/2014  03:47:00        1.008       14.345       -2.230        9.980        6.878        4.749       99.603       47.304       22.548        0.019        0.008       14.380        3.206        0.050      333.276        2.485      855.935
12/16/2014  03:48:00      -10.791       12.216       -4.721        7.591       10.987        7.141       57.618      120.721       50.989        0.026        0.011       16.299        7.098        0.190      333.309        2.540      855.942
12/16/2014  03:49:00      -26.679      -10.051        2.852       10.460        7.840        6.542      109.402       61.464       42.795        0.052        0.011       28.510        3.652        0.016      333.312        2.545      855.953
12/16/2014  03:50:00      -33.054       -5.180       -0.054       11.830        9.859        5.564      139.958       97.201       30.960        0.069        0.013       33.457        4.309        0.017      333.336        2.585      855.965
12/16/2014  03:51:00      -32.514        1.994        2.474        7.624        6.985        7.850       58.125       48.790       61.624        0.062        0.008       32.575        4.083        0.016      333.343        2.595      855.961
12/16/2014  03:52:00      -49.093       12.221       -1.934       10.394        8.754        6.864      108.031       76.635       47.114        0.140        0.012       50.591        5.026        0.010      333.375        2.649      855.951
12/16/2014  03:53:00      -37.823       10.565       -0.915        6.126        5.122        5.464       37.527       26.238       29.851        0.082        0.005       39.271        2.697        0.005      333.377        2.652      855.941
12/16/2014  03:54:00      -29.316        4.507        3.083        7.289        6.699        8.290       53.131       44.871       68.717        0.053        0.008       29.660        5.773        0.038      333.387        2.669      855.937
12/16/2014  03:55:00      -28.158        3.884       -0.249       11.100        9.155        5.470      123.221       83.816       29.919        0.052        0.012       28.424        2.601        0.008      333.398        2.686      855.945
12/16/2014  03:56:00      -51.519      -17.192       -1.199       15.253       15.306        8.682      232.663      234.275       75.384        0.175        0.027       54.312        8.063        0.022      333.398        2.686      855.970
12/16/2014  03:57:00      -28.091      -15.339        5.426       22.560       12.614       14.705      508.947      159.108      216.229        0.097        0.044       32.006       13.697        0.183      333.453        2.777      856.000
12/16/2014  03:58:00      -46.607      -14.606        1.939       13.432        8.598       10.613      180.409       73.923      112.636        0.138        0.018       48.842        8.194        0.028      333.411        2.709      856.008
12/16/2014  03:59:00      -41.209      -15.956      -10.231       17.078        6.179        7.130      291.664       38.183       50.840        0.122        0.019       44.190        6.898        0.024      333.416        2.715      855.995
12/16/2014  04:00:00      -12.759        1.416       -4.397        6.349       10.604        6.370       40.308      112.440       40.578        0.019        0.010       12.837        3.586        0.078      333.471        2.805      855.964
12/16/2014  04:01:00       11.359       10.175        5.274       12.571       11.831        6.846      158.034      139.983       46.864        0.030        0.017       15.249        3.095        0.041      333.442        2.760      855.962
12/16/2014  04:02:00       29.779       14.962        2.317       16.678        9.830       12.142      278.160       96.620      147.426        0.082        0.026       33.326        4.654        0.020      333.369        2.640      855.969
12/16/2014  04:03:00       38.135       32.235       17.541       14.570       12.653       17.933      212.291      160.092      321.590        0.175        0.035       49.933        9.998        0.040      333.380        2.657      855.984
12/16/2014  04:04:00       60.685       47.452       15.387       22.967       16.835       19.129      527.486      283.421      365.920        0.367        0.059       77.035        6.963        0.008      333.368        2.636      855.995
12/16/2014  04:05:00       72.740       39.566       23.648       32.059       29.342       23.689     1027.778      860.957      561.166        0.493        0.122       82.804       16.886        0.042      333.278        2.488      856.007
12/16/2014  04:06:00       35.136       37.730       28.689       25.186       21.740       24.422      634.335      472.617      596.444        0.259        0.085       51.556       13.037        0.064      333.256        2.451      856.020
12/16/2014  04:07:00       40.092       41.108       30.197       24.714       20.661       22.076      610.768      426.878      487.363        0.287        0.076       57.421       18.486        0.104      333.271        2.475      856.030
12/16/2014  04:08:00       21.960       11.224       12.479       20.029       20.967       13.026      401.149      439.611      169.680        0.089        0.051       24.662        9.988        0.164      333.257        2.451      856.026
12/16/2014  04:09:00       14.167        9.390        8.759       11.186       10.466        9.187      125.121      109.545       84.400        0.034        0.016       16.997        5.025        0.087      333.297        2.515      856.031
12/16/2014  04:10:00      -15.952      -20.957        4.148       19.557       23.516       12.990      382.463      552.993      168.731        0.091        0.055       26.337       12.574        0.228      333.412        2.710      856.050
12/16/2014  04:11:00      -39.322      -38.435       14.992       61.599       40.058       25.675     3794.405     1604.631      659.216        0.465        0.303       54.985       35.673        0.421      333.496        2.848      856.075
12/16/2014  04:12:00      -67.297      -66.637        3.912       40.675       39.369       26.152     1654.495     1549.954      683.926        0.644        0.194       94.707       28.103        0.088      333.488        2.835      856.077
12/16/2014  04:13:00      -50.901      -45.294      -10.780       38.140       11.984       12.429     1454.628      143.614      154.489        0.326        0.088       68.136       12.988        0.036      333.374        2.648      856.073
12/16/2014  04:14:00       12.110       -0.675       14.894       17.287       12.632        8.443      298.842      159.557       71.289        0.045        0.026       12.128        7.088        0.341      333.470        2.806      856.067
12/16/2014  04:15:00        6.705       32.303       39.000       17.750       18.669       13.730      315.065      348.539      188.506        0.173        0.043       32.992        9.610        0.085      333.481        2.823      856.077
12/16/2014  04:16:00        0.687        1.383       12.669       11.864       20.356       15.715      140.762      414.374      246.946        0.048        0.040        1.544       13.520       76.658      333.482        2.826      856.098
12/16/2014  04:17:00      -17.119      -44.403       -6.205       17.635       22.594       16.684      310.992      510.467      278.343        0.170        0.055       47.589        8.188        0.030      333.540        2.921      856.113
12/16/2014  04:18:00       -9.882      -29.680        2.571       34.113       33.048       17.755     1163.701     1092.191      315.240        0.178        0.129       31.282       19.594        0.392      333.483        2.826      856.114
12/16/2014  04:19:00       -9.032       -5.044       17.722       16.993       15.942       15.606      288.772      254.158      243.544        0.060        0.039       10.345       11.003        1.131      333.501        2.857      856.114
12/16/2014  04:20:00        0.300       38.265       57.496       23.573       26.376       14.876      555.693      695.699      221.299        0.312        0.074       38.266       12.846        0.113      333.492        2.841      856.103
12/16/2014  04:21:00        6.769       51.573       60.671       21.398       34.106       16.159      457.870     1163.249      261.099        0.413        0.094       52.015       14.067        0.073      333.499        2.854      856.091
12/16/2014  04:22:00       37.571       36.723       46.321       40.066       38.981       25.649     1605.319     1519.550      657.872        0.434        0.189       52.537       25.070        0.228      333.456        2.781      856.085
12/16/2014  04:23:00       30.994       30.092       37.641       37.109       34.327       29.027     1377.080     1178.315      842.566        0.334        0.170       43.199       23.887        0.306      333.441        2.757      856.091
12/16/2014  04:24:00       84.568       54.340       29.358       23.665       22.562       21.774      560.037      509.064      474.113        0.625        0.077      100.521       10.779        0.011      333.392        2.677      856.090
12/16/2014  04:25:00       99.579       49.672       25.251       23.654       26.264       21.508      559.512      689.777      462.574        0.737        0.086      111.280       10.773        0.009      333.371        2.643      856.079
12/16/2014  04:26:00       83.764       38.112       30.489       40.301       25.855       28.384     1624.143      668.480      805.669        0.625        0.155       92.026       22.799        0.061      333.367        2.635      856.073
12/16/2014  04:27:00       63.643       29.200       18.089       28.464       21.448       24.787      810.217      459.999      614.416        0.356        0.094       70.022        9.542        0.019      333.366        2.634      856.077
12/16/2014  04:28:00       80.101       37.695       20.257       22.629       18.066       19.377      512.072      326.376      375.452        0.473        0.061       88.527       13.811        0.024      333.302        2.527      856.075
12/16/2014  04:29:00       72.870       35.929       12.344       25.631       21.647       17.626      656.925      468.573      310.670        0.409        0.072       81.246       12.862        0.025      333.326        2.568      856.069
12/16/2014  04:30:00       55.694       18.591       23.008       31.851       22.277       16.938     1014.464      496.252      286.910        0.289        0.090       58.715       11.770        0.040      333.334        2.580      856.062
12/16/2014  04:31:00       51.507       44.432       27.588       16.147       18.455       17.453      260.734      340.585      304.594        0.315        0.045       68.023        9.160        0.018      333.312        2.545      856.051
12/16/2014  04:32:00       55.548       42.791       15.131       20.468       12.125       16.979      418.932      147.024      288.283        0.300        0.043       70.119       12.743        0.033      333.315        2.550      856.045
12/16/2014  04:33:00       24.963       25.312       14.682       15.926       11.030       13.629      253.638      121.671      185.750        0.102        0.028       35.551       12.049        0.115      333.309        2.539      856.045
12/16/2014  04:34:00        9.508       36.819       -5.958        8.763        7.897        5.591       76.790       62.364       31.258        0.083        0.009       38.027        4.225        0.012      333.288        2.505      856.046
12/16/2014  04:35:00       -7.148       54.209      -11.074       17.997       14.368        7.487      323.907      206.445       56.052        0.185        0.029       54.679        5.527        0.010      333.348        2.604      856.045
12/16/2014  04:36:00      -76.273       28.387        2.422       25.208       24.129       22.355      635.464      582.204      499.766        0.417        0.086       81.385       10.064        0.015      333.475        2.814      856.058
12/16/2014  04:37:00     -110.515      -34.208       -6.455       36.752       38.906       20.226     1350.702     1513.680      409.083        0.835        0.164      115.688       18.845        0.027      333.414        2.713      856.076
12/16/2014  04:38:00      -99.282      -32.883       -1.438       28.408       35.223       19.148      807.009     1240.673      366.660        0.668        0.121      104.586       12.670        0.015      333.364        2.630      856.098
12/16/2014  04:39:00     -118.028      -20.828      -10.266       27.440       20.136       18.714      752.956      405.464      350.231        0.799        0.075      119.852       16.155        0.018      333.360        2.627      856.096
12/16/2014  04:40:00      -78.403      -10.255      -12.843       16.644       12.544       11.462      277.031      157.350      131.366        0.349        0.028       79.071        6.139        0.006      333.343        2.596      856.071
12/16/2014  04:41:00      -39.568       -1.716       -0.604       28.200        8.162        8.964      795.225       66.624       80.344        0.126        0.047       39.605       11.001        0.077      333.397        2.685      856.049
12/16/2014  04:42:00       40.293       35.396        7.024       24.886       25.482       19.276      619.307      649.307      371.559        0.228        0.082       53.632       21.164        0.156      333.375        2.649      856.028
12/16/2014  04:43:00       94.093       45.157       -0.181       27.059       18.432       22.876      732.197      339.751      523.309        0.624        0.080      104.368       11.191        0.011      333.366        2.635      856.021
12/16/2014  04:44:00       85.181       47.333       16.435       25.612       19.904       23.694      655.993      396.187      561.416        0.569        0.081       97.449       12.483        0.016      333.305        2.531      856.029
12/16/2014  04:45:00       41.430       47.648       32.422       23.272       16.663       19.302      541.578      277.671      372.585        0.311        0.060       63.141       14.998        0.056      333.330        2.575      856.040
12/16/2014  04:46:00        8.654       46.109       48.041       21.978       41.003       28.351      483.045     1681.267      803.785        0.374        0.148       46.914       29.486        0.395      333.380        2.657      856.045
12/16/2014  04:47:00       37.484       70.490       68.521       33.806       28.956       14.164     1142.857      838.428      200.615        0.663        0.109       79.837       14.154        0.031      333.358        2.622      856.029
12/16/2014  04:48:00       16.639       53.692       75.289       31.823       33.667       15.653     1012.691     1133.485      245.003        0.561        0.120       56.211       16.033        0.081      333.363        2.629      856.009
12/16/2014  04:49:00        6.829       43.584       71.166       36.050       46.191       22.594     1299.637     2133.630      510.481        0.548        0.197       44.115       22.571        0.262      333.360        2.624      856.007
12/16/2014  04:50:00       52.518       55.312       55.453       48.212       32.426       30.458     2324.378     1051.449      927.673        0.660        0.215       76.273       24.083        0.100      333.323        2.563      856.003
12/16/2014  04:51:00       83.894       49.544       33.189       40.779       32.110       31.107     1662.895     1031.036      967.644        0.713        0.183       97.431       18.173        0.035      333.270        2.473      856.002
12/16/2014  04:52:00       74.545       43.928       57.727       39.960       39.798       31.174     1596.765     1583.886      971.846        0.748        0.208       86.525       26.120        0.091      333.254        2.450      856.002
12/16/2014  04:53:00       47.892       68.474       66.087       58.169       47.767       26.890     3383.586     2281.686      723.069        0.887        0.319       83.560       20.509        0.060      333.260        2.458      856.017
12/16/2014  04:54:00       10.554       17.388       47.052       20.952       41.453       30.998      438.974     1718.330      960.889        0.287        0.156       20.340       29.943        2.167      333.269        2.472      856.050
12/16/2014  04:55:00       36.740      -36.359        5.285       15.283       26.740       16.211      233.581      715.025      262.809        0.196        0.061       51.690       16.909        0.107      333.293        2.512      856.072
12/16/2014  04:56:00       50.685       33.709       39.575       28.224       22.731       21.450      796.572      516.677      460.111        0.352        0.089       60.871       11.536        0.036      333.215        2.385      856.074
12/16/2014  04:57:00       77.603       47.556        3.903       25.039       19.908       19.194      626.947      396.343      368.417        0.485        0.070       91.016       12.647        0.019      333.159        2.291      856.063
12/16/2014  04:58:00       78.283       39.016        2.749       15.019       18.631       15.602      225.570      347.112      243.436        0.424        0.041       87.467        8.096        0.009      333.138        2.256      856.063
12/16/2014  04:59:00       50.989       31.842        3.406       28.896       21.722       14.446      834.974      471.826      208.692        0.257        0.076       60.115       11.389        0.036      333.131        2.246      856.065
12/16/2014  05:00:00       95.406       46.339        7.896       30.582       26.234       20.677      935.272      688.225      427.545        0.668        0.103      106.064       14.604        0.019      333.087        2.172      856.070
12/16/2014  05:01:00      107.033       67.686       31.900       40.350       21.689       31.279     1628.085      470.403      978.388        1.007        0.154      126.639       15.823        0.016      333.100        2.194      856.072
12/16/2014  05:02:00      138.228       90.001       33.789       35.311       26.644       32.568     1246.900      709.885     1060.705        1.568        0.151      164.946       23.447        0.020      333.122        2.230      856.060
12/16/2014  05:03:00      110.101       86.524       32.389       27.565       27.794       36.996      759.804      772.503     1368.723        1.178        0.145      140.031       13.386        0.009      333.059        2.127      856.040
12/16/2014  05:04:00      109.192       57.658        6.177       40.751       28.962       27.362     1660.647      838.791      748.660        0.927        0.162      123.480       21.136        0.029      332.993        2.019      856.026
12/16/2014  05:05:00      105.267       47.603       12.649       41.361       25.336       25.818     1710.697      641.903      666.553        0.826        0.151      115.530       21.376        0.034      333.002        2.034      856.024
12/16/2014  05:06:00       79.512       54.426       12.680       29.462       20.877       26.839      868.018      435.838      720.322        0.573        0.101       96.356       15.309        0.025      332.981        1.998      856.026
12/16/2014  05:07:00       61.072       39.418        9.422       36.743       21.497       18.856     1350.024      462.108      355.558        0.377        0.108       72.688        9.380        0.017      332.982        1.998      856.032
12/16/2014  05:08:00       59.613       40.461       12.476       28.860       20.815       19.787      832.928      433.244      391.525        0.350        0.083       72.047       10.092        0.020      332.984        2.004      856.030
12/16/2014  05:09:00       46.903       47.388        3.044       28.055       24.816       24.675      787.096      615.855      608.860        0.323        0.101       66.675       16.936        0.065      332.985        2.004      856.018
12/16/2014  05:10:00       55.597       49.855        5.075       26.837       27.517       24.475      720.247      757.195      599.009        0.384        0.104       74.677       20.092        0.072      332.988        2.012      856.009
12/16/2014  05:11:00       60.958       50.643        5.191       23.547       23.642       24.298      554.459      558.950      590.402        0.401        0.085       79.251       13.828        0.030      332.995        2.022      856.010
12/16/2014  05:12:00       85.407       62.555        8.482       28.198       24.314       18.927      795.151      591.160      358.235        0.651        0.087      105.866       15.860        0.022      332.980        1.995      856.023
12/16/2014  05:13:00       71.300       49.899        8.760       18.518       13.355       20.186      342.900      178.344      407.465        0.429        0.046       87.027       11.964        0.019      332.984        2.001      856.038
12/16/2014  05:14:00       80.292       47.259       10.848       22.772       22.480       19.818      518.553      505.355      392.750        0.511        0.071       93.168       14.451        0.024      332.961        1.962      856.048
12/16/2014  05:15:00       84.705       41.072       -2.033       25.193       22.324       15.185      634.702      498.355      230.576        0.511        0.068       94.138       10.234        0.012      332.969        1.978      856.049
12/16/2014  05:16:00       69.358       46.435       16.728       26.733       26.977       23.370      714.652      727.768      546.165        0.462        0.099       83.467       11.920        0.020      332.963        1.968      856.040
12/16/2014  05:17:00       91.003       32.149       18.486       43.368       25.248       26.561     1880.759      637.466      705.511        0.644        0.161       96.515       23.545        0.060      332.954        1.953      856.028
12/16/2014  05:18:00       79.204       40.524       19.664       36.296       23.169       23.944     1317.431      536.821      573.302        0.536        0.121       88.969       20.464        0.053      332.963        1.968      856.025
12/16/2014  05:19:00       88.333       48.423        9.427       25.107       21.827       23.718      630.348      476.431      562.565        0.595        0.083      100.735       18.129        0.032      332.924        1.903      856.054
12/16/2014  05:20:00       46.084       42.400        3.190       23.192       14.745       13.794      537.882      217.405      190.282        0.244        0.047       62.622        9.537        0.023      332.919        1.894      856.081
12/16/2014  05:21:00       27.373       46.661       -1.493       23.803       22.221       21.497      566.577      493.773      462.106        0.223        0.076       54.098       17.274        0.102      332.937        1.925      856.090
12/16/2014  05:22:00       18.749       55.358       -8.763       13.265       14.122       13.867      175.957      199.427      192.305        0.203        0.028       58.447        9.334        0.026      332.951        1.947      856.081
12/16/2014  05:23:00      -10.895       42.299       -2.722       10.582       16.092       12.347      111.975      258.947      152.460        0.122        0.026       43.679        6.923        0.025      333.024        2.069      856.066
12/16/2014  05:24:00        4.152       14.155        9.040       13.171       12.516        9.061      173.472      156.659       82.106        0.036        0.021       14.751        8.114        0.303      333.065        2.137      856.072
12/16/2014  05:25:00       32.056       19.826        0.446        9.969        9.019       10.221       99.373       81.349      104.474        0.085        0.014       37.692        4.888        0.017      333.015        2.054      856.083
12/16/2014  05:26:00       55.347       46.339        5.438       12.677       11.763       14.254      160.704      138.375      203.164        0.287        0.025       72.185        7.933        0.012      332.979        1.991      856.087
12/16/2014  05:27:00       76.174       50.476       13.406       12.179       12.038       11.736      148.334      144.923      137.725        0.448        0.022       91.380        6.692        0.005      332.983        1.999      856.080
12/16/2014  05:28:00       74.268       42.908       17.955       25.292       16.755       21.855      639.706      280.714      477.654        0.454        0.070       85.772       18.197        0.045      333.034        2.085      856.071
12/16/2014  05:29:00       63.548       38.388        5.257       12.745       11.086       17.490      162.447      122.891      305.883        0.307        0.030       74.243        9.178        0.015      332.987        2.007      856.060
12/16/2014  05:30:00       14.096       29.884       -6.402       14.368       14.408       11.655      206.442      207.597      135.842        0.084        0.027       33.042        4.673        0.020      332.987        2.009      856.053
12/16/2014  05:31:00      -18.903       15.385       -9.107       17.986       10.339        7.555      323.489      106.891       57.072        0.058        0.024       24.372        3.798        0.024      333.006        2.042      856.054
12/16/2014  05:32:00      -49.571      -12.301       -5.639       28.720       14.534        9.150      824.858      211.239       83.730        0.188        0.056       51.074        7.397        0.021      333.047        2.105      856.061
12/16/2014  05:33:00      -76.051      -41.400       -5.843       16.305       17.015       10.668      265.846      289.525      113.799        0.410        0.033       86.589        3.352        0.001      333.043        2.101      856.078
12/16/2014  05:34:00      -91.621      -18.239      -12.692       14.965       14.299        9.854      223.954      204.457       97.102        0.471        0.026       93.419        4.824        0.003      333.116        2.219      856.086
12/16/2014  05:35:00      -57.891      -20.791       -5.586       10.283       14.700        6.924      105.731      216.102       47.945        0.209        0.018       61.511        0.908        0.000      333.149        2.275      856.103
12/16/2014  05:36:00      -38.563       -7.669       -3.612       14.006       12.622        8.603      196.163      159.307       74.013        0.099        0.021       39.318        9.734        0.061      333.115        2.218      856.128
12/16/2014  05:37:00      -35.205       -6.438       -7.349        6.888        5.669        5.575       47.439       32.137       31.081        0.072        0.006       35.788        2.396        0.004      333.167        2.304      856.148
12/16/2014  05:38:00      -60.680        7.341       -4.649        8.514       10.100        7.301       72.497      102.013       53.306        0.199        0.011       61.123        4.827        0.006      333.194        2.348      856.159
12/16/2014  05:39:00      -68.437      -11.196       -8.676       12.109       14.601        9.103      146.626      213.181       82.870        0.266        0.022       69.347        6.104        0.008      333.229        2.404      856.167
12/16/2014  05:40:00      -70.778      -25.589       -0.256       22.338       19.956       11.670      499.005      398.246      136.198        0.335        0.052       75.262        9.558        0.016      333.269        2.473      856.181
12/16/2014  05:41:00      -70.753      -37.302       10.572       49.404       25.654       19.959     2440.726      658.146      398.346        0.500        0.175       79.984       25.272        0.100      333.242        2.427      856.193
12/16/2014  05:42:00      -69.280      -45.005        6.797       57.170       35.015       22.015     3268.429     1226.053      484.662        0.592        0.249       82.614       30.370        0.135      333.241        2.426      856.190
12/16/2014  05:43:00      -82.104      -22.601        5.895       27.932       15.746       12.944      780.170      247.935      167.554        0.424        0.060       85.158       10.303        0.015      333.262        2.461      856.172
12/16/2014  05:44:00      -59.698        5.403       -8.079       16.435       15.963       11.320      270.119      254.821      128.139        0.216        0.033       59.942        7.521        0.016      333.243        2.430      856.138
12/16/2014  05:45:00      -19.896       -2.348       -1.342       15.497       13.287       10.252      240.166      176.534      105.108        0.046        0.026       20.034        6.983        0.121      333.304        2.531      856.109
12/16/2014  05:46:00       -5.941       -4.140        6.771       18.247       10.588        8.886      332.971      112.099       78.955        0.031        0.026        7.241       11.829        2.668      333.320        2.558      856.093
12/16/2014  05:47:00       16.646       21.171        6.144       11.922        8.745        8.595      142.145       76.478       73.870        0.053        0.015       26.932        7.455        0.077      333.377        2.652      856.096
12/16/2014  05:48:00      -19.420       -5.897        3.462       14.413       11.527       13.189      207.745      132.865      173.962        0.047        0.026       20.295       13.116        0.418      333.336        2.584      856.109
12/16/2014  05:49:00      -49.192      -16.271       -4.895       15.813       10.473        6.016      250.037      109.688       36.186        0.155        0.020       51.813        1.842        0.001      333.271        2.476      856.134
12/16/2014  05:50:00      -66.360       -3.609       -7.768       14.092       23.515       10.657      198.584      552.938      113.563        0.267        0.043       66.458       10.232        0.024      333.245        2.432      856.177
12/16/2014  05:51:00      -83.166      -23.078       -3.027       44.635       23.003       15.326     1992.291      529.135      234.891        0.511        0.138       86.309       19.342        0.050      333.164        2.299      856.225
12/16/2014  05:52:00      -41.210      -32.815        9.521       39.035       24.498       18.261     1523.727      600.130      333.469        0.266        0.123       52.679       19.651        0.139      333.184        2.331      856.255
12/16/2014  05:53:00      -66.802      -61.022        2.776       42.258       25.675       22.288     1785.722      659.180      496.738        0.557        0.147       90.478       22.314        0.061      333.221        2.392      856.272
12/16/2014  05:54:00      -78.894      -51.896      -10.463       12.633       15.985       12.446      159.602      255.504      154.898        0.480        0.029       94.432        7.548        0.006      333.275        2.482      856.263
12/16/2014  05:55:00      -75.452      -54.737       -6.378       34.415       14.919       14.281     1184.372      222.563      203.956        0.517        0.081       93.216       16.688        0.032      333.292        2.510      856.246
12/16/2014  05:56:00      -54.915      -36.139        1.622       29.388       17.489       12.929      863.657      305.871      167.170        0.283        0.067       65.739       14.388        0.048      333.306        2.533      856.245
12/16/2014  05:57:00      -36.589      -31.343        4.990       30.403       22.160       15.704      924.352      491.045      246.614        0.200        0.083       48.178       13.084        0.074      333.348        2.604      856.254
12/16/2014  05:58:00      -34.696      -27.576        2.341       36.029       25.617       15.850     1298.115      656.253      251.220        0.209        0.110       44.320       17.536        0.157      333.340        2.590      856.287
12/16/2014  05:59:00      -43.978      -59.445       -0.817       35.521       33.476       22.349     1261.735     1120.643      499.466        0.417        0.144       73.945       22.212        0.090      333.325        2.565      856.319
12/16/2014  06:00:00      -41.850      -35.565       10.336       41.706       36.320       27.933     1739.418     1319.164      780.251        0.348        0.192       54.921       25.780        0.220      333.328        2.569      856.340
12/16/2014  06:01:00      -62.330      -53.311       10.787       49.198       33.528       23.676     2420.394     1124.148      560.541        0.547        0.205       82.019       27.290        0.111      333.317        2.553      856.353
12/16/2014  06:02:00      -90.282      -75.585       -0.065       26.457       27.109       16.577      699.994      734.903      274.798        0.779        0.085      117.745       14.488        0.015      333.332        2.578      856.356
12/16/2014  06:03:00      -82.216      -67.963      -10.552       16.954       10.706       12.544      287.448      114.618      157.361        0.602        0.028      106.670       10.647        0.010      333.263        2.462      856.350
12/16/2014  06:04:00      -56.850      -57.854       -5.582       10.016       20.759       11.969      100.317      430.942      143.256        0.364        0.034       81.111        9.277        0.013      333.293        2.512      856.333
12/16/2014  06:05:00      -51.473      -31.142       -0.523       13.968       22.881       15.367      195.117      523.562      236.148        0.229        0.048       60.161       14.311        0.057      333.323        2.564      856.310
12/16/2014  06:06:00      -20.110        3.786       12.033       16.463        9.646       11.913      271.022       93.037      141.912        0.053        0.025       20.464       11.886        0.337      333.364        2.630      856.303
12/16/2014  06:07:00      -32.732      -18.585        0.620       13.559       18.387       12.299      183.833      338.064      151.253        0.105        0.034       37.641        8.504        0.051      333.373        2.646      856.304
12/16/2014  06:08:00      -28.523      -22.790       -2.531       25.582       19.686       10.159      654.431      387.546      103.200        0.124        0.057       36.510        5.962        0.027      333.380        2.657      856.311
12/16/2014  06:09:00      -65.890      -27.607       -1.233       28.057       14.695       11.104      787.175      215.950      123.305        0.312        0.056       71.440        4.954        0.005      333.371        2.641      856.334
12/16/2014  06:10:00      -96.780      -56.191        2.193       21.293       17.261       12.784      453.382      297.953      163.442        0.672        0.046      111.910        7.893        0.005      333.310        2.542      856.353
12/16/2014  06:11:00      -76.012      -36.656       -0.347       32.293       26.985       15.764     1042.870      728.174      248.499        0.457        0.101       84.389       17.860        0.045      333.306        2.534      856.372
12/16/2014  06:12:00      -55.510       -8.667       -0.768       25.733       22.935       14.140      662.162      526.034      199.947        0.227        0.069       56.183       10.736        0.037      333.347        2.601      856.386
12/16/2014  06:13:00      -25.048       10.505        9.482       23.323       19.050       12.735      543.964      362.917      162.190        0.095        0.053       27.161       12.809        0.222      333.376        2.649      856.390
12/16/2014  06:14:00       26.148       24.471        8.029       25.103       15.101       13.386      630.142      228.044      179.174        0.119        0.052       35.812        8.638        0.058      333.397        2.684      856.389
12/16/2014  06:15:00       18.347       29.505       32.581       18.282       25.333       13.844      334.239      641.742      191.649        0.172        0.058       34.744        5.615        0.026      333.416        2.716      856.393
12/16/2014  06:16:00       11.957       12.838        8.628       16.151       17.612        8.522      260.846      310.198       72.624        0.051        0.032       17.544        7.284        0.172      333.416        2.713      856.415
12/16/2014  06:17:00      -41.402      -23.073       -7.489       22.189       11.686       11.277      492.358      136.559      127.180        0.153        0.038       47.397        5.278        0.012      333.429        2.736      856.459
12/16/2014  06:18:00      -82.054      -49.620       -0.035       30.389       27.744       22.916      923.505      769.744      525.135        0.571        0.111       95.891       16.915        0.031      333.392        2.677      856.510
12/16/2014  06:19:00      -65.118      -62.416        6.676       50.135       40.494       23.664     2513.547     1639.755      559.976        0.645        0.236       90.200       23.522        0.068      333.480        2.821      856.552
12/16/2014  06:20:00      -98.121      -72.777       -1.336       30.553       28.521       19.425      933.515      813.450      377.316        0.852        0.106      122.165       17.895        0.021      333.504        2.862      856.559
12/16/2014  06:21:00      -60.163      -13.617        3.684       36.757       18.149       17.516     1351.100      329.394      306.815        0.290        0.099       61.685       16.575        0.072      333.471        2.807      856.544
12/16/2014  06:22:00      -54.253      -15.141       -0.430       26.064       20.482       13.997      679.351      419.503      195.909        0.223        0.065       56.326       13.808        0.060      333.467        2.800      856.532
12/16/2014  06:23:00      -91.698      -26.203       -9.300       30.918       35.769       19.836      955.900     1279.419      393.452        0.590        0.131       95.368       16.928        0.032      333.369        2.637      856.544
12/16/2014  06:24:00      -99.121      -15.858       -8.103       40.559       24.487       18.513     1645.032      599.595      342.732        0.636        0.129      100.382       13.831        0.019      333.306        2.534      856.586
12/16/2014  06:25:00      -68.243      -58.182       -6.516       44.515       27.063       22.980     1981.567      732.431      528.061        0.566        0.162       89.679        8.545        0.009      333.248        2.437      856.631
12/16/2014  06:26:00      -80.215      -51.330       -6.722       26.008       30.678       17.443      676.435      941.126      304.275        0.552        0.096       95.233        8.470        0.008      333.285        2.499      856.652
12/16/2014  06:27:00      -59.816      -44.577        4.155       37.699       27.029       16.083     1421.208      730.550      258.665        0.400        0.121       74.599       15.476        0.043      333.344        2.598      856.638
12/16/2014  06:28:00      -56.044      -57.223        4.499       31.458       26.685       20.302      989.604      712.083      412.168        0.427        0.106       80.096       20.485        0.065      333.297        2.518      856.620
12/16/2014  06:29:00      -59.191      -41.318       -0.238       29.185       30.002       17.682      851.755      900.126      312.638        0.364        0.103       72.185       17.793        0.061      333.338        2.588      856.614
12/16/2014  06:30:00      -80.987      -45.342        1.615       35.126       28.815       17.838     1233.851      830.295      318.182        0.550        0.119       92.816       13.730        0.022      333.334        2.583      856.620
12/16/2014  06:31:00      -99.249      -36.554       -2.825       66.736       26.441       20.214     4453.731      699.146      408.625        0.838        0.278      105.767       23.202        0.048      333.241        2.428      856.638
12/16/2014  06:32:00     -112.190      -37.207        0.142       36.112       29.426       16.698     1304.079      865.912      278.830        0.821        0.122      118.199        9.709        0.007      333.257        2.452      856.653
12/16/2014  06:33:00      -85.653      -71.344       -4.929       34.263       28.271       20.314     1173.920      799.236      412.651        0.742        0.119      111.474       17.634        0.025      333.327        2.568      856.651
12/16/2014  06:34:00     -106.531      -31.315       -4.183       31.082       39.210       16.325      966.065     1537.458      266.495        0.756        0.139      111.038       13.100        0.014      333.341        2.591      856.653
12/16/2014  06:35:00      -88.156      -65.914       -6.195       35.510       27.487       22.952     1260.970      755.528      526.779        0.735        0.127      110.074       11.616        0.011      333.330        2.575      856.663
12/16/2014  06:36:00     -104.910      -47.794       -5.351       35.351       36.806       26.183     1249.713     1354.686      685.526        0.830        0.164      115.284       23.591        0.042      333.349        2.607      856.695
12/16/2014  06:37:00      -88.664      -21.785       -2.819       39.123       25.704       24.073     1530.632      660.711      579.518        0.556        0.139       91.301       22.697        0.062      333.345        2.600      856.706
12/16/2014  06:38:00     -118.389      -22.786       -4.148       67.105       38.710       25.607     4503.041     1498.435      655.708        1.060        0.333      120.562       24.773        0.042      333.294        2.514      856.694
12/16/2014  06:39:00      -75.643        7.566        0.996       37.027       33.891       20.192     1370.982     1148.606      407.700        0.435        0.146       76.020       15.021        0.039      333.368        2.637      856.681
12/16/2014  06:40:00      -94.037      -26.347      -10.451       29.010       40.740       17.920      841.560     1659.758      321.139        0.623        0.141       97.658       16.159        0.027      333.337        2.585      856.679
12/16/2014  06:41:00      -54.723      -47.745        2.185       43.843       36.745       18.607     1922.202     1350.231      346.215        0.445        0.181       72.624       15.634        0.046      333.368        2.637      856.699
12/16/2014  06:42:00     -117.755      -46.709        2.605       40.858       26.646       18.818     1669.367      709.988      354.100        0.939        0.137      126.680       20.962        0.027      333.275        2.482      856.717
12/16/2014  06:43:00      -66.588      -35.985        3.731       41.828       29.890       18.513     1749.611      893.410      342.746        0.436        0.149       75.690       20.678        0.075      333.273        2.479      856.719
12/16/2014  06:44:00      -68.094        2.840       -3.950       28.229       22.476       15.868      796.900      505.172      251.799        0.311        0.078       68.154       12.182        0.032      333.341        2.591      856.703
12/16/2014  06:45:00      -77.255       34.531        0.267       30.210       23.250       22.765      912.643      540.580      518.233        0.457        0.099       84.621       18.163        0.046      333.494        2.846      856.675
12/16/2014  06:46:00     -107.994       35.506       -6.823       32.194       25.191       20.376     1036.450      634.579      415.181        0.753        0.104      113.681       18.448        0.026      333.480        2.822      856.654
12/16/2014  06:47:00      -93.152       13.764       -6.269       12.259        9.624        8.561      150.292       92.626       73.299        0.461        0.016       94.163        4.440        0.002      333.251        2.440      856.642
12/16/2014  06:48:00      -36.478       15.421       -5.754       39.368       15.828       11.476     1549.821      250.522      131.706        0.177        0.097       39.604       16.472        0.173      333.437        2.751      856.631
12/16/2014  06:49:00       32.481       32.316       16.562       20.158       16.045       12.379      406.363      257.436      153.232        0.160        0.041       45.819        8.861        0.037      333.405        2.698      856.609
12/16/2014  06:50:00       33.907       45.312        5.042       18.296       16.760       14.956      334.747      280.912      223.670        0.203        0.042       56.594       10.449        0.034      333.337        2.589      856.600
12/16/2014  06:51:00       77.052       40.271        4.766       31.015       17.096       15.223      961.910      292.277      231.736        0.453        0.074       86.941       10.198        0.014      333.333        2.579      856.596
12/16/2014  06:52:00       89.193       57.506        2.748       19.729       19.056       18.069      389.234      363.136      326.491        0.617        0.054      106.124       10.211        0.009      333.308        2.538      856.594
12/16/2014  06:53:00       69.479       39.075       -4.915       30.662       20.800       20.006      940.160      432.653      400.231        0.408        0.089       79.713       13.727        0.030      333.245        2.433      856.592
12/16/2014  06:54:00       92.119       36.300        6.538       27.093       20.449       18.242      734.042      418.143      332.774        0.567        0.074       99.013       11.931        0.015      333.258        2.455      856.585
12/16/2014  06:55:00       83.903       32.538       16.017       24.648       17.980       20.520      607.500      323.266      421.082        0.485        0.068       89.991        5.692        0.004      333.270        2.475      856.596
12/16/2014  06:56:00       40.661       28.637       16.542       30.936       14.793       23.201      957.024      218.828      538.290        0.223        0.086       49.733       18.038        0.132      333.289        2.506      856.604
12/16/2014  06:57:00       11.015       -6.630       21.915       23.793       35.138       24.501      566.102     1234.696      600.301        0.152        0.120       12.856       11.669        0.824      333.313        2.544      856.631
12/16/2014  06:58:00       25.413       22.350       32.574       22.250       17.376       17.917      495.059      301.924      321.003        0.166        0.056       33.843       13.572        0.161      333.325        2.565      856.656
12/16/2014  06:59:00       10.668       41.187       14.669        8.646       11.451       12.681       74.748      131.130      160.814        0.120        0.018       42.546        8.383        0.039      333.344        2.598      856.696
12/16/2014  07:00:00      -12.587       26.606        1.875        9.613       13.264        4.992       92.401      175.945       24.919        0.058        0.015       29.433        3.987        0.018      333.375        2.650      856.743
12/16/2014  07:01:00      -22.100        5.220        2.596       18.449       12.487       13.748      340.358      155.921      189.000        0.060        0.034       22.708        8.791        0.150      333.490        2.836      856.771
12/16/2014  07:02:00      -20.198       -1.640        2.878        8.611        9.368        8.318       74.154       87.756       69.192        0.032        0.012       20.265        6.739        0.111      333.486        2.831      856.766
12/16/2014  07:03:00      -23.194        6.927        3.204       12.545        6.499        7.338      157.389       42.238       53.840        0.042        0.013       24.207        7.351        0.092      333.473        2.809      856.747
12/16/2014  07:04:00       -7.194        3.118        6.901        7.404        3.516        4.023       54.822       12.359       16.183        0.010        0.004        7.841        3.454        0.194      333.493        2.844      856.741
12/16/2014  07:05:00       -5.657      -19.086        3.586        9.912       14.911       11.040       98.257      222.332      121.889        0.043        0.022       19.907        6.712        0.114      333.544        2.928      856.759
12/16/2014  07:06:00        6.166       -3.506       13.574       16.544       27.990       18.457      273.706      783.424      340.653        0.082        0.070        7.093       15.571        4.819      333.505        2.865      856.779
12/16/2014  07:07:00      -11.383       27.504       63.009       16.492       36.749       23.095      272.001     1350.467      533.375        0.351        0.108       29.766       23.601        0.629      333.519        2.887      856.776
12/16/2014  07:08:00       -1.447        8.698       53.076       23.157       35.055       23.162      536.230     1228.839      536.459        0.260        0.115        8.818       22.854        6.718      333.624        3.060      856.778
12/16/2014  07:09:00        1.240       -1.811       14.089       15.698       21.584       25.446      246.412      465.862      647.517        0.078        0.068        2.194       18.065       67.779      333.594        3.011      856.794
12/16/2014  07:10:00      -40.328       -3.437        1.732       20.838       13.922       10.387      434.208      193.817      107.885        0.119        0.037       40.474        8.132        0.040      333.578        2.986      856.825
12/16/2014  07:11:00      -19.425        3.087       -2.279       17.642       19.642        9.611      311.250      385.811       92.377        0.059        0.039       19.669        9.687        0.243      333.534        2.912      856.858
12/16/2014  07:12:00      -34.406       34.511       -1.282       15.325       20.388       14.666      234.844      415.682      215.105        0.162        0.043       48.732       11.132        0.052      333.649        3.103      856.863
12/16/2014  07:13:00      -50.097        6.768       -2.914       14.557       12.289       12.385      211.917      151.016      153.379        0.154        0.026       50.552       10.008        0.039      333.518        2.886      856.873
12/16/2014  07:14:00       12.431       25.932        8.361       17.141       20.715        9.953      293.821      429.124       99.070        0.086        0.041       28.757       10.540        0.134      333.496        2.848      856.874
12/16/2014  07:15:00       22.774       46.841       -8.619       15.186       14.711       10.993      230.612      216.426      120.845        0.168        0.028       52.084        8.959        0.030      333.488        2.834      856.865
12/16/2014  07:16:00       29.065       63.634      -11.960       15.946       23.199       12.662      254.288      538.182      160.336        0.299        0.048       69.958        8.763        0.016      333.465        2.795      856.862
12/16/2014  07:17:00       18.550       31.353       -5.947       22.455       22.269       16.299      504.234      495.893      265.646        0.131        0.063       36.430       15.092        0.172      333.467        2.798      856.879
12/16/2014  07:18:00        6.304       30.161      -14.711       17.935       26.764       15.011      321.656      716.317      225.339        0.121        0.063       30.813       13.566        0.194      333.413        2.708      856.905
12/16/2014  07:19:00       26.903       15.179        3.917       30.001       21.217       10.278      900.061      450.145      105.644        0.121        0.073       30.890        9.100        0.087      333.405        2.696      856.925
12/16/2014  07:20:00       78.149       38.446        9.189       20.194       18.520       17.054      407.781      342.996      290.854        0.436        0.052       87.094       11.153        0.016      333.368        2.638      856.927
12/16/2014  07:21:00       80.918       67.453       10.846       35.770       29.302       24.739     1279.526      858.628      612.013        0.698        0.138      105.345       19.243        0.033      333.313        2.546      856.907
12/16/2014  07:22:00       86.470       59.291        4.017       41.806       32.522       24.340     1747.761     1057.669      592.458        0.720        0.170      104.846       10.719        0.010      333.243        2.428      856.881
12/16/2014  07:23:00       40.121       49.398       -0.671       42.310       30.757       20.743     1790.142      945.985      430.283        0.361        0.158       63.638       12.623        0.039      333.239        2.424      856.872
12/16/2014  07:24:00       38.140       66.336       -0.908       33.531       36.581       25.117     1124.333     1338.173      630.882        0.447        0.155       76.519       20.484        0.072      333.242        2.427      856.862
12/16/2014  07:25:00       68.609       59.540        3.345       43.482       32.475       22.271     1890.691     1054.657      496.011        0.585        0.172       90.842       20.971        0.053      333.235        2.416      856.852
12/16/2014  07:26:00       66.256       27.667       13.555       34.862       19.735       17.833     1215.326      389.478      318.013        0.363        0.096       71.800       14.885        0.043      333.236        2.417      856.853
12/16/2014  07:27:00       30.169       16.061        8.911       27.306       22.965       17.429      745.595      527.396      303.785        0.141        0.079       34.178       17.288        0.256      333.250        2.439      856.853
12/16/2014  07:28:00       73.066       50.165        3.484       31.354       21.050       19.494      983.057      443.120      380.019        0.484        0.090       88.629       13.777        0.024      333.206        2.368      856.851
12/16/2014  07:29:00       24.899       32.744       -0.672       31.752       31.134       21.670     1008.159      969.346      469.588        0.207        0.122       41.136       21.676        0.278      333.197        2.353      856.837
12/16/2014  07:30:00       46.453       72.323       -1.838       25.807       39.812       22.135      665.998     1585.014      489.939        0.507        0.137       85.957       19.601        0.052      333.151        2.278      856.816
12/16/2014  07:31:00       49.380       61.314       -5.290       31.806       32.161       22.418     1011.631     1034.320      502.568        0.439        0.127       78.726       14.020        0.032      333.106        2.206      856.790
12/16/2014  07:32:00       40.723       51.229      -10.686       29.592       22.316       20.124      875.689      498.002      404.989        0.309        0.089       65.443       17.607        0.072      333.105        2.202      856.783
12/16/2014  07:33:00       22.072       20.749       -3.626       24.672       17.881       14.649      608.700      319.713      214.584        0.104        0.057       30.293       11.545        0.145      333.120        2.227      856.809
12/16/2014  07:34:00       28.572       24.377        1.139       16.497       14.316       14.788      272.142      204.945      218.689        0.105        0.035       37.558       12.886        0.118      333.139        2.256      856.835
12/16/2014  07:35:00       20.939       25.355       -2.423       18.110        9.662        8.822      327.983       93.360       77.834        0.079        0.025       32.883        8.885        0.073      333.146        2.268      856.837
12/16/2014  07:36:00        2.770       17.724       -1.478        7.859        9.918        7.551       61.767       98.374       57.017        0.027        0.011       17.939        6.703        0.140      333.162        2.295      856.818
12/16/2014  07:37:00       -3.412       -4.817       -2.086        3.336        5.992        2.632       11.131       35.900        6.926        0.005        0.003        5.903        1.651        0.078      333.179        2.320      856.791
12/16/2014  07:38:00       -8.092      -17.000        6.373        7.556        6.733        4.790       57.093       45.332       22.945        0.026        0.006       18.827        3.284        0.030      333.238        2.420      856.790
12/16/2014  07:39:00       12.312      -10.306       -0.868       10.974        9.349       12.779      120.421       87.408      163.291        0.031        0.019       16.057        7.277        0.205      333.279        2.490      856.798
12/16/2014  07:40:00       -1.923        7.474       14.218       14.896        8.664       12.602      221.885       75.069      158.809        0.036        0.023        7.718        8.313        1.160      333.309        2.539      856.812
12/16/2014  07:41:00        1.496        6.115       36.172       18.233       27.669       21.389      332.456      765.562      457.493        0.145        0.078        6.295       16.503        6.872      333.305        2.533      856.826
12/16/2014  07:42:00       21.868       13.586       37.307       26.373       28.054       28.852      695.517      787.048      832.449        0.218        0.116       25.745        6.112        0.056      333.260        2.458      856.835
12/16/2014  07:43:00       15.233       17.807       47.978       29.427       57.267       35.501      865.957     3279.463     1260.347        0.413        0.270       23.434       33.561        2.051      333.264        2.464      856.828
12/16/2014  07:44:00        8.443       -6.833       23.360       35.714       47.155       31.624     1275.465     2223.562     1000.049        0.258        0.225       10.861       22.760        4.391      333.306        2.534      856.808
12/16/2014  07:45:00       30.245      -82.358        7.508       20.915       25.133       17.870      437.446      631.664      319.337        0.457        0.069       87.736       12.568        0.021      333.292        2.512      856.803
12/16/2014  07:46:00       11.783      -33.945       -2.851       19.423       34.001       19.326      377.270     1156.037      373.497        0.160        0.095       35.932       15.004        0.174      333.401        2.691      856.821
12/16/2014  07:47:00       50.202      -80.089       -7.390       31.551       32.529       19.933      995.455     1058.122      397.325        0.572        0.123       94.523       14.771        0.024      333.400        2.691      856.850
12/16/2014  07:48:00       36.647      -12.569       14.518       31.685       43.581       30.384     1003.945     1899.315      923.196        0.277        0.191       38.742       22.532        0.338      333.404        2.695      856.844
12/16/2014  07:49:00       16.025       22.129       67.894       31.678       39.281       16.858     1003.485     1543.028      284.195        0.409        0.142       27.322       12.331        0.204      333.581        2.989      856.809
12/16/2014  07:50:00        5.717       47.384       79.380       28.163       41.185       28.565      793.177     1696.183      815.966        0.594        0.165       47.728       11.533        0.058      333.623        3.059      856.785
12/16/2014  07:51:00       43.417       59.585       70.736       49.157       39.436       29.866     2416.433     1555.204      892.003        0.765        0.243       73.725       20.780        0.079      333.469        2.805      856.775
12/16/2014  07:52:00       53.045       88.775       76.089       52.910       34.018       36.069     2799.439     1157.224     1301.002        1.087        0.263      103.416       30.184        0.085      333.360        2.623      856.773
12/16/2014  07:53:00       53.017       62.361       63.231       44.285       33.525       34.159     1961.201     1123.897     1166.830        0.747        0.213       81.852       23.608        0.083      333.396        2.683      856.766
12/16/2014  07:54:00       82.210       38.659       30.416       38.997       33.984       33.071     1520.777     1154.899     1093.672        0.647        0.188       90.846       23.750        0.068      333.367        2.634      856.754
12/16/2014  07:55:00       99.123       54.089       18.430       41.050       27.110       31.610     1685.135      734.967      999.162        0.825        0.171      112.920       23.912        0.045      333.367        2.636      856.748
12/16/2014  07:56:00      113.269       73.997        8.450       33.716       29.520       27.228     1136.776      871.403      741.388        1.056        0.137      135.298       17.721        0.017      333.306        2.536      856.769
12/16/2014  07:57:00      110.028       69.938        8.478       52.545       46.002       35.051     2761.001     2116.221     1228.554        1.159        0.305      130.374       25.003        0.037      333.294        2.516      856.825
12/16/2014  07:58:00      125.890       75.350        9.202       38.397       27.994       29.910     1474.355      783.652      894.631        1.238        0.158      146.717       20.972        0.020      333.233        2.413      856.868
12/16/2014  07:59:00       89.902       57.621        2.437       36.229       30.626       24.036     1312.562      937.974      577.722        0.712        0.141      106.783       10.498        0.010      333.347        2.601      856.882
12/16/2014  08:00:00      125.565       65.487        6.931       39.614       34.709       26.683     1569.280     1204.715      712.005        1.179        0.174      141.616       19.453        0.019      333.292        2.511      856.886
12/16/2014  08:01:00       94.495       58.988       14.833       36.736       34.936       34.688     1349.560     1220.495     1203.240        0.820        0.189      111.395       22.745        0.042      333.337        2.586      856.869
12/16/2014  08:02:00      113.736       83.687        6.640       39.618       39.398       31.326     1569.601     1552.199      981.333        1.204        0.205      141.207       10.356        0.005      333.279        2.489      856.829
12/16/2014  08:03:00       30.640       27.243        5.459       44.540       29.791       16.563     1983.833      887.522      274.348        0.243        0.157       41.000       16.280        0.158      333.499        2.854      856.834
12/16/2014  08:04:00       35.944       48.421       -0.159       30.462       31.218       25.935      927.914      974.552      672.616        0.311        0.129       60.304       18.492        0.094      333.461        2.791      856.852
12/16/2014  08:05:00       25.936       33.071        4.685       24.432       19.777       19.507      596.922      391.117      380.511        0.158        0.068       42.028       12.217        0.084      333.548        2.935      856.874
12/16/2014  08:06:00       -2.659       32.504      -15.770       15.466       22.728       10.531      239.206      516.542      110.908        0.109        0.043       32.613        8.752        0.072      333.419        2.720      856.877
12/16/2014  08:07:00        9.832       25.740        1.152       12.358       14.965       15.180      152.713      223.943      230.435        0.068        0.030       27.554       10.736        0.152      333.606        3.031      856.882
12/16/2014  08:08:00        0.819       41.250       -5.422       12.080       19.972       14.841      145.919      398.897      220.260        0.125        0.038       41.259        8.408        0.042      333.413        2.710      856.871
12/16/2014  08:09:00       27.071       57.915       -2.643       19.247       27.219       24.876      370.434      740.853      618.791        0.291        0.087       63.929       21.911        0.117      333.537        2.917      856.846
12/16/2014  08:10:00        9.095       26.963        1.907       39.662       22.083       17.246     1573.064      487.656      297.416        0.159        0.118       28.456       22.869        0.646      333.444        2.762      856.808
12/16/2014  08:11:00      -40.921       20.849       -2.492       30.585       25.124       17.564      935.454      631.216      308.484        0.199        0.094       45.927       14.653        0.102      333.574        2.978      856.787
12/16/2014  08:12:00      -57.638      -13.427       -7.938       14.561       24.253       13.503      212.031      588.230      182.335        0.227        0.049       59.181       10.885        0.034      333.551        2.940      856.794
12/16/2014  08:13:00      -43.285      -16.779       -2.312       17.088       15.836        9.430      292.000      250.794       88.934        0.140        0.032       46.424        4.172        0.008      333.588        3.001      856.796
12/16/2014  08:14:00      -48.710      -27.260        0.086       18.068       20.458       12.822      326.444      418.530      164.408        0.201        0.045       55.819        9.417        0.028      333.573        2.976      856.789
12/16/2014  08:15:00      -29.582      -38.197       -0.050       20.190       12.471       11.007      407.649      155.534      121.162        0.151        0.034       48.312        6.816        0.020      333.600        3.019      856.763
12/16/2014  08:16:00      -14.707      -12.827       -2.785       10.964       11.412        6.293      120.213      130.244       39.602        0.034        0.015       19.514        5.773        0.088      333.741        3.254      856.748
12/16/2014  08:17:00      -34.466       -3.385       -6.386       12.856       13.508        9.071      165.278      182.471       82.280        0.084        0.022       34.632        7.747        0.050      333.741        3.254      856.758
12/16/2014  08:18:00      -25.898       -8.924       -2.114       16.183       14.782        8.353      261.898      218.505       69.773        0.065        0.028       27.392        5.722        0.044      333.801        3.355      856.769
12/16/2014  08:19:00      -48.253      -34.492        1.645       21.948       22.085       12.353      481.703      487.750      152.587        0.232        0.056       59.313        8.564        0.021      333.784        3.325      856.764
12/16/2014  08:20:00      -74.268      -24.611       -0.602       29.067       20.048       13.725      844.870      401.904      188.380        0.378        0.072       78.240       14.915        0.036      333.767        3.299      856.755
12/16/2014  08:21:00     -106.129      -38.726      -10.518       13.924       17.594       11.537      193.871      309.548      133.106        0.675        0.032      112.974        8.763        0.006      333.819        3.385      856.761
12/16/2014  08:22:00      -61.610      -38.500        4.504       34.858       36.893       23.512     1215.073     1361.086      552.834        0.421        0.156       72.649       22.107        0.093      333.830        3.402      856.786
12/16/2014  08:23:00     -127.836      -43.413       -5.669       52.250       39.300       22.378     2730.043     1544.494      500.760        1.152        0.239      135.007       16.476        0.015      333.786        3.329      856.814
12/16/2014  08:24:00     -132.834      -17.877       -3.519       37.928       40.153       22.921     1438.540     1612.274      525.392        1.078        0.179      134.031       16.368        0.015      333.840        3.418      856.814
12/16/2014  08:25:00      -90.891      -52.057        1.347       37.406       29.115       16.396     1399.208      847.687      268.828        0.674        0.126      104.743       14.363        0.019      333.821        3.387      856.804
12/16/2014  08:26:00      -28.962      -32.385        3.957       16.553       14.974        9.715      274.005      224.235       94.386        0.125        0.030       43.446        2.264        0.003      333.906        3.529      856.799
12/16/2014  08:27:00       -5.958       -5.780       17.075        7.368       14.692       10.447       54.289      215.850      109.140        0.037        0.019        8.301       11.055        1.774      334.458        4.444      856.800
12/16/2014  08:28:00       12.278        9.329       14.605       23.155        8.717       15.340      536.170       75.980      235.330        0.065        0.042       15.420       12.375        0.644      334.405        4.357      856.824
12/16/2014  08:29:00       21.102       30.046        4.115       19.540       22.540       15.351      381.824      508.032      235.653        0.125        0.056       36.715       13.301        0.131      334.271        4.135      856.878
12/16/2014  08:30:00       -0.160       28.113        9.908       20.436       29.040       17.236      417.629      843.317      297.065        0.122        0.078       28.114       14.567        0.268      334.399        4.346      856.915
12/16/2014  08:31:00      -20.858       29.821       -0.153       26.011       26.305       21.401      676.561      691.928      457.988        0.158        0.091       36.392       10.610        0.085      334.423        4.386      856.941
12/16/2014  08:32:00      -14.454       29.334        5.529       19.017       25.874       14.457      361.639      669.475      209.009        0.117        0.062       32.702        9.967        0.093      334.467        4.460      856.940
12/16/2014  08:33:00       -6.567       28.459       -8.953       15.160       22.816       14.304      229.811      520.560      204.605        0.094        0.048       29.207       13.675        0.219      334.210        4.032      856.942
12/16/2014  08:34:00       22.169       15.595       25.273       15.527       14.249       13.855      241.094      203.041      191.966        0.100        0.032       27.105        7.343        0.073      334.478        4.478      856.931
12/16/2014  08:35:00       48.119       34.451        6.184       18.597       16.047       16.974      345.849      257.515      288.133        0.222        0.045       59.180        9.741        0.027      334.158        3.948      856.923
12/16/2014  08:36:00       25.484       36.745        8.651       19.041       14.466       24.521      362.571      209.266      601.293        0.162        0.059       44.717       18.750        0.176      334.175        3.974      856.920
12/16/2014  08:37:00       32.946       53.648       67.897       36.659       37.076       31.740     1343.902     1374.617     1007.437        0.615        0.186       62.957       30.121        0.229      334.374        4.305      856.914
12/16/2014  08:38:00       77.382       48.600       46.973       39.878       31.433       37.710     1590.293      988.028     1422.054        0.728        0.200       91.378       24.642        0.073      334.213        4.037      856.913
12/16/2014  08:39:00       64.035      -79.972       -1.664       45.821       52.855       28.792     2099.537     2793.657      828.959        0.811        0.286      102.450       38.244        0.139      334.292        4.170      856.924
12/16/2014  08:40:00       42.522      -32.726       13.411       32.958       55.867       32.062     1086.234     3121.176     1027.969        0.415        0.262       53.657       40.031        0.557      334.290        4.165      856.949
12/16/2014  08:41:00       36.095       46.383       39.812       14.569       23.003       36.191      212.247      529.121     1309.795        0.354        0.103       58.773       18.326        0.097      334.252        4.102      856.983
12/16/2014  08:42:00       20.629       21.613        7.403       20.978       11.755       15.170      440.072      138.181      230.143        0.088        0.040       29.878        7.382        0.061      334.338        4.245      857.000
12/16/2014  08:43:00       26.803      -40.870       20.495       44.270       31.687       31.914     1959.856     1004.077     1018.509        0.339        0.199       48.875       33.493        0.470      334.572        4.634      857.019
12/16/2014  08:44:00       14.027      -19.570       25.242       31.127       65.701       37.954      968.921     4316.680     1440.535        0.397        0.336       24.078       39.898        2.746      334.537        4.576      857.025
12/16/2014  08:45:00       41.196      -10.632       14.296       28.910       32.996       31.571      835.793     1088.726      996.754        0.247        0.146       42.546       22.246        0.273      334.359        4.280      857.042
12/16/2014  08:46:00        4.609       12.607       39.140       16.186       21.155       19.457      261.990      447.542      378.556        0.140        0.054       13.423       12.415        0.855      334.721        4.882      857.059
12/16/2014  08:47:00       30.872       36.002       43.859       39.292       39.913       34.171     1543.848     1593.010     1167.629        0.424        0.215       47.426       31.546        0.442      334.479        4.479      857.063
12/16/2014  08:48:00       -6.440      -16.097       29.503       17.005       32.892       19.765      289.171     1081.906      390.665        0.147        0.088       17.337       16.802        0.939      334.779        4.976      857.077
12/16/2014  08:49:00       13.213      -74.293       -1.346       30.296       32.552       25.129      917.868     1059.645      631.475        0.415        0.130       75.459       21.249        0.079      334.519        4.546      857.110
12/16/2014  08:50:00      -12.002      -17.816       25.742       18.497       30.846       26.754      342.154      951.458      715.770        0.157        0.100       21.481       25.288        1.386      334.865        5.120      857.114
12/16/2014  08:51:00       19.592       40.568       59.344       26.401       45.411       17.780      696.994     2062.127      316.113        0.431        0.154       45.051       20.077        0.199      334.858        5.107      857.097
12/16/2014  08:52:00       26.325       90.504       94.901       44.880       33.094       21.403     2014.197     1095.191      458.095        1.073        0.178       94.255       21.086        0.050      334.478        4.477      857.095
12/16/2014  08:53:00       38.600       73.333       70.481       51.464       36.847       43.351     2648.573     1357.677     1879.290        0.886        0.294       82.871       42.140        0.259      334.477        4.476      857.115
12/16/2014  08:54:00       48.911       32.372       37.377       43.058       32.907       37.553     1854.010     1082.893     1410.207        0.459        0.217       58.653       35.716        0.371      334.437        4.411      857.155
12/16/2014  08:55:00       29.968       38.515       33.146       23.173       20.436       23.426      536.978      417.646      548.789        0.249        0.075       48.800       18.426        0.143      334.507        4.526      857.176
12/16/2014  08:56:00       35.386       22.512        9.583       12.940       18.940       19.780      167.431      358.709      391.259        0.138        0.046       41.940        9.768        0.054      334.347        4.262      857.197
12/16/2014  08:57:00       -3.975       -9.756       10.454       19.462       12.168       12.502      378.780      148.052      156.289        0.045        0.034       10.535        9.620        0.834      334.448        4.428      857.208
12/16/2014  08:58:00      -36.705      -20.162       -7.740        9.203       11.697        8.986       84.696      136.813       80.744        0.106        0.015       41.878        4.675        0.012      334.277        4.143      857.232
12/16/2014  08:59:00      -29.273      -14.256       -3.278       27.685       12.239       12.814      766.456      149.786      164.203        0.108        0.054       32.559       11.894        0.133      334.346        4.258      857.252
12/16/2014  09:00:00      -70.265       31.929        0.178       29.525       20.569       21.819      871.739      423.069      476.083        0.386        0.089       77.179        9.249        0.014      334.359        4.280      857.251
12/16/2014  09:01:00       28.522       32.654       28.273       23.959       17.985       19.857      574.051      323.469      394.283        0.199        0.065       43.357       14.637        0.114      334.836        5.072      857.233
12/16/2014  09:02:00       43.177       49.691       47.824       26.275       25.517       15.732      690.357      651.120      247.510        0.410        0.079       65.829       10.503        0.025      334.580        4.647      857.221
12/16/2014  09:03:00        6.384       35.836       40.614       26.367       31.052       22.594      695.236      964.256      510.483        0.257        0.108       36.400       12.027        0.109      334.871        5.130      857.205
12/16/2014  09:04:00       84.502       53.467       12.274       50.518       24.439       29.853     2552.105      597.282      891.218        0.709        0.202       99.996       22.863        0.052      334.588        4.660      857.169
12/16/2014  09:05:00       74.489       41.141        2.225       27.182       33.059       21.056      738.862     1092.883      443.368        0.476        0.114       85.095       13.030        0.023      334.426        4.391      857.146
12/16/2014  09:06:00       31.322       35.250       18.356       26.391       24.065       22.344      696.502      579.122      499.271        0.217        0.089       47.155       11.815        0.063      334.757        4.939      857.134
12/16/2014  09:07:00       27.695       19.190       10.137       24.979       24.878       24.254      623.941      618.938      588.252        0.153        0.092       33.694       13.067        0.150      334.699        4.844      857.153
12/16/2014  09:08:00      -56.192       56.938      -19.404       45.018       37.151       21.802     2026.615     1380.207      475.329        0.533        0.194       79.997       21.538        0.072      334.641        4.747      857.200
12/16/2014  09:09:00      -72.445        4.046       -8.779       24.024       24.845       15.095      577.174      617.272      227.861        0.338        0.071       72.558       10.213        0.020      334.823        5.048      857.249
12/16/2014  09:10:00     -134.040       22.717      -13.892       34.268       33.251       21.398     1174.314     1105.618      457.889        1.071        0.137      135.951        8.568        0.004      334.671        4.797      857.257
12/16/2014  09:11:00      -92.185       -9.866      -17.676       31.413       37.458       19.756      986.767     1403.099      390.296        0.584        0.139       92.711       17.372        0.035      334.608        4.693      857.236
12/16/2014  09:12:00      -39.547      -37.537        0.772       41.156       28.117       16.371     1693.812      790.587      268.005        0.286        0.138       54.526       16.675        0.094      334.464        4.454      857.226
12/16/2014  09:13:00      -45.134       -7.307       -3.273       34.268       33.028       24.976     1174.317     1090.855      623.817        0.249        0.144       45.722       24.642        0.290      334.486        4.491      857.232
12/16/2014  09:14:00      -40.033        6.725      -13.648       27.206       33.819       21.787      740.170     1143.695      474.654        0.210        0.118       40.594       25.936        0.408      334.509        4.528      857.234
12/16/2014  09:15:00        5.061      -30.152       -3.494       38.557       26.898       21.959     1486.666      723.492      482.189        0.182        0.135       30.574       21.687        0.503      334.600        4.679      857.234
12/16/2014  09:16:00       22.002       83.425       -6.963       32.509       55.764       22.185     1056.805     3109.636      492.161        0.607        0.233       86.277       23.915        0.077      334.751        4.931      857.240
12/16/2014  09:17:00        3.649       67.350        0.969       38.685       42.213       27.259     1496.568     1781.936      743.031        0.429        0.201       67.449       22.880        0.115      334.836        5.072      857.241
12/16/2014  09:18:00        5.864       42.669       11.509       31.340       18.293       24.216      982.189      334.625      586.414        0.194        0.095       43.071       18.291        0.180      334.943        5.250      857.243
12/16/2014  09:19:00      -19.771      120.366      -18.946       21.784       27.272       16.753      474.525      743.754      280.650        0.837        0.075      121.979        9.677        0.006      334.698        4.843      857.238
12/16/2014  09:20:00      -26.760       51.080      -12.802       21.326       24.787       27.254      454.787      614.412      742.756        0.265        0.091       57.665       19.040        0.109      334.772        4.964      857.256
12/16/2014  09:21:00      -72.695        6.543       -2.306       34.479       26.365       15.284     1188.803      695.089      233.610        0.372        0.106       72.988        4.530        0.004      334.689        4.828      857.274
12/16/2014  09:22:00      -61.400        2.368      -13.935       18.102        8.645       12.650      327.671       74.733      160.022        0.227        0.028       61.445        9.130        0.022      334.565        4.619      857.288
12/16/2014  09:23:00      -23.750       15.454       -4.057       13.730       13.180       16.621      188.500      173.718      276.268        0.073        0.032       28.335       10.261        0.131      334.813        5.033      857.290
12/16/2014  09:24:00        6.239       37.387       40.080       18.379       26.880       25.007      337.770      722.558      625.334        0.236        0.084       37.904       15.525        0.168      335.376        5.969      857.269
12/16/2014  09:25:00       25.025       37.605       44.975       37.213       32.882       19.246     1384.828     1081.231      370.418        0.345        0.142       45.170       17.246        0.146      335.208        5.689      857.275
12/16/2014  09:26:00       -2.780       52.409       72.666       18.516       39.201       27.749      342.852     1536.725      770.009        0.534        0.132       52.483       30.372        0.335      335.305        5.850      857.283
12/16/2014  09:27:00       45.663       74.846       80.601       70.292       41.143       34.060     4940.937     1692.757     1160.089        1.099        0.390       87.676       37.209        0.180      335.090        5.493      857.298
12/16/2014  09:28:00      118.318       79.811        6.561       24.250       26.670       32.404      588.042      711.286     1050.010        1.138        0.117      142.720       17.120        0.014      334.631        4.731      857.303
12/16/2014  09:29:00       27.893       18.630       -1.710       21.815       26.028       22.227      475.880      677.436      494.021        0.139        0.082       33.543       15.113        0.203      334.816        5.039      857.271
12/16/2014  09:30:00        9.881       30.440       50.275       18.597       24.471       13.206      345.862      598.821      174.409        0.234        0.056       32.003       11.758        0.135      335.353        5.930      857.249
12/16/2014  09:31:00      -10.380       66.049       93.833       19.299       51.331       28.676      372.465     2634.914      822.311        0.855        0.191       66.860       32.564        0.237      335.405        6.018      857.246
12/16/2014  09:32:00       52.551       70.470       36.360       43.722       42.658       37.541     1911.596     1819.733     1409.336        0.709        0.257       87.907       24.291        0.076      335.151        5.594      857.236
12/16/2014  09:33:00       70.671      110.568      104.658       66.337       66.259       50.471     4400.628     4390.202     2547.333        1.975        0.567      131.224       42.348        0.104      335.168        5.621      857.223
12/16/2014  09:34:00       77.289      148.044      129.918       82.269       69.001       58.635     6768.151     4761.087     3438.120        2.987        0.748      167.005       44.800        0.072      334.929        5.222      857.191
12/16/2014  09:35:00      186.221       87.863       27.382       55.299       50.561       52.126     3057.950     2556.372     2717.171        2.574        0.417      205.909       32.629        0.025      334.837        5.070      857.181
12/16/2014  09:36:00      161.108       97.390       41.178       51.473       47.914       46.022     2649.481     2295.713     2118.030        2.210        0.353      188.257       20.468        0.012      334.780        4.977      857.173
12/16/2014  09:37:00      159.892       82.924       28.603       72.155       61.187       49.483     5206.392     3743.793     2448.568        2.233        0.570      180.116       27.904        0.024      334.894        5.164      857.171
12/16/2014  09:38:00       71.808       40.616        7.924       53.906       35.687       30.815     2905.866     1273.547      949.564        0.600        0.256       82.499       12.452        0.023      334.762        4.948      857.199
12/16/2014  09:39:00        2.469      -43.732       21.124       15.847       47.441       20.662      251.124     2250.643      426.907        0.265        0.146       43.801        9.219        0.044      335.053        5.433      857.214
12/16/2014  09:40:00       33.270       45.869       31.889       32.619       27.423       35.064     1064.023      752.030     1229.461        0.364        0.152       56.664       23.473        0.172      335.266        5.785      857.254
12/16/2014  09:41:00       48.442       38.084       15.782       27.629       17.811       20.874      763.389      317.230      435.713        0.278        0.076       61.620        8.554        0.019      335.064        5.450      857.292
12/16/2014  09:42:00       32.665      -42.885       -0.188       42.432       49.156       30.332     1800.453     2416.353      920.060        0.402        0.257       53.909       27.939        0.269      335.233        5.729      857.324
12/16/2014  09:43:00       80.452      -72.973      -10.489       52.921       70.437       40.416     2800.676     4961.350     1633.452        1.065        0.470      108.617       47.547        0.192      335.205        5.685      857.331
12/16/2014  09:44:00       25.001      -36.138       19.730       49.701       49.220       49.392     2470.214     2422.600     2439.586        0.482        0.367       43.943       39.093        0.791      335.286        5.819      857.333
12/16/2014  09:45:00       10.790        2.186       52.232       30.879       48.450       29.486      953.482     2347.441      869.433        0.351        0.209       11.009       21.195        3.706      335.485        6.151      857.338
12/16/2014  09:46:00       74.314       89.603       34.410       42.649       33.040       43.131     1818.900     1091.613     1860.277        0.975        0.239      116.410       30.356        0.068      335.165        5.618      857.325
12/16/2014  09:47:00       96.571       66.613        9.860       37.084       25.062       29.885     1375.218      628.091      893.087        0.838        0.145      117.317       15.213        0.017      334.990        5.327      857.310
12/16/2014  09:48:00       53.329       52.928       25.628       39.580       34.508       36.670     1566.550     1190.830     1344.708        0.520        0.205       75.136       14.152        0.035      335.138        5.573      857.307
12/16/2014  09:49:00       72.993       62.100       34.527       56.694       32.405       39.137     3214.180     1050.101     1531.715        0.809        0.290       95.835       31.678        0.109      335.010        5.360      857.316
12/16/2014  09:50:00       57.907       79.229       66.310       72.587       36.369       41.198     5268.856     1322.687     1697.306        1.116        0.414       98.135       37.755        0.148      334.976        5.305      857.350
12/16/2014  09:51:00       49.559       67.686       66.252       42.405       33.286       25.835     1798.217     1107.932      667.470        0.750        0.179       83.889       16.366        0.038      335.036        5.403      857.365
12/16/2014  09:52:00       55.118       66.652       70.815       32.751       28.526       19.450     1072.613      813.752      378.309        0.738        0.113       86.489       13.777        0.025      334.988        5.324      857.371
12/16/2014  09:53:00       71.427       65.264       52.944       38.754       56.131       38.521     1501.879     3150.652     1483.870        0.915        0.307       96.753       36.228        0.140      335.004        5.350      857.351
12/16/2014  09:54:00       43.134       69.458       67.132       43.846       33.607       29.425     1922.509     1129.428      865.834        0.755        0.196       81.761       21.307        0.068      335.148        5.590      857.338
12/16/2014  09:55:00       11.307       66.336       69.311       48.328       37.548       42.003     2335.624     1409.867     1764.294        0.742        0.275       67.293       37.613        0.312      335.221        5.711      857.319
12/16/2014  09:56:00       68.071       73.154       34.369       61.664       48.344       50.168     3802.447     2337.130     2516.870        0.991        0.433       99.926       42.984        0.185      335.039        5.408      857.304
12/16/2014  09:57:00       79.935       56.210       36.592       57.433       49.877       39.989     3298.557     2487.733     1599.104        0.914        0.369       97.720       30.115        0.095      335.221        5.710      857.319
12/16/2014  09:58:00       31.695        4.875       24.751       34.475       42.164       26.157     1188.534     1777.816      684.165        0.265        0.183       32.068       11.562        0.130      335.239        5.741      857.325
12/16/2014  09:59:00       13.549        6.386       47.280       36.599       53.924       33.771     1339.519     2907.750     1140.498        0.392        0.269       14.979       42.136        7.913      335.268        5.789      857.323
12/16/2014  10:00:00       32.833       15.011       53.987       34.044       42.648       27.360     1158.995     1818.875      748.550        0.397        0.186       36.102       21.133        0.343      335.113        5.530      857.330
12/16/2014  10:01:00       22.435       27.577       40.521       26.281       29.717       16.991      690.679      883.098      288.700        0.238        0.093       35.551        9.763        0.075      335.233        5.730      857.347
12/16/2014  10:02:00       20.761      -49.152       -0.346       29.906       43.461       20.069      894.395     1888.887      402.782        0.302        0.159       53.357       15.135        0.080      335.226        5.718      857.348
12/16/2014  10:03:00       30.270      -75.748       -3.460       29.288       26.154       17.892      857.798      684.019      320.139        0.426        0.093       81.572       12.672        0.024      335.022        5.381      857.346
12/16/2014  10:04:00       23.056      -33.589       10.613       29.356       38.509       29.628      861.757     1482.931      877.844        0.250        0.161       40.741       21.835        0.287      335.207        5.687      857.348
12/16/2014  10:05:00       24.339      -58.392        4.540       23.685       40.774       26.659      560.992     1662.555      710.706        0.348        0.147       63.262       23.914        0.143      335.103        5.515      857.349
12/16/2014  10:06:00       -3.099       33.400       57.450       14.380       36.113       16.251      206.790     1304.180      264.081        0.310        0.089       33.544       18.096        0.291      335.390        5.992      857.331
12/16/2014  10:07:00       13.432       61.805       66.393       27.842       34.285       23.763      775.168     1175.486      564.671        0.546        0.126       63.248       21.615        0.117      335.205        5.685      857.307
12/16/2014  10:08:00       30.666      -60.172       16.903       27.117       40.914       24.197      735.321     1673.996      585.496        0.392        0.150       67.536       27.729        0.169      335.154        5.599      857.291
12/16/2014  10:09:00       22.928       24.673       57.309       26.492       56.570       19.363      701.851     3200.167      374.907        0.435        0.214       33.682       23.376        0.482      335.199        5.673      857.305
12/16/2014  10:10:00       23.856       43.160       46.235       45.892       67.818       30.777     2106.052     4599.251      947.206        0.611        0.383       49.314       23.422        0.226      335.224        5.716      857.321
12/16/2014  10:11:00      -12.657       43.647       66.622       21.859       32.240       18.818      477.798     1039.424      354.116        0.419        0.094       45.445       12.296        0.073      335.240        5.742      857.335
12/16/2014  10:12:00       14.978      -21.180       34.464       44.447       39.409       47.988     1975.520     1553.049     2302.808        0.384        0.292       25.941       18.447        0.506      335.243        5.746      857.343
12/16/2014  10:13:00       58.271      -32.991        5.586       52.530       49.134       41.295     2759.436     2414.186     1705.315        0.570        0.344       66.962       44.504        0.442      335.221        5.711      857.361
12/16/2014  10:14:00       41.326       39.436       56.724       31.623       48.848       31.640      999.996     2386.093     1001.103        0.543        0.219       57.123       34.132        0.357      335.155        5.603      857.360
12/16/2014  10:15:00       48.403        0.816       25.545       23.533       29.679       23.900      553.801      880.868      571.229        0.250        0.100       48.410       20.726        0.183      335.126        5.552      857.354
12/16/2014  10:16:00       50.298       25.436       15.787       26.675       27.942       17.894      711.578      780.774      320.179        0.262        0.091       56.364       11.008        0.038      335.006        5.354      857.321
12/16/2014  10:17:00       68.513       86.528       56.778       37.304       30.496       38.284     1391.613      930.017     1465.631        0.960        0.189      110.368       18.735        0.029      334.988        5.323      857.286
12/16/2014  10:18:00       52.474       85.322       57.381       60.665       41.910       52.352     3680.284     1756.437     2740.732        1.075        0.409      100.167       46.879        0.219      335.108        5.524      857.269
12/16/2014  10:19:00       69.189       97.771       67.464       50.256       33.360       38.765     2525.682     1112.919     1502.717        1.202        0.257      119.776       35.076        0.086      335.162        5.613      857.237
12/16/2014  10:20:00      103.770       97.998       56.505       62.365       44.766       38.817     3889.429     2003.962     1506.752        1.548        0.370      142.730       40.338        0.080      335.057        5.438      857.205
12/16/2014  10:21:00       91.524       64.098       31.765       52.699       40.381       37.172     2777.217     1630.604     1381.758        0.964        0.289      111.737       33.707        0.091      335.102        5.513      857.168
12/16/2014  10:22:00       95.759       54.086       11.732       56.009       43.005       36.137     3137.002     1849.470     1305.857        0.926        0.315      109.978       27.354        0.062      335.233        5.729      857.132
12/16/2014  10:23:00       32.280       94.658       83.785       46.401       38.055       34.796     2153.048     1448.191     1210.766        1.092        0.241      100.011       34.681        0.120      335.268        5.789      857.134
12/16/2014  10:24:00       27.284        6.195       36.000       35.095       65.055       37.406     1231.647     4232.143     1399.222        0.447        0.343       27.978       45.717        2.670      335.305        5.849      857.176
12/16/2014  10:25:00        6.569      -36.744        9.891       35.079       34.780       19.637     1230.555     1209.633      385.600        0.216        0.141       37.326       20.522        0.302      335.509        6.190      857.200
12/16/2014  10:26:00       11.940       41.115       40.527       22.978       26.605       23.880      527.985      707.850      570.262        0.264        0.090       42.813       12.450        0.085      335.552        6.262      857.194
12/16/2014  10:27:00       81.764       66.947       22.518       58.907       32.350       32.530     3470.055     1046.520     1058.178        0.862        0.279      105.675       37.866        0.128      335.295        5.833      857.166
12/16/2014  10:28:00      100.762       80.169       16.163       25.058       18.434       22.302      627.888      339.823      497.374        0.915        0.073      128.764        5.847        0.002      335.100        5.510      857.135
12/16/2014  10:29:00       89.636       80.659        0.687       35.630       24.669       29.065     1269.512      608.537      844.758        0.863        0.136      120.584       14.246        0.014      335.210        5.693      857.103
12/16/2014  10:30:00       95.187       61.618       11.734       43.387       26.072       31.529     1882.459      679.748      994.085        0.827        0.178      113.390       28.895        0.065      335.373        5.963      857.086
12/16/2014  10:31:00       13.409       27.118       28.059       24.465       28.719       27.096      598.537      824.775      734.176        0.193        0.108       30.252       19.607        0.420      335.665        6.451      857.082
12/16/2014  10:32:00       64.850       58.394        6.691       38.115       28.102       25.590     1452.764      789.743      654.838        0.528        0.145       87.266       17.869        0.042      335.412        6.029      857.085
12/16/2014  10:33:00       33.237       48.464       11.383       28.989       24.016       21.776      840.345      576.776      474.195        0.274        0.095       58.766       14.664        0.062      335.343        5.915      857.083
12/16/2014  10:34:00       33.966      -42.863        4.745       35.404       41.940       15.683     1253.476     1759.001      245.967        0.314        0.163       54.690       20.928        0.146      335.439        6.074      857.089
12/16/2014  10:35:00       30.825       -8.111       -7.921       27.593       34.639       14.899      761.347     1199.852      221.971        0.163        0.109       31.874       12.741        0.160      335.380        5.974      857.089
12/16/2014  10:36:00       22.318       30.701        9.805       16.692       23.527       22.113      278.607      553.499      488.976        0.143        0.066       37.956       16.286        0.184      335.465        6.117      857.092
12/16/2014  10:37:00       -9.703       12.155       48.917       17.315       19.309       13.087      299.817      372.833      171.264        0.174        0.042       15.553        9.101        0.342      335.734        6.565      857.090
12/16/2014  10:38:00      -19.804       26.232       51.510       14.210       24.853       15.589      201.926      617.694      243.012        0.240        0.053       32.868       13.567        0.170      335.690        6.491      857.071
12/16/2014  10:39:00        2.677       14.921       37.915       14.055       18.599       12.911      197.550      345.906      166.695        0.119        0.036       15.159        6.226        0.169      335.795        6.665      857.033
12/16/2014  10:40:00       25.384       39.643       44.448       20.306       17.125       12.353      412.316      293.278      152.607        0.252        0.043       47.074       10.235        0.047      335.671        6.461      857.000
12/16/2014  10:41:00       26.091       42.984       -2.494       30.254       27.703       32.121      915.284      767.447     1031.729        0.262        0.136       50.283       26.231        0.272      335.435        6.067      856.982
12/16/2014  10:42:00        1.304      -43.409       -7.373       12.823       16.237       18.721      164.423      263.634      350.491        0.136        0.039       43.429       11.260        0.067      335.312        5.860      856.960
12/16/2014  10:43:00        3.029       67.613        4.735       18.406       48.820       21.117      338.790     2383.433      445.922        0.389        0.158       67.681       26.906        0.158      335.658        6.439      856.939
12/16/2014  10:44:00        1.092       72.527       -0.736       26.382       29.356       22.988      696.015      861.753      528.457        0.367        0.104       72.535       21.283        0.086      335.436        6.068      856.922
12/16/2014  10:45:00      -10.365       99.528      -14.743       19.163       24.299       10.197      367.238      590.455      103.982        0.565        0.053      100.067        4.982        0.002      335.291        5.824      856.911
12/16/2014  10:46:00      -19.905       78.499      -17.410       16.516       26.677       11.931      272.790      711.645      142.351        0.399        0.056       80.983       10.660        0.017      335.459        6.108      856.909
12/16/2014  10:47:00       35.284       63.517       -9.218       43.985       42.594       22.051     1934.646     1814.271      486.253        0.480        0.212       72.660       10.214        0.020      335.618        6.371      856.916
12/16/2014  10:48:00       36.820       39.009       -9.797       28.922       20.698       24.961      836.473      428.396      623.047        0.243        0.094       53.641       16.615        0.096      335.592        6.328      856.927
12/16/2014  10:49:00      -57.884       40.630        6.486       36.974       20.391       23.705     1367.088      415.806      561.931        0.369        0.117       70.720       25.501        0.130      335.679        6.474      856.913
12/16/2014  10:50:00     -104.924      -11.057      -14.833       16.965       27.981       17.456      287.799      782.922      304.727        0.636        0.069      105.505        6.274        0.004      335.490        6.159      856.905
12/16/2014  10:51:00      -39.876      -60.833        3.379       51.207       33.618       28.389     2622.131     1130.194      805.953        0.493        0.228       72.738       21.901        0.091      335.670        6.459      856.911
12/16/2014  10:52:00      -36.973      -36.922       18.962       48.015       58.022       34.898     2305.409     3366.523     1217.893        0.499        0.344       52.251       35.040        0.450      335.850        6.758      856.905
12/16/2014  10:53:00      -82.436      -59.106        6.828       52.888       50.909       33.494     2797.126     2591.702     1121.852        0.842        0.326      101.435       33.209        0.107      335.644        6.415      856.900
12/16/2014  10:54:00     -107.874      -76.875       -3.653       58.923       48.474       32.616     3471.951     2349.714     1063.816        1.222        0.344      132.463       27.039        0.042      335.573        6.296      856.869
12/16/2014  10:55:00      -88.391      -77.407        3.286       59.410       49.528       24.261     3529.559     2452.992      588.617        1.019        0.329      117.494       24.523        0.044      335.575        6.301      856.833
12/16/2014  10:56:00      -92.274      -43.194        7.220       51.380       28.913       25.685     2639.868      835.957      659.730        0.728        0.207      101.883       28.923        0.081      335.594        6.332      856.785
12/16/2014  10:57:00      -70.074      -34.774        1.158       26.163       24.405       15.905      684.492      595.594      252.976        0.383        0.077       78.228       10.730        0.019      335.571        6.294      856.731
12/16/2014  10:58:00      -22.103      -73.471       -3.209       58.885       21.605       23.932     3467.459      466.757      572.746        0.520        0.225       76.724       17.498        0.052      335.708        6.522      856.701
12/16/2014  10:59:00       22.761      -37.869       -2.374       24.575       16.818       15.134      603.949      282.831      229.048        0.154        0.056       44.183        7.283        0.027      335.793        6.663      856.703
12/16/2014  11:00:00        3.795        0.755       17.924       15.313       11.901       12.625      234.502      141.628      159.388        0.044        0.027        3.869        7.975        4.248      336.415        7.702      856.723
12/16/2014  11:01:00       13.514       29.853       23.388       28.621       25.815       25.762      819.161      666.416      663.702        0.188        0.107       32.769       23.956        0.534      335.994        6.999      856.720
12/16/2014  11:02:00       54.368       60.144       14.668       39.422       23.624       26.864     1554.130      558.074      721.649        0.481        0.142       81.075       23.592        0.085      335.858        6.773      856.694
12/16/2014  11:03:00       41.134       45.678       42.437       60.163       31.997       35.170     3619.587     1023.834     1236.925        0.573        0.294       61.469       33.828        0.303      336.121        7.211      856.665
12/16/2014  11:04:00       -2.706       11.151       26.922       21.214       32.760       24.997      450.041     1073.226      624.847        0.150        0.107       11.475       22.346        3.792      336.335        7.566      856.671
12/16/2014  11:05:00       -1.953        8.177       31.148       16.709       24.547       17.743      279.198      602.559      314.808        0.112        0.060        8.406       17.080        4.128      336.331        7.561      856.685
12/16/2014  11:06:00      -13.120       77.638       -3.113       31.424       57.753       30.549      987.479     3335.391      933.242        0.573        0.263       78.738       31.384        0.159      335.943        6.914      856.692
12/16/2014  11:07:00        1.987      126.000      -24.411       20.316       16.049       12.065      412.748      257.577      145.576        0.865        0.041      126.015        6.974        0.003      335.614        6.364      856.682
12/16/2014  11:08:00       15.442       72.770       -1.081       35.040       43.378       29.599     1227.797     1881.651      876.078        0.476        0.199       74.390       19.981        0.072      335.908        6.855      856.644
12/16/2014  11:09:00      -51.401      139.013      -17.353       59.014       71.846       36.485     3482.647     5161.873     1331.174        1.612        0.499      148.212       39.775        0.072      335.753        6.596      856.627
12/16/2014  11:10:00      -43.249       71.658      -10.827       46.910       83.967       28.337     2200.513     7050.448      802.966        0.859        0.503       83.698       30.788        0.135      335.803        6.681      856.623
12/16/2014  11:11:00        5.443      144.464      -18.992       29.419       61.920       29.321      865.494     3834.037      859.722        1.341        0.278      144.566       33.013        0.052      335.663        6.446      856.625
12/16/2014  11:12:00       -6.650      108.606      -10.763       22.975       55.979       25.083      527.844     3133.657      629.154        0.812        0.215      108.809       24.650        0.051      335.750        6.592      856.624
12/16/2014  11:13:00       -1.481       53.261       -9.965       51.747       46.408       18.783     2677.768     2153.685      352.805        0.406        0.259       53.281       21.395        0.161      335.743        6.579      856.615
12/16/2014  11:14:00      -43.358       36.804      -18.199       27.052       33.845       20.050      731.812     1145.484      402.015        0.292        0.114       56.872       10.489        0.034      335.609        6.357      856.598
12/16/2014  11:15:00       19.339        3.865       -6.201       24.395       27.839       16.935      595.118      775.016      286.800        0.104        0.083       19.722       16.785        0.724      335.569        6.291      856.584
12/16/2014  11:16:00       18.001       14.876        2.848       24.880       26.138       28.332      619.011      683.212      802.725        0.133        0.105       23.352       17.915        0.589      335.772        6.629      856.558
12/16/2014  11:17:00        7.400       39.452      -15.062       19.094       28.362       15.259      364.582      804.393      232.835        0.162        0.070       40.140       10.858        0.073      335.810        6.693      856.531
12/16/2014  11:18:00       16.928       58.536       -2.923       22.534       23.190       20.316      507.797      537.784      412.726        0.259        0.073       60.935       13.991        0.053      335.954        6.932      856.510
12/16/2014  11:19:00      -52.568      -18.122       19.469       57.700       32.788       27.601     3329.242     1075.052      761.815        0.432        0.258       55.604       28.763        0.268      336.046        7.086      856.493
12/16/2014  11:20:00       -4.955       59.225        8.483       33.673       39.494       25.947     1133.879     1559.768      673.268        0.348        0.168       59.432       17.961        0.091      336.207        7.353      856.488
12/16/2014  11:21:00       12.365       96.537      -11.749       20.972       23.794       21.754      439.843      566.142      473.216        0.554        0.074       97.326       16.322        0.028      335.934        6.899      856.473
12/16/2014  11:22:00        4.054       90.390      -17.595       22.815       28.266       22.771      520.506      798.993      518.507        0.517        0.092       90.481       12.569        0.019      335.885        6.818      856.433
12/16/2014  11:23:00       -9.306       54.998        9.653       20.221       40.238       24.250      408.881     1619.119      588.081        0.291        0.131       55.780       18.345        0.108      336.461        7.777      856.395
12/16/2014  11:24:00       58.644      148.014      -12.951       73.137       79.608       47.526     5349.050     6337.376     2258.684        1.973        0.697      159.208       44.615        0.079      336.022        7.042      856.359
12/16/2014  11:25:00       60.826      100.777      -15.150       44.239       51.459       34.954     1957.098     2648.049     1221.769        0.995        0.291      117.710       34.534        0.086      335.849        6.757      856.347
12/16/2014  11:26:00       45.066       77.931        9.623       44.130       38.459       38.020     1947.491     1479.086     1445.526        0.653        0.244       90.023       23.635        0.069      335.975        6.966      856.337
12/16/2014  11:27:00       44.220       98.032        4.269       40.705       48.214       36.978     1656.865     2324.586     1367.348        0.847        0.267      107.543       33.933        0.100      335.866        6.786      856.323
12/16/2014  11:28:00       -2.773       84.564       -2.565       32.464       44.993       32.423     1053.941     2024.332     1051.227        0.565        0.206       84.610       24.018        0.081      335.768        6.621      856.328
12/16/2014  11:29:00       37.396       99.300      -10.083       24.849       31.870       23.641      617.449     1015.682      558.897        0.678        0.110      106.108       16.432        0.024      335.822        6.711      856.320
12/16/2014  11:30:00       69.811       81.431        2.803       34.345       48.091       30.195     1179.567     2312.785      911.744        0.796        0.220      107.259       28.013        0.068      335.886        6.818      856.319
12/16/2014  11:31:00       59.168       35.962        2.400       37.590       28.863       22.758     1413.031      833.048      517.928        0.378        0.138       69.240       19.517        0.079      335.915        6.866      856.314
12/16/2014  11:32:00       54.082      107.683       -4.028       47.034       34.062       31.636     2212.186     1160.199     1000.868        0.945        0.219      120.501       13.045        0.012      335.961        6.944      856.302
12/16/2014  11:33:00       55.151       81.411       17.263       37.156       25.723       44.587     1380.592      661.658     1988.019        0.700        0.202       98.333       18.227        0.034      336.001        7.010      856.298
12/16/2014  11:34:00       21.182       54.747       77.193       35.963       55.366       32.063     1293.360     3065.371     1028.050        0.739        0.269       58.702       30.589        0.272      336.382        7.646      856.278
12/16/2014  11:35:00       75.206       96.515       80.682       59.562       39.461       37.020     3547.589     1557.150     1370.494        1.398        0.324      122.357       37.067        0.092      336.058        7.105      856.259
12/16/2014  11:36:00       84.849       47.665       29.021       28.890       27.404       22.460      834.606      751.006      504.442        0.620        0.105       97.320       17.885        0.034      335.931        6.893      856.246
12/16/2014  11:37:00       54.525       45.205       30.480       45.188       35.024       40.160     2041.924     1226.688     1612.796        0.541        0.244       70.827       21.048        0.088      336.122        7.211      856.202
12/16/2014  11:38:00       91.777       68.493       -8.203       46.062       50.308       35.555     2121.708     2530.944     1264.159        0.955        0.296      114.517       19.199        0.028      336.062        7.113      856.174
12/16/2014  11:39:00       72.280       49.920       20.130       45.725       51.738       37.883     2090.787     2676.857     1435.095        0.716        0.310       87.843       30.436        0.120      336.176        7.303      856.136
12/16/2014  11:40:00        6.521       89.209      -19.479       26.235       28.403       14.658      688.280      806.755      214.871        0.504        0.085       89.447        9.449        0.011      336.043        7.080      856.086
12/16/2014  11:41:00        2.551       -8.171        5.596       31.089       66.224       26.593      966.525     4385.632      707.186        0.308        0.303        8.560       20.194        5.566      336.479        7.809      856.059
12/16/2014  11:42:00       68.127       47.610       28.325       72.486       72.685       33.604     5254.221     5283.177     1129.196        0.969        0.583       83.114       26.200        0.099      336.432        7.730      856.033
12/16/2014  11:43:00      127.597      101.830       25.441       68.745       41.744       37.795     4725.848     1742.551     1428.467        1.760        0.395      163.250       22.115        0.018      336.182        7.312      856.025
12/16/2014  11:44:00       96.457      101.107       51.927       85.974       52.966       49.814     7391.511     2805.346     2481.417        1.745        0.634      139.737       47.942        0.118      336.503        7.849      856.006
12/16/2014  11:45:00       98.129       85.235       25.086       70.761       49.750       53.940     5007.105     2475.074     2909.500        1.396        0.520      129.979       36.476        0.079      336.243        7.414      856.007
12/16/2014  11:46:00       88.329       93.038       -4.726       72.735       34.494       28.650     5290.332     1189.860      820.813        1.189        0.365      128.289       21.093        0.027      336.088        7.154      856.002
12/16/2014  11:47:00       30.722       62.789       26.684       46.499       48.896       62.411     2162.198     2390.837     3895.175        0.702        0.422       69.902       38.599        0.305      336.363        7.614      855.995
12/16/2014  11:48:00       52.372      119.289      123.138       52.658       54.323       32.644     2772.864     2950.943     1065.642        1.946        0.339      130.279       32.315        0.062      336.217        7.371      855.996
12/16/2014  11:49:00       37.179       60.784       94.107       54.653       54.925       44.114     2986.913     3016.722     1946.012        1.094        0.397       71.252       30.305        0.181      336.319        7.541      856.009
12/16/2014  11:50:00       35.736      -44.208       20.574       40.038       52.108       37.058     1603.050     2715.238     1373.301        0.467        0.285       56.845       36.427        0.411      336.463        7.781      856.006
12/16/2014  11:51:00       43.442       25.424       39.226       51.538       60.042       42.862     2656.167     3605.069     1837.110        0.608        0.405       50.335       39.251        0.608      336.664        8.118      855.998
12/16/2014  11:52:00       73.281       54.267        7.488       46.918       32.908       27.473     2201.309     1082.926      754.741        0.620        0.202       91.187       13.109        0.021      336.352        7.595      855.984
12/16/2014  11:53:00       60.482       67.309        4.259       21.067       29.010       26.926      443.822      841.600      724.998        0.511        0.101       90.491       13.363        0.022      336.286        7.485      855.950
12/16/2014  11:54:00      109.301       79.986       46.106       80.808       62.024       42.127     6529.929     3846.941     1774.667        1.631        0.608      135.442       40.274        0.088      336.492        7.828      855.918
12/16/2014  11:55:00      112.861       84.842       37.200       76.725       55.257       58.950     5886.741     3053.336     3475.143        1.686        0.621      141.194       26.871        0.036      336.779        8.309      855.896
12/16/2014  11:56:00      132.106       97.484       23.413       54.050       38.413       48.705     2921.375     1475.575     2372.195        1.713        0.338      164.181       30.114        0.034      336.437        7.737      855.870
12/16/2014  11:57:00       93.731       46.712        9.501       54.725       31.535       29.841     2994.800      994.446      890.482        0.797        0.244      104.726       14.324        0.019      336.536        7.903      855.855
12/16/2014  11:58:00      111.219       45.431       13.313       96.334       59.179       51.868     9280.305     3502.097     2690.323        1.504        0.774      120.140       33.478        0.078      336.640        8.074      855.835
12/16/2014  11:59:00       71.055       85.921       60.813       90.763       45.106       67.330     8237.961     2034.564     4533.306        1.546        0.740      111.496       64.392        0.334      336.627        8.055      855.816
12/16/2014  12:00:00      117.376       98.863       22.103       89.117       62.394       54.745     7941.759     3892.988     2997.006        1.943        0.742      153.463       36.245        0.056      336.378        7.638      855.800
12/16/2014  12:01:00       22.386      137.692      -20.394       62.754       73.157       37.232     3938.043     5351.947     1386.217        1.527        0.534      139.499       33.823        0.059      336.311        7.527      855.787
12/16/2014  12:02:00       51.413       62.081       19.422       41.843       44.523       32.457     1750.799     1982.260     1053.475        0.583        0.239       80.606       17.675        0.048      336.540        7.910      855.769
12/16/2014  12:03:00       73.196       35.222       20.948       49.332       35.959       34.830     2433.663     1293.067     1213.104        0.599        0.247       81.229       27.174        0.112      336.683        8.151      855.761
12/16/2014  12:04:00       82.150       60.432       49.765       55.453       47.084       41.197     3075.000     2216.941     1697.154        0.993        0.349      101.984       34.618        0.115      336.589        7.993      855.742
12/16/2014  12:05:00       38.891      110.031      -17.700       50.178       47.531       30.094     2517.801     2259.159      905.619        0.981        0.284      116.701       27.746        0.057      336.587        7.989      855.732
12/16/2014  12:06:00       70.221       63.610       32.099       57.524       47.749       39.420     3309.015     2279.982     1553.924        0.857        0.357       94.748       23.891        0.064      336.938        8.576      855.722
12/16/2014  12:07:00       86.000       62.132       27.016       91.081       72.813       66.195     8295.786     5301.741     4381.761        1.498        0.899      106.096       55.368        0.272      336.856        8.438      855.697
12/16/2014  12:08:00      136.854      101.000       13.062      101.079       65.452       49.005    10216.969     4283.931     2401.533        2.300        0.845      170.088       19.388        0.013      336.365        7.616      855.684
12/16/2014  12:09:00       51.505       61.695       24.384       74.318       65.475       46.624     5523.205     4286.965     2173.789        0.952        0.599       80.369       28.186        0.123      336.947        8.590      855.670
12/16/2014  12:10:00       72.921       58.088       38.015       68.017       52.011       40.891     4626.309     2705.129     1672.110        0.957        0.450       93.229       30.210        0.105      336.888        8.491      855.660
12/16/2014  12:11:00       59.499      103.345      112.718       91.751       83.358       63.977     8418.158     6948.530     4092.996        2.319        0.973      119.249       61.117        0.263      336.775        8.300      855.650
12/16/2014  12:12:00       39.716        7.108       59.090       41.958       53.942       44.830     1760.479     2909.693     2009.766        0.590        0.334       40.347       38.808        0.925      336.752        8.266      855.667
12/16/2014  12:13:00      106.504       69.159       15.108       77.613       63.827       45.847     6023.801     4073.854     2101.905        1.427        0.610      126.989       27.695        0.048      336.823        8.383      855.654
12/16/2014  12:14:00      115.220       77.737       25.628       97.224       67.254       45.897     9452.480     4523.106     2106.536        1.803        0.804      138.992       22.262        0.026      336.830        8.393      855.641
12/16/2014  12:15:00       99.286      105.076       79.653      111.003       69.724       72.277    12321.738     4861.469     5223.911        2.482        1.120      144.564       73.980        0.262      336.677        8.139      855.639
12/16/2014  12:16:00       76.591      100.205       69.008       60.937       59.095       63.990     3713.304     3492.177     4094.684        1.598        0.565      126.124       50.317        0.159      336.589        7.991      855.639
12/16/2014  12:17:00       58.394       40.435       32.527       44.869       40.280       42.483     2013.187     1622.447     1804.789        0.577        0.272       71.027       32.131        0.205      336.846        8.422      855.632
12/16/2014  12:18:00       65.409       82.798       83.072       61.845       59.815       44.631     3824.770     3577.776     1991.963        1.371        0.470      105.517       41.615        0.156      336.827        8.390      855.632
12/16/2014  12:19:00       53.946       67.265       62.591       51.106       46.959       33.702     2611.806     2205.145     1135.827        0.865        0.298       86.225       32.344        0.141      336.894        8.502      855.626
12/16/2014  12:20:00      -20.143      -42.854        9.989       22.601       28.969       28.797      510.795      839.175      829.293        0.226        0.109       47.352       12.575        0.071      337.343        9.252      855.625
12/16/2014  12:21:00       28.296      -50.547       26.996       38.186       77.393       39.776     1458.181     5989.695     1582.126        0.656        0.452       57.928       42.239        0.532      337.146        8.926      855.617
12/16/2014  12:22:00       64.367     -136.581       26.168       46.221       82.239       44.840     2136.342     6763.227     2010.594        1.719        0.546      150.988       40.650        0.072      336.704        8.183      855.606
12/16/2014  12:23:00       37.104       38.117       39.179       48.428       33.537       40.190     2345.296     1124.703     1615.236        0.472        0.254       53.194       30.173        0.322      337.156        8.940      855.573
12/16/2014  12:24:00       73.447       45.783       38.190       50.151       40.409       37.999     2515.164     1632.917     1443.942        0.727        0.280       86.548       27.092        0.098      337.005        8.688      855.556
12/16/2014  12:25:00       81.011       50.778       18.058       61.682       44.948       35.892     3804.713     2020.354     1288.257        0.829        0.356       95.610       30.314        0.101      337.173        8.967      855.526
12/16/2014  12:26:00      142.426       94.363        1.857       85.094       49.834       40.210     7240.906     2483.410     1616.863        2.026        0.567      170.850       30.299        0.031      336.611        8.027      855.519
12/16/2014  12:27:00      152.260       81.114        7.833       96.429       52.792       45.194     9298.584     2787.005     2042.519        2.197        0.706      172.519       19.441        0.013      337.021        8.712      855.503
12/16/2014  12:28:00      169.654       98.833       26.899       85.406       68.141       58.033     7294.188     4643.179     3367.824        2.729        0.765      196.343        8.758        0.002      336.711        8.195      855.492
12/16/2014  12:29:00       78.030      124.745       -0.603       73.530       75.378       48.226     5406.733     5681.866     2325.761        1.753        0.671      147.139       44.336        0.091      336.849        8.424      855.469
12/16/2014  12:30:00      175.387      102.679       10.050       92.964       64.065       45.133     8642.352     4104.302     2037.020        2.809        0.739      203.233       16.449        0.007      336.881        8.476      855.450
12/16/2014  12:31:00      111.187       66.937        8.643       73.291       60.743       46.102     5371.601     3689.744     2125.350        1.405        0.559      129.780       36.472        0.079      336.655        8.101      855.478
12/16/2014  12:32:00       33.241       57.466       11.016       51.691       41.533       31.911     2671.998     1725.017     1018.304        0.497        0.271       66.388       25.121        0.143      336.714        8.201      855.462
12/16/2014  12:33:00       13.009      140.909      -15.996       39.569       65.240       36.149     1565.718     4256.262     1306.746        1.370        0.356      141.508       19.771        0.020      336.624        8.050      855.451
12/16/2014  12:34:00        6.415      132.793      -17.092       33.006       54.903       30.768     1089.421     3014.363      946.654        1.151        0.253      132.948       29.765        0.050      336.707        8.189      855.438
12/16/2014  12:35:00        3.497       88.006       -7.984       26.516       78.766       28.323      703.092     6204.040      802.210        0.776        0.385       88.075       36.370        0.171      337.068        8.793      855.436
12/16/2014  12:36:00       12.231       62.473       70.279       81.607       81.300       54.205     6659.697     6609.649     2938.203        1.260        0.810       63.659       57.734        0.823      337.215        9.039      855.427
12/16/2014  12:37:00      144.252      113.057       47.470       34.186       33.290       40.235     1168.689     1108.225     1618.886        1.987        0.195      183.277       22.449        0.015      336.698        8.175      855.421
12/16/2014  12:38:00       88.443       70.596       22.691       42.210       33.176       27.311     1781.666     1100.628      745.907        0.847        0.181      113.164       11.878        0.011      336.952        8.599      855.422
12/16/2014  12:39:00       19.797        3.481       16.532       40.330       45.534       32.007     1626.489     2073.354     1024.440        0.270        0.236       20.101       21.949        1.192      337.519        9.548      855.422
12/16/2014  12:40:00       79.650       81.106       84.348       68.238       65.380       43.476     4656.426     4274.499     1890.133        1.543        0.541      113.677       38.031        0.112      337.156        8.939      855.415
12/16/2014  12:41:00       84.288       55.461        9.518       38.478       59.833       29.318     1480.575     3580.011      859.540        0.809        0.296      100.898       22.388        0.049      336.829        8.393      855.394
12/16/2014  12:42:00       17.986       52.132      -13.433       34.715       45.743       16.550     1205.111     2092.458      273.897        0.340        0.179       55.147       11.621        0.044      337.033        8.734      855.368
12/16/2014  12:43:00      -19.086       22.528      -18.460       29.091       40.504       20.555      846.279     1640.555      422.524        0.206        0.145       29.526       16.808        0.324      337.237        9.076      855.339
12/16/2014  12:44:00      -29.637       65.586       18.229       30.276       47.753       34.635      916.613     2280.386     1199.553        0.495        0.220       71.971       28.469        0.156      337.756        9.946      855.309
12/16/2014  12:45:00       -1.242      -51.258       23.763       28.954       41.337       28.693      838.343     1708.744      823.291        0.328        0.169       51.273       24.486        0.228      337.979       10.319      855.302
12/16/2014  12:46:00       65.971      -80.961       12.925       52.940       64.470       35.638     2802.650     4156.427     1270.084        0.965        0.411      104.436       35.991        0.119      337.403        9.354      855.274
12/16/2014  12:47:00       56.995      -56.005        6.104       45.328       70.559       34.002     2054.618     4978.553     1156.156        0.730        0.409       79.907       40.329        0.255      337.348        9.261      855.258
12/16/2014  12:48:00       21.361      -11.661       24.503       29.715       42.814       28.916      882.991     1833.040      836.146        0.237        0.178       24.337       32.180        1.748      337.768        9.966      855.235
12/16/2014  12:49:00      -28.618        1.938       35.851       41.519       36.359       34.774     1723.843     1321.993     1209.219        0.318        0.213       28.683       34.225        1.424      337.996       10.348      855.216
12/16/2014  12:50:00       24.795       91.645       86.806       42.927       64.644       62.584     1842.701     4178.865     3916.709        1.324        0.497       94.940       41.918        0.195      337.451        9.433      855.209
12/16/2014  12:51:00       34.783       88.140       92.309       59.769       56.335       32.787     3572.285     3173.602     1075.019        1.266        0.391       94.755       26.042        0.076      337.395        9.339      855.194
12/16/2014  12:52:00      135.477     -135.647      -22.963      161.351      190.308       91.930    26034.008    36217.239     8451.068        5.398        3.535      191.714      122.209        0.406      337.534        9.573      855.179
12/16/2014  12:53:00      144.048     -128.291       -8.038      117.014      147.632       94.506    13692.303    21795.247     8931.433        4.084        2.221      192.895       99.840        0.268      337.190        8.996      855.184
12/16/2014  12:54:00       72.492      -22.859       47.701       80.475      139.271       85.538     6476.160    19396.475     7316.730        2.061        1.659       76.010      101.930        1.798      337.335        9.238      855.221
12/16/2014  12:55:00       56.622      -52.406       -1.034       49.198       77.665       50.362     2420.467     6031.803     2536.368        0.847        0.549       77.152       50.857        0.435      337.521        9.550      855.245
12/16/2014  12:56:00      -55.731        2.334       16.877       47.718       36.024       31.571     2277.012     1297.710      996.758        0.398        0.229       55.780       21.101        0.143      337.562        9.621      855.240
12/16/2014  12:57:00      -28.434       -6.440       37.514       37.636       54.428       31.023     1416.455     2962.415      962.402        0.380        0.267       29.154       18.209        0.390      337.823       10.058      855.210
12/16/2014  12:58:00       -3.066       25.671       66.549       34.964       45.720       44.420     1222.500     2090.305     1973.095        0.519        0.264       25.854       33.473        1.676      337.925       10.229      855.197
12/16/2014  12:59:00       25.134       52.178       69.330       45.675       58.205       40.867     2086.183     3387.865     1670.116        0.765        0.357       57.916       42.274        0.533      337.459        9.447      855.192
12/16/2014  13:00:00        3.638       21.080       -2.794       29.553       59.137       47.357      873.393     3497.142     2242.680        0.354        0.331       21.392       40.872        3.650      337.233        9.069      855.205
12/16/2014  13:01:00       27.940       47.537       44.334       55.647       49.240       48.887     3096.543     2424.555     2389.972        0.646        0.396       55.139       38.768        0.494      337.501        9.518      855.187
12/16/2014  13:02:00      -11.696       41.485        2.133       36.033       26.777       36.045     1298.344      716.991     1299.235        0.259        0.166       43.102       29.053        0.454      337.448        9.428      855.177
12/16/2014  13:03:00       -8.550       49.504        8.752       29.216       46.448       21.643      853.588     2157.422      468.432        0.304        0.174       50.237       21.703        0.187      337.760        9.952      855.157
12/16/2014  13:04:00      -10.214       89.611      -14.394       33.210       44.992       24.726     1102.881     2024.310      611.395        0.604        0.187       90.191       20.787        0.053      337.490        9.499      855.140
12/16/2014  13:05:00      -92.487        4.302       -3.776       75.471       53.837       28.915     5695.946     2898.398      836.102        0.901        0.472       92.587       15.209        0.027      338.152       10.609      855.105
12/16/2014  13:06:00     -262.078     -132.943       -7.624      106.880       80.472       50.901    11423.318     6475.691     2590.867        5.345        1.024      293.869       41.954        0.020      337.535        9.570      855.066
12/16/2014  13:07:00     -159.910      -36.180      -15.574       95.254       60.660       37.100     9073.261     3679.619     1376.417        2.062        0.706      163.952       51.746        0.100      337.560        9.615      855.079
12/16/2014  13:08:00     -147.053     -142.557        7.089       72.218       74.008       48.418     5215.392     5477.161     2344.267        2.751        0.652      204.810       47.146        0.053      337.308        9.192      855.076
12/16/2014  13:09:00     -154.118     -211.197      -22.316       85.113      154.208       43.809     7244.150    23780.221     1919.246        5.089        1.647      261.451       35.323        0.018      337.195        9.004      855.088
12/16/2014  13:10:00     -175.270     -117.216      -12.321       73.645       66.681       35.537     5423.656     4446.316     1262.878        2.787        0.557      210.853       44.761        0.045      337.199        9.008      855.106
12/16/2014  13:11:00     -162.282     -167.908        0.305       90.456       87.072       50.042     8182.306     7581.599     2504.226        3.639        0.913      233.513       37.438        0.026      337.299        9.177      855.099
12/16/2014  13:12:00     -238.542     -251.427      -17.085       89.846      102.906       60.490     8072.299    10589.607     3659.016        7.136        1.116      346.581       50.806        0.021      337.123        8.882      855.098
12/16/2014  13:13:00     -320.665     -184.622      -25.416       71.612       64.836       40.925     5128.293     4203.693     1674.879        7.428        0.550      370.015       27.262        0.005      337.029        8.723      855.116
12/16/2014  13:14:00     -220.188      -76.740        2.763      122.355       77.293       41.472    14970.700     5974.193     1719.917        3.852        1.133      233.178       49.089        0.044      337.239        9.078      855.100
12/16/2014  13:15:00      -48.284      -83.251       17.308       96.473       89.474       52.854     9307.037     8005.606     2793.577        1.483        1.005       96.239       57.670        0.359      337.457        9.444      855.146
12/16/2014  13:16:00      -21.437       -8.994       30.241       73.448       91.871       54.358     5394.550     8440.201     2954.781        0.912        0.839       23.247       64.135        7.612      337.806       10.030      855.129
12/16/2014  13:17:00      -78.678     -131.555      -13.005       85.219       59.222       35.885     7262.313     3507.190     1287.705        1.786        0.603      153.287       35.085        0.052      337.269        9.128      855.121
12/16/2014  13:18:00     -133.661     -186.487        2.632      126.334       81.229       52.517    15960.317     6598.141     2758.057        3.898        1.266      229.440       56.653        0.061      337.357        9.273      855.100
12/16/2014  13:19:00     -107.626      -90.760       15.543      118.785       73.475       52.523    14109.758     5398.636     2758.677        2.116        1.113      140.786       55.912        0.158      337.649        9.765      855.081
12/16/2014  13:20:00     -113.909     -115.937       12.809       73.452       87.199       33.488     5395.171     7603.583     1121.427        2.035        0.706      162.532       35.791        0.048      337.506        9.525      855.090
12/16/2014  13:21:00     -153.568     -135.461      -15.887       90.971       72.388       45.311     8275.801     5240.090     2053.100        2.887        0.778      204.775       48.637        0.056      337.371        9.297      855.083
12/16/2014  13:22:00      -70.393      -77.532        2.199       73.749       65.996       31.172     5438.846     4355.424      971.705        1.087        0.538      104.721       15.416        0.022      337.754        9.941      855.087
12/16/2014  13:23:00      -54.936      -66.459       10.876       82.587       48.809       38.590     6820.653     2382.314     1489.180        0.912        0.535       86.225       37.081        0.185      337.847       10.097      855.089
12/16/2014  13:24:00      -99.365     -102.662       13.186       98.020       92.443       40.264     9607.926     8545.670     1621.196        2.018        0.989      142.874       40.576        0.081      337.578        9.646      855.084
12/16/2014  13:25:00     -133.942     -110.015       -5.719       69.658       55.810       35.682     4852.257     3114.803     1273.180        1.966        0.462      173.331       41.572        0.058      337.292        9.166      855.073
12/16/2014  13:26:00      -66.780      -74.562        8.045       44.697       46.494       26.315     1997.842     2161.699      692.505        0.747        0.243      100.095       24.408        0.059      337.208        9.028      855.078
12/16/2014  13:27:00      -63.350      -74.131       -0.171       71.423       53.033       38.284     5101.205     2812.544     1465.702        0.944        0.469       97.512       40.380        0.171      337.631        9.734      855.073
12/16/2014  13:28:00      -29.803      -61.939       -1.860       44.443       43.377       21.228     1975.146     1881.581      450.622        0.452        0.215       68.736       18.685        0.074      337.428        9.396      855.081
12/16/2014  13:29:00      -80.971      -70.926       -3.603       81.737       38.988       31.808     6680.990     1520.040     1011.779        1.040        0.461      107.642       16.545        0.024      337.537        9.576      855.086
12/16/2014  13:30:00      -49.030     -140.644       10.920       66.844       77.862       34.456     4468.112     6062.455     1187.196        1.701        0.586      148.945       32.694        0.048      337.423        9.386      855.079
12/16/2014  13:31:00     -122.524     -147.873        7.387       56.632       87.328       35.080     3207.141     7626.201     1230.606        2.450        0.603      192.038       35.969        0.035      337.387        9.325      855.050
12/16/2014  13:32:00      -33.464       -9.521       -2.349       35.951       45.854       24.057     1292.446     2102.559      578.716        0.259        0.199       34.792       23.578        0.459      337.614        9.707      855.035
12/16/2014  13:33:00      -22.040      -30.979        3.929       48.881       40.300       34.725     2389.328     1624.099     1205.820        0.334        0.261       38.020       18.538        0.238      338.057       10.450      855.023
12/16/2014  13:34:00      -45.842      -31.286       17.655       51.634       66.499       40.350     2666.115     4422.109     1628.088        0.605        0.436       55.500       45.196        0.663      337.888       10.167      855.010
12/16/2014  13:35:00      -98.156      -45.369       -1.269       50.718       59.016       33.399     2572.330     3482.923     1115.485        0.943        0.359      108.134       28.485        0.069      337.648        9.765      854.978
12/16/2014  13:36:00     -183.916      -40.055      -10.601       92.349       68.599       37.055     8528.367     4705.854     1373.089        2.507        0.730      188.227       33.908        0.032      337.469        9.461      854.976
12/16/2014  13:37:00      -64.163      -28.085       22.972       62.327       67.771       39.894     3884.683     4592.964     1591.549        0.775        0.503       70.040       37.360        0.285      337.875       10.145      854.960
12/16/2014  13:38:00     -126.416     -163.198       -5.337       77.135       73.634       41.758     5949.833     5421.985     1743.694        2.788        0.656      206.433       43.688        0.045      337.440        9.412      854.960
12/16/2014  13:39:00     -168.831     -128.975       -8.047       81.717       69.871       41.633     6677.674     4881.901     1733.321        2.925        0.665      212.458       45.929        0.047      337.288        9.157      854.959
12/16/2014  13:40:00     -106.416      -54.636        2.398       66.321       43.799       28.997     4398.505     1918.392      840.825        1.074        0.358      119.622       28.679        0.057      337.437        9.409      854.946
12/16/2014  13:41:00     -156.353      -33.025       10.536       93.492       60.434       44.350     8740.670     3652.277     1966.894        2.000        0.718      159.802       48.220        0.091      337.757        9.945      854.917
12/16/2014  13:42:00     -104.530      -39.221        7.531       76.307       54.099       38.535     5822.731     2926.749     1484.941        1.138        0.512      111.646       44.436        0.158      337.753        9.941      854.905
12/16/2014  13:43:00     -234.126     -135.292       -6.041      117.262       97.158       54.111    13750.310     9439.695     2927.950        4.963        1.306      270.405       52.421        0.038      337.398        9.341      854.883
12/16/2014  13:44:00     -267.411      -65.747      -14.528       80.159       68.547       43.969     6425.442     4698.697     1933.251        4.455        0.653      275.375       39.961        0.021      337.383        9.316      854.854
12/16/2014  13:45:00     -337.369     -123.226      -35.140       89.952       93.098       47.691     8091.436     8667.309     2274.406        7.463        0.952      359.169       34.635        0.009      337.221        9.045      854.833
12/16/2014  13:46:00      -70.426      -95.970       14.404       64.723       75.005       42.966     4189.104     5625.686     1846.037        1.302        0.583      119.038       48.429        0.166      337.452        9.435      854.846
12/16/2014  13:47:00      -55.346      -32.391       10.204       68.366       43.228       33.880     4673.880     1868.653     1147.867        0.595        0.385       64.128       38.621        0.363      337.598        9.681      854.845
12/16/2014  13:48:00     -161.873      -56.902      -11.497       64.718       89.588       41.376     4188.415     8026.070     1711.933        2.175        0.696      171.583       35.335        0.042      337.410        9.363      854.841
12/16/2014  13:49:00     -205.978      -60.405      -13.842       74.642       65.547       39.540     5571.498     4296.376     1563.416        2.885        0.572      214.653       27.698        0.017      337.362        9.282      854.831
12/16/2014  13:50:00     -162.175      -25.897       -8.447       87.334       69.770       35.246     7627.308     4867.830     1242.301        2.039        0.687      164.229       40.419        0.061      337.586        9.657      854.813
12/16/2014  13:51:00     -124.650      -24.198       -1.456      104.085       77.335       40.178    10833.712     5980.733     1614.301        1.727        0.921      126.977       32.415        0.065      337.874       10.141      854.782
12/16/2014  13:52:00     -257.475     -135.625       -8.923      104.632       59.304       51.919    10947.835     3517.004     2695.549        5.096        0.858      291.012       44.996        0.024      337.329        9.227      854.765
12/16/2014  13:53:00     -201.728     -140.403      -15.255       78.423       74.889       41.257     6150.162     5608.331     1702.140        3.705        0.673      245.779       38.787        0.025      337.293        9.167      854.763
12/16/2014  13:54:00     -164.306      -47.261      -14.570       64.041       58.164       30.769     4101.226     3383.029      946.751        1.893        0.422      170.968       24.166        0.020      337.443        9.419      854.762
12/16/2014  13:55:00     -212.792      -98.420       -1.824       84.133       66.022       41.518     7078.433     4358.949     1723.779        3.406        0.658      234.450       40.412        0.030      337.455        9.437      854.770
12/16/2014  13:56:00     -151.997      -95.394       -1.645       89.352       96.226       50.427     7983.743     9259.348     2542.852        2.599        0.989      179.452       45.353        0.064      337.631        9.734      854.786
12/16/2014  13:57:00     -189.887     -124.603      -21.841      107.497       63.481       36.681    11555.531     4029.809     1345.499        3.449        0.847      227.119       40.111        0.031      337.280        9.145      854.792
12/16/2014  13:58:00      -81.683     -227.607      -11.196       40.935       40.620       24.716     1675.700     1649.978      610.897        3.127        0.197      241.820       16.309        0.005      337.232        9.064      854.793
12/16/2014  13:59:00      -71.718      -60.219       -7.814       55.658       62.352       24.572     3097.828     3887.727      603.806        0.821        0.379       93.647       17.108        0.033      337.687        9.829      854.790
12/16/2014  14:00:00       -1.127      -16.966       10.669       42.203       40.648       34.909     1781.105     1652.293     1218.612        0.253        0.233       17.003       19.803        1.356      338.099       10.520      854.790
12/16/2014  14:01:00     -124.085     -109.704        8.942      101.404       94.411       53.529    10282.721     8913.450     2865.372        2.478        1.103      165.626       48.219        0.085      337.656        9.776      854.785
12/16/2014  14:02:00     -192.708     -123.212       14.440      118.997       85.557       62.024    14160.333     7319.994     3846.989        3.892        1.266      228.730       65.053        0.081      337.483        9.486      854.799
12/16/2014  14:03:00     -200.374     -161.836      -16.203       88.674       65.279       35.447     7863.031     4261.340     1256.505        3.999        0.669      257.567       39.435        0.023      337.329        9.226      854.828
12/16/2014  14:04:00     -108.160     -124.881        9.228       85.533       62.721       40.475     7315.911     3933.890     1638.233        2.013        0.644      165.209       46.659        0.080      337.435        9.407      854.846
12/16/2014  14:05:00     -169.854     -154.543        1.019      103.564       91.862       56.874    10725.535     8438.641     3234.652        3.756        1.120      229.638       64.377        0.079      337.630        9.730      854.851
12/16/2014  14:06:00     -120.048     -197.443       -2.296       81.769       60.933       34.458     6686.189     3712.786     1187.352        3.249        0.579      231.074       29.316        0.016      337.356        9.271      854.875
12/16/2014  14:07:00     -114.485     -141.737        1.539       79.879       82.983       42.021     6380.706     6886.166     1765.787        2.411        0.752      182.198       49.383        0.073      337.500        9.515      854.856
12/16/2014  14:08:00     -195.818     -136.288       -4.331       81.734       77.772       40.950     6680.368     6048.529     1676.935        3.567        0.720      238.577       47.099        0.039      337.455        9.436      854.836
12/16/2014  14:09:00      -25.521      -66.971       13.905       57.027       60.095       36.764     3252.088     3611.353     1351.592        0.677        0.411       71.669       26.685        0.139      337.765        9.960      854.843
12/16/2014  14:10:00       59.844     -143.619       -0.783       55.857      111.613       55.348     3119.994    12457.412     3063.365        2.142        0.932      155.588       52.683        0.115      337.629        9.731      854.849
12/16/2014  14:11:00       58.630       21.014       68.085       86.806       90.104       65.158     7535.245     8118.816     4245.590        1.420        0.995       62.282       71.410        1.315      337.741        9.920      854.846
12/16/2014  14:12:00       28.215       -7.267       77.025       48.767       98.091       65.278     2378.225     9621.937     4261.263        1.152        0.813       29.136       69.433        5.679      337.847       10.098      854.850
12/16/2014  14:13:00       76.365      -75.087        0.002       85.507       90.415       59.538     7311.396     8174.828     3544.825        1.525        0.952      107.097       62.337        0.339      337.639        9.748      854.862
12/16/2014  14:14:00      -63.183      -66.375       66.321       86.905      118.948       84.214     7552.481    14148.708     7092.035        2.079        1.440       91.639       86.463        0.890      337.895       10.177      854.840
12/16/2014  14:15:00      -71.509     -117.106      -17.124       61.838       66.873       40.302     3823.975     4472.018     1624.284        1.452        0.496      137.212       31.013        0.051      337.938       10.249      854.854
12/16/2014  14:16:00      -44.998     -154.699       -3.117       91.776       60.680       49.817     8422.867     3682.087     2481.714        2.027        0.729      161.111       24.727        0.024      337.749        9.932      854.850
12/16/2014  14:17:00      -42.188     -137.405      -21.922       77.592       85.462       48.676     6020.492     7303.790     2369.338        1.841        0.785      143.735       47.333        0.108      337.725        9.893      854.871
12/16/2014  14:18:00     -108.498     -188.282      -32.143      103.208       62.161       47.622    10651.962     3864.017     2267.843        3.252        0.839      217.306       39.088        0.032      337.574        9.637      854.902
12/16/2014  14:19:00      -99.465      -13.649        4.558       45.446       38.428       24.394     2065.309     1476.737      595.062        0.712        0.207      100.397       18.001        0.032      337.572        9.637      854.888
12/16/2014  14:20:00      -55.253       74.296       -7.691       38.638       67.308       25.767     1492.893     4530.389      663.938        0.766        0.334       92.590       24.226        0.068      337.755        9.943      854.854
12/16/2014  14:21:00     -111.944       27.858      -15.842       36.680       76.187       22.129     1345.440     5804.440      489.699        1.060        0.382      115.358       21.139        0.034      337.712        9.873      854.826
12/16/2014  14:22:00     -239.542      -55.399      -29.714       53.366       50.614       33.439     2847.900     2561.825     1118.142        3.393        0.326      245.865       26.669        0.012      337.336        9.238      854.799
12/16/2014  14:23:00      -74.286       -1.425      -10.735       71.678      114.148       43.868     5137.750    13029.707     1924.381        1.286        1.005       74.300       46.414        0.390      337.546        9.593      854.775
12/16/2014  14:24:00      -54.441       80.816        7.381       86.562      102.394       54.005     7492.907    10484.486     2916.519        1.522        1.045       97.442       41.646        0.183      337.876       10.145      854.774
12/16/2014  14:25:00      -99.427      -22.106       -3.940       48.308       49.757       28.518     2333.661     2475.790      813.265        0.801        0.281      101.855       22.894        0.051      337.484        9.490      854.763
12/16/2014  14:26:00      -78.313      -41.116       -2.350       67.080       35.171       26.204     4499.706     1236.999      686.659        0.712        0.321       88.450       25.072        0.080      337.519        9.548      854.750
12/16/2014  14:27:00       32.193       18.293       22.257       20.458       37.128       29.769      418.522     1378.522      886.197        0.227        0.134       37.027       24.948        0.454      337.626        9.726      854.742
12/16/2014  14:28:00        7.024      -48.409        7.919       36.969       44.290       23.549     1366.731     1961.638      554.548        0.317        0.194       48.916       22.400        0.210      337.511        9.534      854.754
12/16/2014  14:29:00      -17.803      -50.821       -1.094       32.003       27.719       30.033     1024.188      768.339      902.005        0.280        0.135       53.849       19.540        0.132      337.663        9.788      854.769
12/16/2014  14:30:00       52.069      -10.682       32.651       25.092       32.596       29.646      629.628     1062.492      878.903        0.323        0.129       53.153       22.619        0.181      337.694        9.841      854.765
12/16/2014  14:31:00      -10.609        0.248        3.911       23.749       24.920       17.759      564.001      621.013      315.366        0.081        0.075       10.612       13.735        1.675      337.830       10.068      854.742
12/16/2014  14:32:00       15.058       91.891       -6.483       34.276       66.091       22.322     1174.862     4368.003      498.268        0.738        0.302       93.116       17.770        0.036      337.664        9.790      854.728
12/16/2014  14:33:00      -84.777       36.636      -14.807       48.969       59.075       32.405     2397.924     3489.909     1050.079        0.784        0.347       92.355       20.617        0.050      337.993       10.342      854.710
12/16/2014  14:34:00      -88.123       55.791      -21.377       59.704       74.769       37.204     3564.581     5590.367     1384.124        1.094        0.527      104.299       31.163        0.089      337.584        9.656      854.700
12/16/2014  14:35:00      -45.593      204.432      -26.560       52.620       43.186       29.359     2768.887     1865.043      861.973        2.504        0.275      209.455       21.447        0.010      337.364        9.288      854.693
12/16/2014  14:36:00        0.382      107.706       -6.429       32.661       38.158       29.506     1066.740     1456.021      870.603        0.752        0.170      107.707       20.159        0.035      337.542        9.586      854.681
12/16/2014  14:37:00      -91.753       -2.062        8.960       58.616       63.402       37.813     3435.875     4019.866     1429.851        0.869        0.444       91.776       14.089        0.024      338.262       10.795      854.666
12/16/2014  14:38:00     -114.442      -30.467      -12.192       60.135       66.399       36.600     3616.251     4408.842     1339.585        1.177        0.468      118.429       21.953        0.034      337.762        9.955      854.668
12/16/2014  14:39:00      -54.678      -61.151        9.475       52.116       67.366       34.238     2716.118     4538.170     1172.258        0.762        0.421       82.031       27.773        0.115      337.735        9.910      854.666
12/16/2014  14:40:00      -76.779        4.327        2.006       90.012       38.935       28.434     8102.089     1515.937      808.501        0.817        0.521       76.901       40.242        0.274      337.635        9.743      854.666
12/16/2014  14:41:00      -56.689      -26.539        7.377       60.927       40.654       28.622     3712.138     1652.761      819.217        0.508        0.309       62.593       26.486        0.179      337.678        9.814      854.672
12/16/2014  14:42:00      -71.483      -10.884      -23.479       54.875       28.943       18.097     3011.319      837.685      327.497        0.498        0.209       72.307       19.712        0.074      337.259        9.114      854.678
12/16/2014  14:43:00      -32.482      -60.655        5.681       36.808       28.726       20.381     1354.864      825.204      415.386        0.368        0.130       68.805       17.996        0.068      337.411        9.366      854.676
12/16/2014  14:44:00       20.030      -35.607        4.263       27.102       27.576       19.829      734.522      760.461      393.185        0.179        0.094       40.854       19.344        0.224      337.396        9.342      854.686
12/16/2014  14:45:00       21.972       32.602       36.429       22.002       30.059       26.613      484.109      903.524      708.234        0.248        0.105       39.315       27.024        0.473      337.513        9.537      854.694
12/16/2014  14:46:00      -14.455      -22.251       47.982       31.947       82.442       49.146     1020.580     6796.724     2415.301        0.662        0.512       26.534       54.516        4.221      337.731        9.903      854.688
12/16/2014  14:47:00       20.087      -25.668        2.785       62.550       51.634       28.084     3912.487     2666.080      788.685        0.422        0.368       32.594       21.129        0.420      337.730        9.901      854.694
12/16/2014  14:48:00      -52.664       -9.027       -2.782       27.838       20.910       18.552      774.982      437.209      344.167        0.221        0.078       53.432       18.894        0.125      337.627        9.729      854.707
12/16/2014  14:49:00       33.051       14.245       28.874       31.731       23.932       30.987     1006.830      572.718      960.205        0.233        0.127       35.990       29.139        0.656      337.546        9.593      854.676
12/16/2014  14:50:00       12.432        3.669        3.014       11.837       11.961        8.768      140.120      143.062       76.877        0.027        0.018       12.962        5.404        0.174      337.602        9.688      854.652
12/16/2014  14:51:00        7.647      -42.771        5.247       36.765       25.497       22.911     1351.693      650.118      524.936        0.222        0.126       43.449       15.145        0.122      337.806       10.028      854.632
12/16/2014  14:52:00      -69.500      -66.639        3.662       55.640       55.568       35.272     3095.816     3087.770     1244.106        0.835        0.371       96.286       38.446        0.159      337.651        9.771      854.618
12/16/2014  14:53:00      -81.097     -183.107        4.014       32.102       55.746       27.247     1030.550     3107.618      742.410        2.250        0.244      200.262       10.709        0.003      337.371        9.299      854.621
12/16/2014  14:54:00      -40.984     -197.565       21.061      106.107      113.366       54.610    11258.693    12851.900     2982.274        3.412        1.355      201.771       55.200        0.075      337.523        9.553      854.596
12/16/2014  14:55:00     -151.247      -87.338       -7.764       93.313       83.921       55.803     8707.320     7042.810     3113.921        2.471        0.943      174.652       36.010        0.043      337.626        9.725      854.622
12/16/2014  14:56:00      -16.310      -22.298       31.814       64.851       51.845       31.180     4205.619     2687.884      972.164        0.482        0.393       27.626       35.367        1.639      337.668        9.796      854.665
12/16/2014  14:57:00      -55.292      -70.641        2.785       43.531       49.939       22.608     1894.931     2493.922      511.109        0.648        0.245       89.707       23.010        0.066      337.483        9.488      854.669
12/16/2014  14:58:00      -98.156     -144.914      -11.864       34.113       42.397       32.708     1163.681     1797.534     1069.842        1.740        0.202      175.028       27.859        0.025      337.228        9.060      854.668
12/16/2014  14:59:00     -102.898      -56.508       -0.719       38.870       35.154       22.365     1510.877     1235.818      500.193        0.851        0.162      117.393       23.554        0.040      337.381        9.316      854.641
12/16/2014  15:00:00      -32.167      -44.031       -4.691       39.705       29.312       24.758     1576.464      859.174      612.971        0.302        0.152       54.529       19.687        0.130      337.524        9.555      854.613
12/16/2014  15:01:00      -44.582      -26.988        1.685       49.914       18.742       13.685     2491.453      351.252      187.288        0.287        0.151       52.114       11.572        0.049      337.448        9.428      854.601
12/16/2014  15:02:00      -93.685      -30.416       -4.912       34.672       33.950       20.754     1202.170     1152.589      430.728        0.626        0.139       98.499       21.336        0.047      337.425        9.389      854.586
12/16/2014  15:03:00     -161.862      -82.682       -4.320       41.567       38.917       22.650     1727.848     1514.551      513.038        1.840        0.188      181.757       21.393        0.014      337.367        9.291      854.588
12/16/2014  15:04:00     -157.725      -15.651       -7.350       62.197       60.996       34.446     3868.430     3720.536     1186.509        1.697        0.439      158.500       36.769        0.054      337.411        9.365      854.597
12/16/2014  15:05:00     -167.546       -4.380        4.942       86.157       67.809       46.094     7423.000     4598.057     2124.677        2.113        0.707      167.603       48.224        0.083      337.484        9.487      854.579
12/16/2014  15:06:00     -186.852      -52.154      -13.573       62.872       62.383       39.707     3952.832     3891.661     1576.677        2.362        0.471      193.994       35.849        0.034      337.272        9.131      854.568
12/16/2014  15:07:00     -199.630      -86.429       -3.444       80.742       60.332       33.135     6519.218     3639.997     1097.907        2.929        0.563      217.537       41.104        0.036      337.264        9.117      854.564
12/16/2014  15:08:00     -207.770      -87.643       -7.163       54.014       46.206       32.927     2917.537     2135.020     1084.162        2.852        0.307      225.498       26.951        0.014      337.139        8.907      854.572
12/16/2014  15:09:00     -201.264      -86.786       -0.854       69.709       67.795       36.882     4859.336     4596.147     1360.277        2.943        0.541      219.178       30.261        0.019      337.191        8.995      854.581
12/16/2014  15:10:00     -184.406     -127.769        2.661       77.325       50.218       45.581     5979.085     2521.872     2077.629        3.046        0.529      224.345       46.508        0.043      337.152        8.928      854.580
12/16/2014  15:11:00     -130.808      -49.251       -6.539       70.219       46.239       28.466     4930.748     2138.026      810.309        1.373        0.394      139.773       30.325        0.047      337.296        9.173      854.580
12/16/2014  15:12:00     -143.667      -11.364        0.736       79.959       76.266       37.865     6393.390     5816.468     1433.791        1.720        0.682      144.116       31.993        0.049      337.423        9.387      854.587
12/16/2014  15:13:00     -196.093      -62.678       -1.917       86.667       61.759       32.332     7511.229     3814.233     1045.328        2.738        0.619      205.867       32.547        0.025      337.246        9.089      854.598
12/16/2014  15:14:00     -228.564      -26.801      -16.954       58.353       51.441       27.322     3405.110     2646.197      746.516        3.002        0.340      230.129       29.066        0.016      337.120        8.876      854.595
12/16/2014  15:15:00     -199.302      -20.417      -21.440       66.233       76.244       33.265     4386.862     5813.185     1106.590        2.595        0.565      200.345       28.529        0.020      337.448        9.426      854.582
12/16/2014  15:16:00     -235.062      -21.347      -20.861       40.904       47.791       28.690     1673.117     2283.986      823.110        3.046        0.239      236.029       18.924        0.006      337.301        9.179      854.585
12/16/2014  15:17:00     -184.911      -60.906      -24.847       76.437       66.267       43.176     5842.605     4391.364     1864.200        2.531        0.605      194.684       26.207        0.018      337.198        9.009      854.589
12/16/2014  15:18:00     -163.960      -58.009      -13.578       72.079       52.833       31.666     5195.344     2791.363     1002.761        1.971        0.449      173.919       25.301        0.021      337.173        8.965      854.593
12/16/2014  15:19:00     -176.844     -158.712       -7.199       76.810       95.615       41.978     5899.815     9142.290     1762.179        3.666        0.840      237.620       43.817        0.034      337.215        9.036      854.580
12/16/2014  15:20:00     -355.266     -210.262      -14.049      105.034      101.126       55.427    11032.181    10226.552     3072.204        9.747        1.217      412.825       49.792        0.015      337.156        8.937      854.578
12/16/2014  15:21:00     -212.120     -101.289        4.858      116.516       90.842       49.546    13576.076     8252.282     2454.764        3.978        1.214      235.062       57.120        0.059      337.233        9.066      854.611
12/16/2014  15:22:00     -132.319      -76.753       -3.335       77.713       57.741       35.593     6039.272     3334.038     1266.886        1.702        0.532      152.968       30.852        0.041      337.240        9.080      854.668
12/16/2014  15:23:00       20.726      -79.019        7.652       47.670       55.069       36.580     2272.412     3032.638     1338.127        0.669        0.332       81.692       25.473        0.097      337.395        9.339      854.693
12/16/2014  15:24:00      114.083      -97.844        7.384      102.744      106.691       75.110    10556.363    11382.918     5641.574        2.511        1.379      150.294       80.748        0.289      337.336        9.239      854.704
12/16/2014  15:25:00       75.341      -48.008       17.159       75.559       74.441       48.706     5709.206     5541.452     2372.320        1.095        0.681       89.337       52.330        0.343      337.274        9.139      854.724
12/16/2014  15:26:00      -24.284       -0.255       11.486       47.593       25.773       26.206     2265.096      664.255      686.775        0.217        0.181       24.285       18.004        0.550      337.389        9.329      854.727
12/16/2014  15:27:00      -28.632      -14.981        9.667       53.747       37.901       30.307     2888.721     1436.466      918.517        0.319        0.262       32.315       30.931        0.916      337.510        9.533      854.728
12/16/2014  15:28:00     -271.245      -18.779      -18.024       54.809       52.164       28.756     3004.045     2721.076      826.936        4.040        0.328      271.894       23.624        0.008      337.217        9.039      854.740
12/16/2014  15:29:00     -198.908      -90.151       -7.930       62.709       81.350       37.035     3932.437     6617.795     1371.598        2.984        0.596      218.384       38.777        0.032      337.157        8.937      854.759
12/16/2014  15:30:00     -214.086      -34.277       -4.279       82.363       66.119       40.691     6783.675     4371.718     1655.762        2.992        0.641      216.813       40.769        0.035      337.189        8.991      854.733
12/16/2014  15:31:00     -130.991      -42.008       -0.350       73.957       60.149       45.534     5469.677     3617.924     2073.357        1.504        0.558      137.562       43.489        0.100      337.510        9.530      854.725
12/16/2014  15:32:00     -162.656      -53.984        6.867       74.913       69.817       41.847     5611.971     4874.407     1751.206        2.083        0.612      171.381       43.650        0.065      337.208        9.024      854.748
12/16/2014  15:33:00     -234.114      -71.305       -8.902       50.945       51.159       30.574     2595.423     2617.220      934.747        3.306        0.307      244.732       16.618        0.005      337.135        8.900      854.750
12/16/2014  15:34:00     -165.094      -19.365       -4.624       92.548       57.631       40.837     8565.066     3321.377     1667.641        2.060        0.678      166.226       48.160        0.084      337.141        8.912      854.764
12/16/2014  15:35:00     -146.243      -55.350       -1.857       71.074       74.293       42.222     5051.530     5519.420     1782.693        1.840        0.618      156.367       45.417        0.084      337.131        8.895      854.767
12/16/2014  15:36:00     -117.545      -77.301        3.928       69.559       54.686       35.359     4838.394     2990.587     1250.280        1.444        0.454      140.685       31.077        0.049      337.088        8.824      854.765
12/16/2014  15:37:00     -129.355      -82.310      -11.239       83.843       55.532       33.497     7029.651     3083.792     1122.016        1.743        0.562      153.322       29.252        0.036      337.077        8.806      854.789
12/16/2014  15:38:00     -118.377      -33.670      -10.339       93.436       50.461       37.560     8730.285     2546.318     1410.756        1.397        0.634      123.073       32.261        0.069      337.014        8.700      854.797
12/16/2014  15:39:00     -177.910      -31.932       -4.390       69.093       41.865       36.223     4773.777     1752.687     1312.072        2.026        0.392      180.753       34.305        0.036      336.960        8.609      854.800
12/16/2014  15:40:00     -108.014      -66.699        0.476       61.416       40.100       29.445     3771.969     1608.041      866.988        1.118        0.312      126.948       28.215        0.049      336.979        8.642      854.807
12/16/2014  15:41:00      -76.075     -147.814       -3.506       49.662       44.460       32.212     2466.294     1976.664     1037.602        1.656        0.274      166.242       28.698        0.030      337.023        8.717      854.808
12/16/2014  15:42:00      -94.775     -126.178        1.051       53.045       78.752       29.579     2813.792     6201.886      874.909        1.740        0.495      157.808       27.898        0.031      337.049        8.761      854.830
12/16/2014  15:43:00     -115.512     -102.030       -7.367       67.293       57.491       30.808     4528.403     3305.246      949.125        1.629        0.439      154.121       31.650        0.042      337.057        8.772      854.835
12/16/2014  15:44:00     -132.047      -71.503        1.843       62.492       40.389       29.007     3905.219     1631.304      841.388        1.446        0.319      150.163       30.708        0.042      337.022        8.714      854.843
12/16/2014  15:45:00     -167.787      -74.076      -10.655       67.779       64.498       31.837     4594.005     4159.966     1013.614        2.176        0.488      183.412       28.992        0.025      337.030        8.727      854.836
12/16/2014  15:46:00     -178.003       10.397      -11.371       52.155       41.065       29.805     2720.117     1686.359      888.347        1.861        0.265      178.307       27.954        0.025      337.043        8.749      854.832
12/16/2014  15:47:00      -87.622      -42.578       -1.931       39.902       37.766       24.247     1592.180     1426.299      587.908        0.655        0.180       97.419       24.446        0.063      337.089        8.827      854.827
12/16/2014  15:48:00      -67.315      -16.115       -0.447       53.242       24.913       19.030     2834.679      620.656      362.127        0.430        0.191       69.217       23.700        0.117      337.033        8.734      854.825
12/16/2014  15:49:00     -105.970      -26.996       -5.380       64.952       55.746       30.289     4218.798     3107.614      917.436        1.011        0.412      109.354       27.900        0.065      337.141        8.915      854.835
12/16/2014  15:50:00     -134.842     -105.676        1.591      108.645       84.749       45.282    11803.665     7182.449     2050.441        2.519        1.052      171.318       51.836        0.092      337.089        8.825      854.843
12/16/2014  15:51:00     -161.256     -119.348       -1.961      112.134       98.021       48.464    12573.955     9608.025     2348.768        3.239        1.227      200.618       53.210        0.070      337.104        8.849      854.849
12/16/2014  15:52:00     -221.789      -60.644      -10.224       73.662       50.651       34.532     5426.150     2565.527     1192.448        3.108        0.459      229.931       30.202        0.017      337.106        8.851      854.868
12/16/2014  15:53:00     -191.188      -46.946      -10.380       70.018       60.274       32.374     4902.527     3632.922     1048.075        2.422        0.479      196.868       21.593        0.012      337.153        8.932      854.888
12/16/2014  15:54:00     -138.578      -17.557        6.285       70.440       72.413       29.094     4961.805     5243.648      846.436        1.530        0.553      139.686       23.828        0.029      337.162        8.948      854.913
12/16/2014  15:55:00     -182.399      -16.900       -5.536       64.489       48.802       35.185     4158.832     2381.659     1237.960        2.068        0.389      183.180       35.919        0.038      337.076        8.805      854.927
12/16/2014  15:56:00     -145.642      -41.542       -6.444       59.808       68.738       33.643     3577.038     4724.966     1131.819        1.620        0.472      151.451       37.439        0.061      337.221        9.047      854.939
12/16/2014  15:57:00     -143.207      -71.367       -1.339       80.143       53.826       30.797     6422.969     2897.211      948.471        1.793        0.513      160.005       26.451        0.027      337.114        8.867      854.938
12/16/2014  15:58:00     -164.461        1.028       -2.293       93.513       48.402       39.032     8744.633     2342.742     1523.536        1.983        0.631      164.464       47.468        0.083      337.211        9.031      854.945
12/16/2014  15:59:00     -108.770      -29.259       -4.281       48.171       48.851       27.154     2320.488     2386.427      737.314        0.907        0.272      112.637       27.550        0.060      337.239        9.079      854.941
12/16/2014  16:00:00     -130.009      -31.451       -2.544       68.380       71.075       36.136     4675.792     5051.701     1305.830        1.446        0.552      133.759       27.821        0.043      337.177        8.973      854.948
12/16/2014  16:01:00      -79.965      -29.169       -3.544       87.953       88.662       38.335     7735.671     7860.925     1469.562        1.216        0.853       85.119       41.247        0.235      337.032        8.732      854.953
12/16/2014  16:02:00     -155.868      -33.138       -1.351       76.896       80.247       42.791     5912.976     6439.587     1831.055        1.979        0.709      159.352       39.886        0.063      337.197        9.006      854.947
12/16/2014  16:03:00     -175.611      -43.115       -9.338       74.408       61.476       38.151     5536.498     3779.239     1455.507        2.178        0.539      180.827       43.367        0.058      337.015        8.702      854.971
12/16/2014  16:04:00     -199.776       -7.875      -11.317       85.795       63.531       42.354     7360.727     4036.129     1793.879        2.664        0.660      199.932       44.443        0.049      337.022        8.713      854.985
12/16/2014  16:05:00     -288.144      -29.732      -25.005      104.163       67.509       50.412    10849.844     4557.467     2541.368        5.124        0.897      289.674       54.518        0.035      336.764        8.281      854.985
12/16/2014  16:06:00     -213.664      -37.280       -8.067       69.745       89.467       41.562     4864.317     8004.349     1727.404        3.085        0.730      216.892       39.978        0.034      336.828        8.389      854.981
12/16/2014  16:07:00     -140.104      -58.002       -5.107       61.280       58.954       36.241     3755.183     3475.628     1313.390        1.578        0.427      151.635       31.354        0.043      336.703        8.183      854.984
12/16/2014  16:08:00     -203.681     -141.919       -0.033      142.248       84.717       58.356    20234.418     7176.961     3405.428        4.622        1.541      248.248       69.104        0.077      336.671        8.127      854.979
12/16/2014  16:09:00     -305.513      -26.942      -31.645      125.814       66.305       49.129    15829.132     4396.377     2413.706        5.885        1.132      306.699       59.834        0.038      336.624        8.048      854.982
12/16/2014  16:10:00      -75.143      -22.304        6.482       99.809       76.144       50.651     9961.935     5797.873     2565.485        1.225        0.916       78.383       57.857        0.545      336.680        8.144      854.968
12/16/2014  16:11:00     -255.093      -68.551      -10.333      113.261       78.488       48.651    12828.052     6160.323     2366.883        4.561        1.068      264.144       50.108        0.036      336.644        8.083      854.959
12/16/2014  16:12:00     -235.922      -68.730      -21.518       92.182       86.687       37.081     8497.529     7514.674     1375.028        3.911        0.869      245.729       45.717        0.035      336.547        7.921      854.927
12/16/2014  16:13:00      -79.375      -12.323        1.219       40.531       40.044       23.770     1642.802     1603.510      565.011        0.513        0.191       80.326       18.370        0.052      336.596        8.005      854.906
12/16/2014  16:14:00     -120.252      -55.135       -3.509       91.062       61.047       39.777     8292.360     3726.760     1582.195        1.555        0.680      132.289       43.301        0.107      336.579        7.975      854.885
12/16/2014  16:15:00      -83.607      -49.543        2.552       98.302       57.526       41.567     9663.262     3309.195     1727.801        1.207        0.735       97.183       47.004        0.234      336.556        7.937      854.870
12/16/2014  16:16:00     -217.389      -93.256       -5.636       91.544       81.759       45.802     8380.261     6684.540     2097.790        3.657        0.858      236.548       35.881        0.023      336.522        7.878      854.894
12/16/2014  16:17:00     -151.867      -12.109       -9.338       93.169       54.520       36.951     8680.538     2972.395     1365.391        1.816        0.651      152.349       39.429        0.067      336.686        8.153      854.915
12/16/2014  16:18:00     -120.853      -42.482        1.962       80.944       62.171       40.525     6551.890     3865.205     1642.277        1.423        0.603      128.102       37.899        0.088      336.641        8.080      854.929
12/16/2014  16:19:00     -131.788      -96.928        6.699      107.233       72.015       46.207    11498.873     5186.224     2135.045        2.281        0.941      163.595       53.048        0.105      336.540        7.910      854.933
12/16/2014  16:20:00      -98.094      -22.298       -3.748       66.181       62.303       32.163     4379.879     3881.620     1034.471        0.971        0.465      100.597       35.503        0.125      336.628        8.059      854.917
12/16/2014  16:21:00     -243.280      -62.612       -3.596      146.284       77.607       44.688    21399.074     6022.773     1996.992        4.626        1.471      251.208       56.039        0.050      336.522        7.877      854.898
12/16/2014  16:22:00     -117.395      -55.396       -1.893       54.493       45.435       26.993     2969.476     2064.329      728.601        1.131        0.288      129.809       21.470        0.027      336.467        7.787      854.884
12/16/2014  16:23:00     -154.103       17.630       -3.895      122.560       46.914       30.416    15021.028     2200.936      925.145        2.111        0.907      155.108       50.857        0.108      336.528        7.887      854.854
12/16/2014  16:24:00     -147.239      -64.719        7.406       78.736       67.151       32.113     6199.283     4509.308     1031.235        1.883        0.587      160.835       33.212        0.043      336.482        7.811      854.836
12/16/2014  16:25:00     -122.227       -2.748        6.533       92.865       78.976       48.859     8623.876     6237.250     2387.176        1.612        0.862      122.258       53.864        0.194      336.561        7.943      854.836
12/16/2014  16:26:00      -97.011      -52.515       -5.737       97.688       59.786       38.704     9542.894     3574.309     1498.025        1.341        0.731      110.313       38.648        0.123      336.409        7.690      854.837
12/16/2014  16:27:00     -103.036      -20.456       25.305      127.488       71.472       52.238    16253.124     5108.270     2728.761        1.788        1.205      105.047       59.971        0.326      336.385        7.648      854.874
12/16/2014  16:28:00     -133.590     -112.553       -7.654       76.549       49.456       28.512     5859.734     2445.885      812.934        1.984        0.456      174.684       11.109        0.004      336.410        7.690      854.919
12/16/2014  16:29:00     -105.162     -102.012        4.308       63.987       70.897       33.146     4094.379     5026.386     1098.649        1.585        0.511      146.511       37.074        0.064      336.427        7.719      854.961
12/16/2014  16:30:00      -43.472      -42.925        7.034       42.264       30.033       25.690     1786.281      901.953      659.959        0.356        0.167       61.093       12.090        0.039      336.456        7.770      854.993
12/16/2014  16:31:00      -47.096      -24.053       14.310       35.151       39.397       23.637     1235.580     1552.120      558.708        0.317        0.167       52.883       18.993        0.129      336.427        7.721      855.007
12/16/2014  16:32:00      -10.498      -68.654        1.514       42.576       48.788       34.046     1812.686     2380.257     1159.130        0.509        0.268       69.452       22.143        0.102      336.494        7.832      855.002
12/16/2014  16:33:00       66.302      -78.395       -7.751       48.228       44.996       31.297     2325.915     2024.599      979.509        0.796        0.267      102.673       34.071        0.110      336.506        7.855      854.996
12/16/2014  16:34:00      -12.276       25.139       45.051       16.550       29.671       19.077      273.896      880.383      363.915        0.216        0.076       27.976       16.923        0.366      336.414        7.698      855.002
12/16/2014  16:35:00      -30.541      -39.903       11.153       27.840       38.445       26.886      775.076     1478.021      722.863        0.281        0.149       50.249       27.037        0.290      336.680        8.144      855.007
12/16/2014  16:36:00      -20.057      -49.717       11.028       46.270       54.115       27.932     2140.907     2928.453      780.190        0.442        0.292       53.611       32.423        0.366      336.523        7.881      855.030
12/16/2014  16:37:00     -112.990     -120.751       -8.235       55.717       44.966       33.178     3104.411     2021.929     1100.786        1.682        0.311      165.371       28.873        0.030      336.504        7.851      855.052
12/16/2014  16:38:00     -132.716     -198.596      -16.854       74.853       85.916       42.071     5603.016     7381.568     1769.944        3.604        0.738      238.860       33.920        0.020      336.532        7.895      855.056
12/16/2014  16:39:00     -169.467      -95.432       -1.465       72.049       39.122       31.509     5191.089     1530.513      992.830        2.277        0.386      194.490       25.373        0.017      336.490        7.825      855.037
12/16/2014  16:40:00      -78.972      -42.413       -5.493       30.367       31.521       19.411      922.164      993.564      376.779        0.518        0.115       89.641       15.702        0.031      336.475        7.803      855.007
12/16/2014  16:41:00     -120.811      -58.474      -14.945       28.912       44.914       17.347      835.875     2017.230      300.907        1.070        0.158      134.218       17.964        0.018      336.557        7.939      854.983
12/16/2014  16:42:00      -92.897      -47.815       -4.195       41.319       52.100       21.881     1707.286     2714.384      478.772        0.792        0.245      104.480       18.150        0.030      336.508        7.857      854.957
12/16/2014  16:43:00     -113.376       -0.031       -9.332       52.732       47.601       21.106     2780.715     2265.812      445.459        0.922        0.275      113.376       23.692        0.044      336.680        8.144      854.935
12/16/2014  16:44:00      -89.285      -30.125       -8.282       25.428       18.458       11.491      646.577      340.697      132.038        0.503        0.056       94.230        6.806        0.005      336.474        7.798      854.894
12/16/2014  16:45:00      -20.254      -34.805        4.790       17.787       17.458       12.588      316.392      304.766      158.459        0.121        0.039       40.269       10.273        0.065      336.439        7.742      854.891
12/16/2014  16:46:00      -53.096      -54.799        6.333       45.734       35.078       27.421     2091.630     1230.475      751.902        0.497        0.204       76.303       26.728        0.123      336.436        7.735      854.886
12/16/2014  16:47:00     -124.992     -111.663      -13.195       46.013       36.887       34.579     2117.178     1360.626     1195.719        1.647        0.234      167.606       28.764        0.029      336.421        7.712      854.884
12/16/2014  16:48:00      -39.804      -66.014        4.659       53.728       42.606       22.713     2886.652     1815.246      515.902        0.559        0.261       77.086       23.999        0.097      336.372        7.629      854.884
12/16/2014  16:49:00      -84.626      -14.337       -7.097       42.826       39.912       23.651     1834.088     1592.972      559.369        0.570        0.199       85.832       23.904        0.078      336.462        7.781      854.890
12/16/2014  16:50:00     -102.901      -32.288       -5.283       55.089       19.899       19.287     3034.772      395.964      371.979        0.773        0.190      107.848       25.450        0.056      336.359        7.608      854.910
12/16/2014  16:51:00     -134.988      -40.121       -6.264       28.182       33.769       18.222      794.202     1140.339      332.042        1.107        0.113      140.824       15.478        0.012      336.335        7.566      854.908
12/16/2014  16:52:00     -132.137      -58.101       -3.849       22.977       27.312       19.042      527.961      745.971      362.587        1.124        0.082      144.347       11.017        0.006      336.326        7.553      854.910
12/16/2014  16:53:00     -138.249      -56.270      -12.767       24.778       30.309       16.805      613.946      918.625      282.422        1.213        0.091      149.262       12.444        0.007      336.275        7.467      854.918
12/16/2014  16:54:00     -103.819      -44.467       -9.773       27.970       31.822       19.666      782.298     1012.631      386.751        0.752        0.109      112.941       19.246        0.029      336.322        7.547      854.907
12/16/2014  16:55:00      -77.935      -26.792        1.406       25.398       28.238       16.460      645.039      797.374      270.943        0.425        0.086       82.412       10.333        0.016      336.394        7.666      854.897
12/16/2014  16:56:00      -68.051      -26.628       -7.291       30.078       28.949       16.789      904.683      838.067      281.875        0.371        0.101       73.075       11.482        0.025      336.440        7.743      854.903
12/16/2014  16:57:00     -121.333      -60.657      -14.106       57.576       34.013       25.228     3315.040     1156.911      636.438        1.185        0.255      135.650       17.969        0.018      336.302        7.512      854.922
12/16/2014  16:58:00      -88.730      -54.227       -2.302       47.966       31.830       21.646     2300.697     1013.125      468.539        0.730        0.189      103.988        6.337        0.004      336.319        7.542      854.937
12/16/2014  16:59:00     -102.416      -70.670        2.180       38.758       40.292       21.010     1502.218     1623.456      441.402        0.953        0.178      124.432       20.599        0.027      336.294        7.498      854.949
12/16/2014  17:00:00     -115.973      -42.956       -3.372       25.935       33.720       20.716      672.625     1137.033      429.150        0.877        0.112      123.673       17.808        0.021      336.264        7.451      854.961
12/16/2014  17:01:00     -106.484      -20.254       -3.233       26.404       21.756       15.986      697.186      473.306      255.555        0.659        0.071      108.393       10.600        0.010      336.287        7.486      854.974
12/16/2014  17:02:00      -71.306      -39.935       -2.910       41.662       22.161       13.306     1735.757      491.119      177.059        0.455        0.120       81.727       13.468        0.027      336.364        7.616      855.001
12/16/2014  17:03:00      -75.664      -70.320        2.169       51.308       42.122       27.264     2632.521     1774.271      743.329        0.791        0.258      103.295       22.463        0.047      336.342        7.579      855.009
12/16/2014  17:04:00     -140.670     -105.469        5.398       65.568       59.152       46.671     4299.172     3498.958     2178.192        2.046        0.499      175.818       43.263        0.061      336.385        7.650      855.018
12/16/2014  17:05:00     -161.591     -103.599        6.304       87.061       55.764       35.664     7579.681     3109.669     1271.887        2.442        0.598      191.949       42.921        0.050      336.416        7.701      855.026
12/16/2014  17:06:00     -114.654     -113.235       -3.847       69.487       58.111       39.915     4828.382     3376.933     1593.238        1.789        0.490      161.145       44.619        0.077      336.378        7.637      855.036
12/16/2014  17:07:00     -119.107      -75.518       -8.006       56.889       47.280       37.118     3236.318     2235.432     1377.762        1.340        0.342      141.030       33.717        0.057      336.330        7.558      855.035
12/16/2014  17:08:00     -124.412      -53.160      -10.371       36.769       26.310       18.015     1351.984      692.226      324.526        1.039        0.118      135.294       17.535        0.017      336.342        7.580      855.031
12/16/2014  17:09:00      -99.394      -37.934       -5.037       46.662       33.434       25.232     2177.335     1117.811      636.654        0.764        0.197      106.387       17.747        0.028      336.365        7.617      855.032
12/16/2014  17:10:00      -52.275      -28.072        7.893       32.804       27.808       23.726     1076.131      773.303      562.943        0.300        0.121       59.336       15.363        0.067      336.337        7.572      855.041
12/16/2014  17:11:00      -13.209      -30.672       20.835       41.604       24.701       28.387     1730.929      610.141      805.845        0.235        0.157       33.396       22.897        0.470      336.245        7.418      855.049
12/16/2014  17:12:00      -62.789      -29.341       -3.681       32.513       22.575       15.376     1057.107      509.644      236.416        0.331        0.090       69.306       17.302        0.062      336.305        7.517      855.047
12/16/2014  17:13:00      -71.646      -33.757       -2.303       20.319       19.021       16.272      412.850      361.788      264.785        0.366        0.052       79.201        8.881        0.013      336.248        7.421      855.056
12/16/2014  17:14:00      -85.390      -45.239       -6.238       29.443       26.006       14.451      866.871      676.313      208.835        0.556        0.088       96.634       13.134        0.018      336.210        7.359      855.070
12/16/2014  17:15:00      -90.570      -46.902      -10.347       26.865       43.528       16.286      721.710     1894.718      265.245        0.670        0.144      101.993       10.450        0.010      336.188        7.321      855.080
12/16/2014  17:16:00     -110.879       -0.812       -7.383       44.655       28.044       24.080     1994.113      786.486      579.846        0.785        0.168      110.882       26.816        0.058      336.213        7.365      855.087
12/16/2014  17:17:00     -120.675      -30.668       -5.691       30.838       36.352       20.235      950.958     1321.486      409.469        0.911        0.134      124.511       17.782        0.020      336.139        7.240      855.083
12/16/2014  17:18:00     -102.068      -40.222       -7.636       35.187       26.768       15.429     1238.124      716.518      238.045        0.714        0.110      109.707       15.156        0.019      336.034        7.062      855.075
12/16/2014  17:19:00      -28.825       -8.917        3.459       46.076       27.195       19.651     2123.041      739.584      386.150        0.208        0.162       30.173       24.092        0.638      336.009        7.022      855.063
12/16/2014  17:20:00      -98.541       15.423      -17.956       26.870       31.589       20.671      722.009      997.840      427.285        0.621        0.107       99.741       16.508        0.027      336.316        7.537      855.063
12/16/2014  17:21:00      -58.433       26.754      -10.772       35.218       23.852       20.147     1240.290      568.902      405.920        0.323        0.111       64.266       22.714        0.125      336.157        7.270      855.080
12/16/2014  17:22:00      -66.648      -20.258       -7.876       17.255       41.269       15.195      297.727     1703.104      230.892        0.357        0.112       69.659        8.341        0.014      336.194        7.331      855.094
12/16/2014  17:23:00      -64.686      -23.834       -2.233       18.424       10.890       13.651      339.433      118.600      186.355        0.270        0.032       68.937        4.861        0.005      336.229        7.390      855.126
12/16/2014  17:24:00      -62.413      -20.248       -2.392       29.298       27.081       15.803      858.393      733.391      249.739        0.308        0.092       65.615       12.482        0.036      336.261        7.444      855.152
12/16/2014  17:25:00      -72.150      -67.774       -4.698       33.312       20.146       12.351     1109.709      405.860      152.553        0.574        0.083       98.990        7.810        0.006      336.147        7.255      855.162
12/16/2014  17:26:00      -87.967      -76.527       -2.747       41.761       31.082       19.485     1743.959      966.075      379.648        0.835        0.154      116.596       11.327        0.009      336.097        7.171      855.178
12/16/2014  17:27:00      -74.144      -69.377       -4.941       45.083       29.567       26.093     2032.458      874.179      680.832        0.696        0.179      101.541       27.818        0.075      336.114        7.199      855.188
12/16/2014  17:28:00      -53.842      -31.336      -10.345       26.249       19.221       15.536      689.027      369.431      241.355        0.264        0.065       62.297       16.064        0.066      336.083        7.147      855.188
12/16/2014  17:29:00      -16.557      -31.484        3.076       14.223       29.025       14.766      202.289      842.476      218.026        0.127        0.063       35.572       16.831        0.224      336.096        7.168      855.179
12/16/2014  17:30:00      -23.212      -63.931       -0.240       24.729       19.929       21.366      611.519      397.172      456.496        0.305        0.073       68.014       18.614        0.075      336.142        7.244      855.172
12/16/2014  17:31:00      -45.377      -52.887       -0.235       14.564       26.214       15.636      212.110      687.170      244.484        0.300        0.057       69.686       11.487        0.027      336.113        7.196      855.150
12/16/2014  17:32:00      -69.154       -5.619       -7.867       31.831       22.323       18.368     1013.222      498.322      337.389        0.336        0.092       69.382       17.100        0.061      336.134        7.232      855.153
12/16/2014  17:33:00      -58.064       -6.495       -7.840       27.619       22.776       16.711      762.819      518.748      279.254        0.252        0.078       58.426       15.247        0.068      336.220        7.375      855.154
12/16/2014  17:34:00      -45.112        2.346        2.516       28.590       19.557       15.656      817.404      382.475      245.104        0.175        0.072       45.173       15.734        0.121      336.276        7.469      855.149
12/16/2014  17:35:00      -65.450      -15.731       -3.920       31.438       26.396       16.901      988.356      696.758      285.651        0.326        0.099       67.314       19.799        0.087      336.092        7.162      855.159
12/16/2014  17:36:00     -104.457      -12.575      -14.905       18.334       15.369       13.125      336.143      236.214      172.254        0.602        0.037      105.212       10.103        0.009      336.137        7.236      855.154
12/16/2014  17:37:00      -45.177      -26.752       -1.697       21.417       13.989        9.790      458.671      195.684       95.847        0.175        0.038       52.503       10.307        0.039      336.053        7.095      855.153
12/16/2014  17:38:00      -75.311      -16.847       -6.218       20.033       19.412       12.271      401.322      376.819      150.586        0.346        0.046       77.173        9.823        0.016      336.112        7.194      855.162
12/16/2014  17:39:00      -63.516      -12.938       -2.229       31.272       18.273       15.803      977.967      333.918      249.744        0.288        0.078       64.820       17.533        0.073      336.134        7.231      855.168
12/16/2014  17:40:00      -33.008       -3.022        2.477       25.017       16.519       13.182      625.843      272.875      173.778        0.109        0.054       33.146       16.155        0.238      336.073        7.129      855.179
12/16/2014  17:41:00       20.910       20.461        8.036       18.447       25.749       15.660      340.303      663.005      245.246        0.108        0.062       29.255       12.407        0.180      335.946        6.920      855.193
12/16/2014  17:42:00       11.918       17.694       -8.288       13.811       13.278        8.288      190.753      176.310       68.688        0.048        0.022       21.333        6.420        0.091      335.802        6.680      855.207
12/16/2014  17:43:00      -35.603        1.161       -8.983       27.531        8.903       10.731      757.960       79.255      115.160        0.115        0.048       35.622       12.736        0.128      335.939        6.907      855.200
12/16/2014  17:44:00      -82.180       -5.402       -7.958       12.506       13.384        9.182      156.396      179.125       84.316        0.363        0.021       82.358        7.629        0.009      336.079        7.141      855.192
12/16/2014  17:45:00      -75.064      -25.644       -6.935       11.128        8.371        5.862      123.839       70.080       34.368        0.328        0.011       79.324        4.624        0.003      336.059        7.106      855.185
12/16/2014  17:46:00      -39.629      -19.463      -10.838       21.167       23.673       10.396      448.047      560.430      108.067        0.159        0.056       44.151       12.428        0.079      336.010        7.023      855.166
12/16/2014  17:47:00      -37.162      -24.883      -10.450       14.873       15.659        9.140      221.213      245.202       83.535        0.133        0.027       44.723        6.247        0.020      336.109        7.189      855.149
12/16/2014  17:48:00      -34.853      -30.877       -8.080        8.892        8.821        6.687       79.067       77.814       44.722        0.122        0.010       46.563        6.839        0.022      336.146        7.251      855.156
12/16/2014  17:49:00       -4.057      -53.686       -6.918       16.930       17.557       13.177      286.613      308.253      173.639        0.186        0.038       53.840        7.550        0.020      336.202        7.345      855.173
12/16/2014  17:50:00      -19.241      -40.800       -0.082       25.320       20.001       14.477      641.105      400.035      209.570        0.164        0.063       45.109       14.428        0.102      336.168        7.287      855.174
12/16/2014  17:51:00      -25.596      -21.114        3.525       35.634       23.043       17.360     1269.764      530.966      301.362        0.161        0.105       33.180       13.306        0.161      335.970        6.959      855.172
12/16/2014  17:52:00        5.136       -9.245        3.131        9.514       15.956        9.107       90.507      254.591       82.934        0.027        0.021       10.576        4.830        0.209      336.065        7.115      855.166
12/16/2014  17:53:00       34.052       29.907       12.229        9.520       11.355        8.140       90.635      128.927       66.259        0.124        0.014       45.321        5.921        0.017      335.976        6.969      855.150
12/16/2014  17:54:00       39.508       43.937      -10.320       14.692       16.510       14.876      215.866      272.573      221.303        0.215        0.035       59.088       12.044        0.042      335.791        6.662      855.139
12/16/2014  17:55:00       83.492       34.026       -5.250       34.463       35.272       18.098     1187.701     1244.091      327.527        0.546        0.138       90.159       11.879        0.017      335.641        6.410      855.135
12/16/2014  17:56:00       36.568       42.199       41.973       27.131       27.888       28.052      736.088      777.768      786.921        0.359        0.115       55.839       18.283        0.107      335.489        6.156      855.163
12/16/2014  17:57:00       31.314       19.257       38.868       28.548       24.237       20.937      814.966      587.447      438.350        0.235        0.092       36.761       14.729        0.161      335.489        6.156      855.177
12/16/2014  17:58:00       72.865       38.971       10.098       27.841       26.617       20.112      775.122      708.471      404.507        0.441        0.094       82.632       12.517        0.023      335.554        6.265      855.156
12/16/2014  17:59:00       74.108       39.901       14.724       41.091       22.446       22.592     1688.499      503.831      510.387        0.500        0.135       84.167       18.593        0.049      335.459        6.106      855.135
12/16/2014  18:00:00      119.831       62.489        8.618       31.231       24.454       23.434      975.384      598.018      549.153        1.023        0.106      135.146       13.156        0.009      335.548        6.254      855.136
12/16/2014  18:01:00      105.947       55.936        5.189       24.480       20.451       19.483      599.264      418.223      379.583        0.789        0.070      119.807       11.550        0.009      335.609        6.356      855.153
12/16/2014  18:02:00       90.965       70.238       23.751       26.445       25.423       33.059      699.341      646.317     1092.869        0.810        0.122      114.926       19.253        0.028      335.724        6.547      855.166
12/16/2014  18:03:00       99.559       48.347       28.145       29.694       22.539       28.313      881.711      507.998      801.642        0.762        0.110      110.677       21.635        0.038      335.659        6.441      855.174
12/16/2014  18:04:00      104.802       48.781        9.373       22.863       24.124       20.612      522.720      581.980      424.869        0.749        0.076      115.599       13.972        0.015      335.550        6.259      855.179
12/16/2014  18:05:00       53.218       34.480       16.879       32.232       27.286       25.347     1038.885      744.537      642.467        0.337        0.121       63.412       21.044        0.110      335.400        6.009      855.179
12/16/2014  18:06:00       45.083       27.554       -3.811       26.234       18.040       15.092      688.243      325.457      227.754        0.202        0.062       52.836       10.511        0.040      335.395        5.998      855.179
12/16/2014  18:07:00       50.888       31.928        9.036       27.979       16.012       19.292      782.807      256.392      372.197        0.255        0.071       60.075       13.531        0.051      335.579        6.309      855.182
12/16/2014  18:08:00       57.505       28.763        3.797       26.143       18.205       16.850      683.458      331.435      283.933        0.272        0.065       64.297        8.891        0.019      335.596        6.335      855.206
12/16/2014  18:09:00       50.072       29.747        9.113       20.353       16.233       14.411      414.233      263.494      207.679        0.218        0.044       58.242       10.847        0.035      335.528        6.221      855.215
12/16/2014  18:10:00       43.240       28.691        3.153       26.812       15.181       10.120      718.875      230.467      102.420        0.188        0.053       51.893        4.495        0.008      335.505        6.185      855.212
12/16/2014  18:11:00       51.844       37.757       12.117       20.308       12.715       13.975      412.408      161.660      195.295        0.251        0.038       64.135        9.008        0.020      335.617        6.369      855.215
12/16/2014  18:12:00       51.138       32.234       10.931       23.660       19.703       18.285      559.779      388.222      334.352        0.253        0.064       60.449       13.830        0.052      335.573        6.297      855.209
12/16/2014  18:13:00       38.273       37.865        0.340       20.582       21.714       14.866      423.599      471.507      220.994        0.201        0.056       53.839       10.095        0.035      335.611        6.360      855.199
12/16/2014  18:14:00       56.538       43.017        3.895       15.317       14.788       10.769      234.599      218.685      115.966        0.282        0.028       71.042        8.766        0.015      335.641        6.410      855.210
12/16/2014  18:15:00       41.480       38.850        4.024       20.598       16.373       16.535      424.281      268.074      273.399        0.211        0.048       56.832       10.143        0.032      335.602        6.345      855.214
12/16/2014  18:16:00       -9.845       26.119       -6.951       19.605       13.975        6.876      384.349      195.314       47.281        0.073        0.031       27.913        7.143        0.065      335.611        6.361      855.223
12/16/2014  18:17:00      -63.517        3.659      -14.338       25.040       12.175        9.672      626.995      148.221       93.538        0.256        0.043       63.622        7.586        0.014      335.183        5.649      855.227
12/16/2014  18:18:00      -25.160       27.155      -10.439       28.347       21.287       11.308      803.552      453.134      127.867        0.143        0.069       37.019       10.344        0.078      335.556        6.269      855.227
12/16/2014  18:19:00       -0.241       55.289      -10.005       26.793       19.510       12.315      717.886      380.627      151.671        0.220        0.063       55.290       13.067        0.056      335.663        6.447      855.214
12/16/2014  18:20:00        8.975       65.876       -6.731       22.207       26.126       15.772      493.137      682.578      248.745        0.294        0.071       66.485       14.235        0.046      335.692        6.494      855.202
12/16/2014  18:21:00        3.623       65.804      -13.988       17.895       30.927       11.786      320.238      956.491      138.913        0.298        0.071       65.903       10.720        0.026      335.744        6.583      855.200
12/16/2014  18:22:00        1.767       11.093       13.993       15.119       31.431       15.505      228.598      987.930      240.399        0.089        0.073       11.233       15.262        1.846      335.529        6.223      855.198
12/16/2014  18:23:00      -72.985      -24.854      -11.569       30.485       19.824       13.808      929.349      392.999      190.674        0.380        0.076       77.101        6.150        0.006      335.046        5.419      855.199
12/16/2014  18:24:00     -133.520      -43.659       -9.159       26.409       25.056       15.608      697.410      627.819      243.613        1.069        0.078      140.477       13.717        0.010      334.846        5.088      855.216
12/16/2014  18:25:00     -125.355      -44.568      -10.536       20.813       22.481       15.544      433.181      505.392      241.603        0.950        0.059      133.042       12.936        0.009      334.825        5.052      855.225
12/16/2014  18:26:00     -127.046       -8.554       -5.523       47.066       32.997       22.803     2215.248     1088.826      519.966        1.003        0.191      127.334       22.893        0.032      334.840        5.078      855.225
12/16/2014  18:27:00     -142.727      -29.365       -7.572       33.282       30.389       21.606     1107.710      923.470      466.821        1.189        0.125      145.716       20.476        0.020      334.781        4.979      855.232
12/16/2014  18:28:00     -156.154      -23.563      -16.759       32.773       22.926       19.844     1074.070      525.615      393.802        1.361        0.100      157.922       17.777        0.013      334.792        4.998      855.242
12/16/2014  18:29:00     -142.138      -22.485      -17.704       26.668       19.996       16.516      711.172      399.829      272.779        1.120        0.069      143.905       13.522        0.009      334.665        4.787      855.261
12/16/2014  18:30:00     -121.952        1.097      -12.730       36.169       31.110       18.590     1308.188      967.821      345.574        0.883        0.131      121.957       17.950        0.022      334.555        4.604      855.268
12/16/2014  18:31:00      -81.784        8.515        1.731       51.675       33.649       25.691     2670.256     1132.229      660.022        0.561        0.223       82.226       25.612        0.097      334.846        5.089      855.274
12/16/2014  18:32:00      -92.240        4.911       -5.077       50.680       38.935       26.210     2568.502     1515.949      686.965        0.666        0.239       92.371       27.125        0.086      334.994        5.334      855.297
12/16/2014  18:33:00      -69.453       -2.535        0.076       43.975       30.944       22.972     1933.786      957.515      527.694        0.412        0.171       69.500       22.564        0.105      334.736        4.904      855.304
12/16/2014  18:34:00      -62.814      -10.022        2.153       35.097       35.703       24.152     1231.814     1274.676      583.309        0.357        0.154       63.609       15.268        0.058      334.686        4.822      855.304
12/16/2014  18:35:00      -88.412       -8.230       -7.581       36.870       40.627       18.468     1359.432     1650.565      341.080        0.565        0.168       88.794       12.982        0.021      334.651        4.765      855.318
12/16/2014  18:36:00     -111.080      -18.305       -7.591       39.643       26.057       21.665     1571.589      678.976      469.384        0.773        0.136      112.578       22.091        0.039      334.624        4.719      855.336
12/16/2014  18:37:00      -80.915        2.396       -3.799       35.867       28.458       22.315     1286.417      809.883      497.969        0.458        0.130       80.950       19.245        0.057      334.614        4.701      855.337
12/16/2014  18:38:00      -75.054       -1.852       -7.837       36.701       26.214       16.674     1346.987      687.148      278.018        0.400        0.116       75.077       13.772        0.034      334.654        4.769      855.336
12/16/2014  18:39:00       13.078       -8.247        7.943       18.381       16.843       17.281      337.853      283.702      298.645        0.061        0.046       15.461       11.186        0.523      334.744        4.918      855.342
12/16/2014  18:40:00       -5.386       -9.992        2.713       20.246       21.539       14.905      409.912      463.922      222.151        0.062        0.055       11.351       11.771        1.075      334.831        5.062      855.326
12/16/2014  18:41:00      -10.502      -13.805        0.116       25.729       19.532       14.042      661.987      381.508      197.174        0.077        0.062       17.346       11.165        0.414      334.768        4.957      855.309
12/16/2014  18:42:00      -27.902      -13.535       -9.743       19.242       13.117       10.344      370.270      172.046      107.003        0.085        0.032       31.012        4.699        0.023      334.727        4.892      855.300
12/16/2014  18:43:00      -39.508      -24.607      -13.136       15.394       10.832        8.371      236.976      117.334       70.082        0.138        0.021       46.545        5.730        0.015      334.792        4.999      855.290
12/16/2014  18:44:00      -29.815      -33.246      -10.329       16.057       12.095        9.852      257.829      146.294       97.070        0.130        0.025       44.657        4.243        0.009      334.859        5.111      855.269
12/16/2014  18:45:00      -55.689      -38.507       -9.493       10.893       13.055        9.246      118.665      170.439       85.481        0.252        0.019       67.706        4.546        0.005      334.911        5.197      855.258
12/16/2014  18:46:00      -69.656      -27.977      -15.939       15.794        8.825        9.135      249.465       77.880       83.446        0.315        0.021       75.064        9.460        0.016      335.090        5.494      855.263
12/16/2014  18:47:00      -81.256      -24.529      -17.168       11.243       10.748        9.018      126.401      115.522       81.328        0.391        0.016       84.878        5.916        0.005      334.885        5.154      855.250
12/16/2014  18:48:00      -65.639      -24.256      -14.302       11.197       10.446        9.031      125.370      109.122       81.562        0.271        0.016       69.977        7.008        0.010      334.842        5.083      855.229
12/16/2014  18:49:00      -24.637      -20.380      -11.174       13.040        9.818        8.141      170.050       96.392       66.270        0.074        0.017       31.974        5.704        0.032      335.232        5.728      855.219
12/16/2014  18:50:00       17.686       23.935       -1.084       10.283       13.146        8.232      105.746      172.816       67.770        0.062        0.017       29.760        4.979        0.028      335.483        6.147      855.213
12/16/2014  18:51:00       26.308       39.507       -3.470       12.273       12.836        9.219      150.619      164.753       84.988        0.133        0.020       47.465        7.252        0.023      335.669        6.459      855.203
12/16/2014  18:52:00       20.008        2.988       -4.048       10.839       15.409        6.777      117.478      237.435       45.928        0.041        0.020       20.230        7.199        0.127      335.545        6.250      855.191
12/16/2014  18:53:00       15.431       12.195        3.918        6.957        5.377        6.304       48.406       28.912       39.738        0.026        0.006       19.668        4.165        0.045      335.281        5.811      855.194
12/16/2014  18:54:00        9.472        4.774       13.230        8.980        8.970        9.339       80.644       80.456       87.208        0.027        0.012       10.607        6.532        0.379      335.124        5.550      855.223
12/16/2014  18:55:00       -4.827      -28.318        3.326       10.103       14.393        9.480      102.074      207.155       89.863        0.062        0.020       28.727        6.521        0.052      334.922        5.215      855.253
12/16/2014  18:56:00       25.141       19.660       15.385       23.526       15.052       11.329      553.465      226.569      128.337        0.108        0.045       31.916       14.145        0.196      334.872        5.130      855.259
12/16/2014  18:57:00       40.337       24.587        4.358        9.453       13.168       13.752       89.354      173.397      189.123        0.135        0.023       47.240        6.165        0.017      334.788        4.993      855.255
12/16/2014  18:58:00       29.915       34.937       -1.136       16.330       14.920       10.296      266.660      222.612      106.005        0.136        0.030       45.995        6.487        0.020      334.595        4.670      855.242
12/16/2014  18:59:00       19.335       43.334       -8.497       20.782       18.015       11.777      431.898      324.543      138.701        0.161        0.045       47.452        9.976        0.044      334.511        4.531      855.235
12/16/2014  19:00:00       21.265       75.880      -10.228       19.763       40.952       14.270      390.579     1677.045      203.641        0.429        0.114       78.803       17.129        0.047      334.725        4.889      855.221
12/16/2014  19:01:00        3.433      144.231      -18.616       11.348       23.265        6.980      128.778      541.265       48.719        1.094        0.036      144.272        8.318        0.003      335.011        5.360      855.207
12/16/2014  19:02:00        7.983      164.536      -25.500       12.185       16.080        6.954      148.463      258.567       48.351        1.412        0.023      164.729        4.109        0.001      335.251        5.761      855.187
12/16/2014  19:03:00       32.490      133.544      -27.289       19.946       35.981       22.589      397.837     1294.654      510.267        1.092        0.110      137.439       20.589        0.022      335.282        5.812      855.163
12/16/2014  19:04:00       17.742       80.766        0.647       30.785       45.629       26.905      947.734     2081.981      723.888        0.530        0.188       82.692       24.299        0.086      335.205        5.684      855.138
12/16/2014  19:05:00       31.107       58.690       -6.207       30.874       32.001       22.851      953.199     1024.043      522.158        0.347        0.125       66.424       20.595        0.096      335.215        5.701      855.121
12/16/2014  19:06:00       31.885       55.649       -3.496       31.760       34.892       23.986     1008.685     1217.430      575.331        0.346        0.140       64.137       22.450        0.123      335.132        5.562      855.104
12/16/2014  19:07:00       44.426       39.070       11.784       37.511       29.663       25.512     1407.054      879.888      650.886        0.329        0.147       59.162       20.209        0.117      335.089        5.491      855.082
12/16/2014  19:08:00       68.319       49.635       12.702       44.364       23.337       27.382     1968.142      544.625      749.751        0.528        0.163       84.446       17.472        0.043      335.095        5.502      855.071
12/16/2014  19:09:00       77.824       49.934        9.976       17.193       13.913       15.248      295.615      193.560      232.511        0.469        0.036       92.466       10.736        0.013      335.021        5.380      855.069
12/16/2014  19:10:00       88.817       69.215        8.934       27.698       23.882       19.152      767.177      570.349      366.818        0.723        0.085      112.602        7.060        0.004      335.103        5.514      855.073
12/16/2014  19:11:00       81.558       59.437       14.330       32.396       24.656       21.130     1049.493      607.906      446.470        0.625        0.105      100.918       15.455        0.023      335.151        5.594      855.070
12/16/2014  19:12:00       86.261       57.632        5.736       28.360       28.639       21.787      804.302      820.198      474.681        0.645        0.105      103.742       16.650        0.026      335.176        5.635      855.077
12/16/2014  19:13:00       95.581       48.591       16.121       24.946       17.911       18.542      622.321      320.812      343.807        0.652        0.064      107.224       10.714        0.010      335.199        5.672      855.100
12/16/2014  19:14:00      125.820       79.524       27.881       27.842       31.346       19.759      775.181      982.582      390.398        1.254        0.107      148.845        9.600        0.004      335.316        5.869      855.128
12/16/2014  19:15:00       83.929       55.071       27.527       35.268       24.732       20.926     1243.822      611.666      437.891        0.656        0.115      100.384        8.497        0.007      335.202        5.679      855.155
12/16/2014  19:16:00       65.462       36.683       27.059       25.609       27.938       18.019      655.833      780.524      324.697        0.406        0.088       75.039        9.819        0.017      335.104        5.517      855.176
12/16/2014  19:17:00       73.670       39.583       12.086       31.819       21.454       17.007     1012.451      460.258      289.250        0.445        0.088       83.631        9.195        0.012      335.135        5.568      855.178
12/16/2014  19:18:00       56.273       24.586       16.559       21.633       17.061       17.508      467.996      291.070      306.528        0.256        0.053       61.410       13.173        0.046      335.096        5.503      855.178
12/16/2014  19:19:00       67.477       33.606       25.271       12.607       14.259       15.130      158.924      203.322      228.916        0.346        0.030       75.382        7.149        0.009      335.117        5.539      855.178
12/16/2014  19:20:00       58.932       28.941       16.276       17.192       14.612       18.576      295.560      213.515      345.051        0.271        0.043       65.655        7.857        0.014      335.107        5.522      855.175
12/16/2014  19:21:00       71.761       31.994       22.781       28.160       18.358       18.393      792.976      337.028      338.287        0.408        0.073       78.570       13.313        0.029      335.134        5.566      855.158
12/16/2014  19:22:00       66.502       40.739       27.827       29.209       23.075       20.138      853.168      532.438      405.524        0.432        0.090       77.988       16.250        0.043      335.110        5.528      855.145
12/16/2014  19:23:00       61.620       34.873       18.656       21.738       19.739       19.105      472.554      389.613      365.017        0.329        0.061       70.803       14.449        0.042      335.082        5.481      855.144
12/16/2014  19:24:00       45.587       21.020        9.912       21.219       20.055       15.040      450.252      402.195      226.205        0.185        0.054       50.199       11.644        0.054      335.128        5.555      855.154
12/16/2014  19:25:00       31.379       30.444       15.911       24.918       22.995        9.761      620.901      528.771       95.270        0.170        0.062       43.721       10.295        0.055      335.064        5.450      855.159
12/16/2014  19:26:00      -17.309      -14.272       -2.984       15.522       12.244       10.029      240.932      149.916      100.585        0.050        0.025       22.434        8.561        0.146      334.990        5.326      855.174
12/16/2014  19:27:00        6.290       13.173       10.305       14.675        8.918        7.485      215.344       79.524       56.027        0.034        0.018       14.598        5.508        0.142      334.981        5.312      855.178
12/16/2014  19:28:00       29.073       24.649        5.866       23.679       20.408       15.548      560.686      416.475      241.755        0.135        0.061       38.116       13.256        0.121      335.086        5.486      855.177
12/16/2014  19:29:00       33.883       66.923      -12.140       19.180       27.866       15.078      367.861      776.501      227.349        0.357        0.069       75.012       11.010        0.022      335.074        5.468      855.175
12/16/2014  19:30:00       11.272       84.529      -16.224       16.833       17.549        9.103      283.367      307.977       82.867        0.410        0.034       85.278        4.193        0.002      335.141        5.578      855.167
12/16/2014  19:31:00        2.812       77.164      -15.222       12.061       15.655        7.599      145.475      245.079       57.749        0.332        0.022       77.216        6.661        0.007      335.235        5.733      855.156
12/16/2014  19:32:00       10.128       74.906      -13.426       15.060       15.705        9.871      226.810      246.636       97.429        0.323        0.029       75.587        8.200        0.012      335.264        5.781      855.153
12/16/2014  19:33:00       12.973       60.897      -12.027       10.515       15.539        6.758      110.561      241.454       45.672        0.221        0.020       62.263        7.313        0.014      335.409        6.024      855.151
12/16/2014  19:34:00       38.794       26.604        8.258       17.891       11.569       14.886      320.080      133.852      221.587        0.148        0.034       47.040       11.665        0.061      335.357        5.935      855.153
12/16/2014  19:35:00       35.722       15.642       -0.129       15.476       16.002        6.568      239.521      256.079       43.134        0.103        0.027       38.996        5.603        0.021      335.352        5.928      855.168
12/16/2014  19:36:00       19.113       18.364        0.997       10.757       12.047        9.386      115.710      145.131       88.090        0.053        0.017       26.506        7.367        0.077      335.287        5.821      855.183
12/16/2014  19:37:00       16.922       28.444       -4.461        9.298       10.728        6.564       86.452      115.092       43.089        0.068        0.012       33.098        4.024        0.015      335.260        5.774      855.189
12/16/2014  19:38:00       25.686       29.436       -3.533        9.563       13.223        8.385       91.443      174.851       70.314        0.094        0.017       39.068        7.749        0.039      335.239        5.737      855.197
12/16/2014  19:39:00       31.288       45.054       -2.420        8.088        7.148        5.620       65.412       51.093       31.588        0.158        0.007       54.853        2.962        0.003      335.308        5.854      855.198
12/16/2014  19:40:00       40.607       32.014        3.846       18.899       13.772        9.838      357.157      189.681       96.786        0.167        0.032       51.709        9.014        0.030      335.169        5.624      855.189
12/16/2014  19:41:00       36.151       56.142       -6.781       19.530       29.027       15.757      381.440      842.571      248.277        0.299        0.074       66.775       13.191        0.039      335.167        5.621      855.181
12/16/2014  19:42:00       81.208       61.889        8.092       40.113       35.490       26.023     1609.027     1259.505      677.212        0.702        0.177      102.103       21.790        0.046      335.206        5.687      855.163
12/16/2014  19:43:00       49.655       31.027        8.760       21.694       19.232       14.170      470.627      369.886      200.801        0.227        0.052       58.551       11.366        0.038      335.104        5.518      855.140
12/16/2014  19:44:00       65.566       43.505       14.734       16.159       25.515       13.105      261.111      651.034      171.739        0.375        0.054       78.687        7.051        0.008      335.166        5.617      855.119
12/16/2014  19:45:00       44.554       39.894        7.725       24.705       20.056       20.196      610.326      402.247      407.861        0.253        0.071       59.804       13.946        0.054      335.159        5.609      855.097
12/16/2014  19:46:00       56.115       43.186       12.693       36.832       20.167       20.954     1356.593      406.697      439.053        0.369        0.110       70.809       17.203        0.059      335.115        5.534      855.094
12/16/2014  19:47:00       29.746       25.727       13.772       17.644       19.267       19.624      311.308      371.224      385.096        0.140        0.053       39.328       15.372        0.153      335.019        5.376      855.100
12/16/2014  19:48:00       34.671       25.876       18.161       28.159       15.917       16.452      792.913      253.349      270.660        0.176        0.066       43.262       13.270        0.094      334.919        5.210      855.102
12/16/2014  19:49:00       43.476       25.815       20.611       30.170       22.623       21.556      910.216      511.790      464.671        0.243        0.094       50.562       15.967        0.100      334.843        5.083      855.111
12/16/2014  19:50:00       50.392       25.558       18.361       22.818       15.708       15.309      520.671      246.749      234.376        0.227        0.050       56.503       14.722        0.068      334.957        5.274      855.122
12/16/2014  19:51:00       37.783       23.563       31.899       24.463       20.108       15.249      598.415      404.325      232.540        0.212        0.062       44.528       13.532        0.092      334.988        5.324      855.128
12/16/2014  19:52:00       56.850       35.515       25.712       29.164       22.410       17.981      850.568      502.187      323.301        0.341        0.084       67.031       13.295        0.039      334.963        5.283      855.133
12/16/2014  19:53:00       38.495       26.218       32.525       33.969       17.838       16.761     1153.899      318.198      280.915        0.249        0.088       46.575       14.016        0.091      334.890        5.160      855.135
12/16/2014  19:54:00       67.066       25.353       26.913       28.202       25.240       34.762      795.350      637.052     1208.385        0.425        0.132       71.698        9.895        0.019      335.045        5.419      855.149
12/16/2014  19:55:00       57.033       33.429       22.367       26.120       23.051       22.497      682.264      531.353      506.121        0.329        0.086       66.108       14.198        0.046      335.000        5.345      855.158
12/16/2014  19:56:00       59.810       47.361       29.245       37.513       23.872       22.175     1407.190      569.850      491.719        0.457        0.123       76.291       17.465        0.052      334.965        5.287      855.167
12/16/2014  19:57:00       66.657       20.414       36.820       43.069       35.468       30.756     1854.966     1257.964      945.947        0.514        0.203       69.713       23.197        0.111      335.053        5.434      855.169
12/16/2014  19:58:00       61.362       -4.944       31.442       41.162       50.686       33.095     1694.299     2569.111     1095.271        0.507        0.268       61.561       35.570        0.334      335.079        5.476      855.171
12/16/2014  19:59:00       20.027       50.468       72.102       57.127       41.953       34.000     3263.438     1760.012     1155.967        0.716        0.309       54.296       32.767        0.364      335.021        5.379      855.178
12/16/2014  20:00:00       73.994       30.865       58.633       72.750       54.057       42.654     5292.522     2922.162     1819.329        0.995        0.502       80.174       51.141        0.407      334.980        5.313      855.187
12/16/2014  20:01:00       10.357       45.178       60.526       29.978       52.216       39.138      898.684     2726.468     1531.747        0.548        0.258       46.350       41.928        0.818      335.019        5.375      855.198
12/16/2014  20:02:00       47.630      -38.469       21.681       37.638       53.347       32.015     1416.613     2845.859     1024.960        0.475        0.264       61.225       34.106        0.310      335.024        5.385      855.200
12/16/2014  20:03:00       50.329      -53.458       13.579       43.738       51.942       30.805     1913.048     2697.996      948.961        0.557        0.278       73.422       29.912        0.166      334.953        5.266      855.205
12/16/2014  20:04:00       33.858      -38.725       15.521       49.424       78.840       43.205     2442.746     6215.678     1866.707        0.670        0.526       51.439       53.614        1.086      335.009        5.359      855.218
12/16/2014  20:05:00       49.744      -74.504      -15.311       38.096       50.954       29.362     1451.316     2596.350      862.146        0.658        0.245       89.584       20.226        0.051      335.119        5.541      855.219
12/16/2014  20:06:00       35.421      -60.373       -8.798       48.850       32.004       20.353     2386.322     1024.256      414.255        0.440        0.191       69.997       20.976        0.090      335.027        5.390      855.224
12/16/2014  20:07:00       10.449      -28.277        9.239       27.228       41.569       22.679      741.374     1727.958      514.353        0.199        0.149       30.146       15.933        0.279      334.946        5.255      855.227
12/16/2014  20:08:00        9.121      -23.258        3.443       19.796       34.541       23.333      391.872     1193.047      544.426        0.138        0.106       24.983       21.607        0.748      334.949        5.258      855.223
12/16/2014  20:09:00      -11.298      -10.124        7.446       14.443       11.944       10.352      208.586      142.668      107.171        0.037        0.023       15.170        9.747        0.413      334.948        5.258      855.206
12/16/2014  20:10:00      -31.632      -32.598      -13.133       20.713       20.940       10.220      429.048      438.484      104.439        0.160        0.049       45.422        7.950        0.031      334.910        5.193      855.191
12/16/2014  20:11:00      -39.401      -13.045        0.302       20.792       13.054       13.135      432.300      170.404      172.527        0.125        0.039       41.504       12.480        0.090      334.834        5.068      855.173
12/16/2014  20:12:00      -16.978      -19.411        4.754       28.051       27.513       16.649      786.841      756.947      277.196        0.125        0.091       25.788       15.672        0.369      334.768        4.958      855.162
12/16/2014  20:13:00      -62.971      -42.935        0.227       28.606       22.276       17.594      818.296      496.229      309.562        0.372        0.081       76.215       15.220        0.040      334.585        4.654      855.151
12/16/2014  20:14:00      -70.126      -34.747      -10.304       34.333       26.211       14.800     1178.747      687.017      219.037        0.416        0.104       78.262       16.141        0.043      334.601        4.682      855.140
12/16/2014  20:15:00      -75.419      -20.606        1.470       26.778       35.508       23.592      717.086     1260.822      556.578        0.432        0.127       78.183       19.340        0.061      334.640        4.746      855.135
12/16/2014  20:16:00      -52.873      -40.239        9.306       46.498       26.853       24.539     2162.060      721.094      602.186        0.399        0.174       66.444       26.568        0.160      334.665        4.787      855.121
12/16/2014  20:17:00      -29.426      -50.892        6.258       38.265       40.831       27.239     1464.217     1667.168      741.945        0.368        0.194       58.787       21.815        0.138      334.604        4.685      855.115
12/16/2014  20:18:00      -79.757      -42.713       -6.920       33.646       28.234       18.688     1132.058      797.148      349.238        0.526        0.114       90.474       23.678        0.068      334.473        4.470      855.120
12/16/2014  20:19:00      -41.911      -29.177        2.054       25.646       28.236       14.720      657.713      797.283      216.681        0.214        0.084       51.066       11.014        0.047      334.430        4.398      855.126
12/16/2014  20:20:00      -62.858      -46.835       -0.574       11.375       26.365       10.068      129.399      695.094      101.373        0.354        0.046       78.388        7.601        0.009      334.498        4.511      855.129
12/16/2014  20:21:00      -52.707      -50.936        2.820       33.366       24.121       18.215     1113.261      581.819      331.777        0.370        0.101       73.298       19.703        0.072      334.500        4.511      855.133
12/16/2014  20:22:00      -11.337      -17.246        6.630       33.197       22.630       14.550     1102.045      512.131      211.716        0.115        0.091       20.638       16.675        0.653      334.500        4.514      855.129
12/16/2014  20:23:00      -25.413      -23.580        2.088       32.505       19.608       14.687     1056.550      384.492      215.721        0.143        0.083       34.667       15.953        0.212      334.520        4.547      855.124
12/16/2014  20:24:00      -79.559      -49.443       -2.013       34.963       30.771       21.894     1222.381      946.864      479.344        0.571        0.132       93.671       16.231        0.030      334.473        4.470      855.116
12/16/2014  20:25:00      -71.060      -73.545       -8.145       33.800       40.606       22.720     1142.448     1648.882      516.189        0.692        0.165      102.266       24.928        0.059      334.495        4.506      855.113
12/16/2014  20:26:00      -81.890      -42.671       -8.730       37.280       21.271       14.611     1389.804      452.470      213.479        0.533        0.103       92.341       16.459        0.032      334.471        4.467      855.115
12/16/2014  20:27:00      -79.774      -24.668        0.433       29.136       21.577       17.731      848.924      465.569      314.399        0.430        0.081       83.501       10.937        0.017      334.459        4.444      855.128
12/16/2014  20:28:00      -82.477      -13.192       -4.348       29.496       17.315       15.521      870.005      299.815      240.909        0.420        0.071       83.525       16.113        0.037      334.419        4.381      855.132
12/16/2014  20:29:00      -76.376      -28.454        0.136       42.237       21.470       15.165     1783.956      460.961      229.962        0.456        0.124       81.504        8.594        0.011      334.460        4.448      855.144
12/16/2014  20:30:00     -103.461      -39.438       -5.096       22.679       28.586       14.667      514.329      817.152      215.130        0.692        0.077      110.723        9.105        0.007      334.452        4.434      855.148
12/16/2014  20:31:00     -101.766      -47.762        1.756       32.863       19.544       14.057     1079.968      381.979      197.589        0.715        0.083      112.417       11.911        0.011      334.487        4.491      855.146
12/16/2014  20:32:00     -102.648      -49.662        0.207       32.780       22.238       15.515     1074.551      494.542      240.723        0.741        0.090      114.031       11.476        0.010      334.455        4.438      855.145
12/16/2014  20:33:00     -105.619      -20.118       -5.565       26.681       20.804       16.835      711.868      432.791      283.407        0.651        0.071      107.518        6.885        0.004      334.473        4.468      855.138
12/16/2014  20:34:00      -98.727      -11.946       -2.737       27.521       25.194       16.032      757.403      634.733      257.029        0.577        0.082       99.447       12.602        0.016      334.431        4.400      855.131
12/16/2014  20:35:00     -112.726      -24.224       -8.205       23.286       24.049       14.407      542.241      578.355      207.556        0.734        0.066      115.299       12.770        0.012      334.381        4.318      855.133
12/16/2014  20:36:00     -115.953       -9.909       -4.644       25.612       24.508       16.074      655.982      600.639      258.371        0.754        0.076      116.376       14.033        0.015      334.363        4.288      855.127
12/16/2014  20:37:00      -98.710      -30.274       -8.248       27.977       26.102       16.891      782.700      681.301      285.312        0.624        0.087      103.248       12.642        0.015      334.344        4.254      855.121
12/16/2014  20:38:00     -129.328      -39.444       -8.565       22.422       28.896       15.921      502.768      835.000      253.469        0.997        0.080      135.209       10.149        0.006      334.276        4.141      855.125
12/16/2014  20:39:00     -137.495      -31.486      -11.230       20.628       26.150       14.047      425.524      683.846      197.310        1.066        0.065      141.054       11.321        0.006      334.262        4.119      855.127
12/16/2014  20:40:00     -137.222      -30.003      -11.446       21.665       24.057       13.859      469.383      578.745      192.063        1.055        0.062      140.464        7.307        0.003      334.308        4.197      855.133
12/16/2014  20:41:00     -142.757      -36.504       -9.744       22.745       25.380       12.029      517.350      644.168      144.705        1.156        0.065      147.351       10.892        0.005      334.313        4.205      855.127
12/16/2014  20:42:00     -120.829      -32.129       -6.163       24.657       21.928       11.842      607.980      480.821      140.224        0.845        0.061      125.028        7.967        0.004      334.375        4.307      855.132
12/16/2014  20:43:00     -128.174      -12.125      -10.944       20.204       22.469       15.675      408.188      504.870      245.718        0.893        0.058      128.747       11.837        0.008      334.281        4.150      855.133
12/16/2014  20:44:00     -114.191      -15.284       -5.594       24.330       24.096       19.026      591.970      580.598      362.007        0.742        0.077      115.209       12.804        0.012      334.328        4.230      855.141
12/16/2014  20:45:00     -103.415      -25.990       -8.849       38.362       23.772       17.591     1471.634      565.123      309.442        0.690        0.117      106.631       18.732        0.031      334.331        4.234      855.142
12/16/2014  20:46:00     -140.001      -13.430      -16.155       30.733       27.636       20.879      944.519      763.746      435.917        1.109        0.107      140.644       16.351        0.014      334.364        4.288      855.134
12/16/2014  20:47:00     -136.517      -45.315      -13.945       24.793       25.879       15.231      614.687      669.740      231.980        1.120        0.076      143.841        8.599        0.004      334.360        4.283      855.142
12/16/2014  20:48:00     -124.835      -44.084      -11.452       15.668       22.745       12.260      245.471      517.346      150.299        0.929        0.046      132.390        6.820        0.003      334.306        4.193      855.153
12/16/2014  20:49:00     -119.516      -24.652      -11.194       21.108       34.218       16.854      445.532     1170.864      284.048        0.846        0.095      122.032       12.542        0.011      334.450        4.430      855.149
12/16/2014  20:50:00      -79.159      -52.653       -4.067       52.059       21.985       18.989     2710.106      483.320      360.585        0.630        0.178       95.071       26.897        0.080      334.327        4.226      855.147
12/16/2014  20:51:00     -102.325      -20.393       -9.128       31.743       26.893       16.551     1007.623      723.235      273.927        0.649        0.100      104.337       15.589        0.022      334.345        4.256      855.141
12/16/2014  20:52:00      -96.066      -21.792        0.805       35.019       25.269       20.784     1226.346      638.512      431.989        0.600        0.115       98.507       17.540        0.032      334.377        4.311      855.127
12/16/2014  20:53:00      -59.058      -42.482        0.892       41.216       37.885       21.036     1698.797     1435.295      442.496        0.443        0.179       72.750       17.845        0.060      334.447        4.425      855.135
12/16/2014  20:54:00      -65.951      -26.322       -7.449       20.597       17.568       13.415      424.249      308.647      179.973        0.301        0.046       71.010        9.846        0.019      334.402        4.350      855.142
12/16/2014  20:55:00      -43.268      -33.470       -5.063       19.873       18.613       15.662      394.939      346.461      245.306        0.200        0.049       54.702       13.284        0.059      334.461        4.449      855.144
12/16/2014  20:56:00      -59.101      -27.193       -4.081       13.637       11.665       11.600      185.956      136.067      134.569        0.235        0.023       65.057        2.439        0.001      334.363        4.287      855.144
12/16/2014  20:57:00      -30.643      -22.941        2.626       29.455       16.480       15.632      867.611      271.577      244.368        0.143        0.069       38.279       16.137        0.178      334.399        4.346      855.143
12/16/2014  20:58:00      -63.533      -57.914       -8.646       41.059       25.677       18.469     1685.823      659.303      341.118        0.508        0.134       85.968       23.450        0.074      334.368        4.298      855.149
12/16/2014  20:59:00      -71.045      -57.813       -8.329       28.941       23.846       19.620      837.585      568.609      384.956        0.512        0.090       91.596       19.840        0.047      334.351        4.267      855.152
12/16/2014  21:00:00      -58.270      -44.847       -2.246       23.347       18.317       12.085      545.075      335.503      146.055        0.322        0.051       73.530       11.031        0.023      334.406        4.358      855.139
12/16/2014  21:01:00      -85.458      -50.714       -0.961       23.778       17.136       12.497      565.374      293.647      156.170        0.545        0.051       99.373       11.200        0.013      334.350        4.267      855.126
12/16/2014  21:02:00      -48.894      -21.721       -5.400       44.304       13.451       10.096     1962.814      180.941      101.936        0.257        0.112       53.502        6.721        0.016      334.311        4.202      855.110
12/16/2014  21:03:00      -44.516      -16.258        4.515       34.176       16.552       15.359     1168.026      273.971      235.897        0.197        0.084       47.392       19.289        0.166      334.314        4.207      855.103
12/16/2014  21:04:00      -60.420      -39.371       -6.670       20.699       14.447       11.487      428.468      208.710      131.946        0.301        0.038       72.115        9.696        0.018      334.256        4.109      855.119
12/16/2014  21:05:00      -30.722      -15.462        0.996       30.000       18.335       12.111      899.974      336.181      146.674        0.128        0.069       34.394       11.541        0.113      334.268        4.128      855.135
12/16/2014  21:06:00      -13.482      -13.254        9.675       17.630       15.667       11.848      310.829      245.456      140.380        0.057        0.035       18.905       11.761        0.387      334.369        4.297      855.151
12/16/2014  21:07:00      -22.553      -27.415        3.755       32.418       28.940       15.578     1050.916      837.527      242.683        0.170        0.107       35.499       20.587        0.336      334.335        4.241      855.167
12/16/2014  21:08:00      -28.477      -35.189        1.544       47.209       24.046       17.050     2228.702      578.221      290.688        0.257        0.155       45.268       17.783        0.154      334.395        4.341      855.185
12/16/2014  21:09:00      -42.937      -43.471        4.378       32.109       25.548       16.214     1031.005      652.720      262.908        0.285        0.097       61.101       17.921        0.086      334.266        4.126      855.196
12/16/2014  21:10:00      -20.181      -21.913       13.080       30.611       21.397       12.776      937.059      457.848      163.217        0.131        0.078       29.790       10.041        0.114      334.278        4.146      855.203
12/16/2014  21:11:00      -62.010      -63.233        0.751       55.246       43.171       22.704     3052.129     1863.715      515.476        0.664        0.272       88.564       30.125        0.116      334.257        4.109      855.216
12/16/2014  21:12:00     -104.331     -109.573       -4.405       36.787       30.310       21.907     1353.305      918.705      479.898        1.283        0.138      151.298       19.520        0.017      334.197        4.010      855.233
12/16/2014  21:13:00     -100.427      -98.193       -0.088       39.272       34.704       27.714     1542.268     1204.348      768.071        1.162        0.176      140.454       23.246        0.027      334.167        3.962      855.250
12/16/2014  21:14:00     -100.219      -97.749        0.041       48.703       43.524       25.988     2371.971     1894.370      675.385        1.227        0.247      139.995       24.802        0.031      334.240        4.082      855.268
12/16/2014  21:15:00     -125.601     -122.063       -8.575       72.294       57.782       31.291     5226.369     3338.736      979.119        2.014        0.477      175.143       34.623        0.039      334.150        3.930      855.285
12/16/2014  21:16:00     -113.370     -129.115      -10.043       57.086       63.266       35.631     3258.801     4002.638     1269.579        1.908        0.427      171.823       28.385        0.027      334.080        3.815      855.297
12/16/2014  21:17:00      -91.925      -67.207        9.384       73.440       50.305       38.293     5393.403     2530.629     1466.316        1.122        0.470      113.872       39.486        0.120      334.045        3.757      855.301
12/16/2014  21:18:00     -146.568     -101.868       -4.138       45.345       49.256       29.375     2056.188     2426.172      862.894        1.861        0.267      178.491       28.773        0.026      333.987        3.662      855.293
12/16/2014  21:19:00     -135.162     -112.483       -5.953       42.412       37.266       26.291     1798.780     1388.744      691.199        1.742        0.194      175.844       20.342        0.013      334.004        3.690      855.295
12/16/2014  21:20:00     -141.701      -84.132       -8.026       54.080       42.826       35.558     2924.697     1834.038     1264.350        1.662        0.301      164.796       31.275        0.036      334.017        3.710      855.297
12/16/2014  21:21:00     -134.092     -111.522        0.590       67.594       46.108       35.363     4569.011     2125.934     1250.521        1.918        0.397      174.407       30.912        0.031      333.996        3.676      855.302
12/16/2014  21:22:00     -116.820      -82.086       -4.618       50.634       34.259       24.276     2563.789     1173.693      589.345        1.237        0.216      142.776       15.184        0.011      334.022        3.720      855.309
12/16/2014  21:23:00     -113.061      -75.668        1.700       36.190       29.284       22.853     1309.682      857.549      522.270        1.060        0.134      136.046       18.650        0.019      334.111        3.868      855.305
12/16/2014  21:24:00      -97.544      -86.137        0.659       44.758       33.945       27.895     2003.272     1152.265      778.109        1.043        0.197      130.133       29.707        0.052      334.127        3.895      855.299
12/16/2014  21:25:00      -67.668      -69.670        3.663       43.877       38.293       24.530     1925.200     1466.376      601.703        0.672        0.200       97.123       23.670        0.059      334.169        3.965      855.284
12/16/2014  21:26:00      -71.238      -45.707        7.121       72.483       24.106       21.999     5253.771      581.090      483.953        0.677        0.316       84.640       29.950        0.125      334.210        4.034      855.274
12/16/2014  21:27:00      -25.847      -28.727       12.837       31.018       35.398       26.997      962.142     1252.994      728.830        0.230        0.147       38.643       23.942        0.384      334.221        4.050      855.268
12/16/2014  21:28:00      -92.965      -61.059       -1.411       40.108       26.455       18.455     1608.657      699.853      340.583        0.751        0.132      111.223       16.985        0.023      334.209        4.030      855.257
12/16/2014  21:29:00      -91.872      -63.150       -6.346       27.966       22.874       19.857      782.077      523.220      394.288        0.708        0.085      111.483       15.710        0.020      334.214        4.038      855.243
12/16/2014  21:30:00      -82.923      -46.775        1.497       37.924       30.086       19.047     1438.206      905.142      362.780        0.589        0.135       95.205       16.875        0.031      334.165        3.957      855.238
12/16/2014  21:31:00      -98.112      -53.681       -4.389       23.182       19.933       13.950      537.393      397.314      194.601        0.683        0.056      111.837       10.665        0.009      334.184        3.990      855.238
12/16/2014  21:32:00      -72.653      -23.230        0.832       20.029       23.232       14.782      401.178      539.715      218.502        0.349        0.058       76.276       10.559        0.019      334.146        3.927      855.252
12/16/2014  21:33:00      -77.182      -46.890        0.454       22.618       18.590       14.910      511.570      345.592      222.299        0.462        0.054       90.309       12.062        0.018      334.133        3.904      855.255
12/16/2014  21:34:00      -50.008      -28.513       -0.007       25.325       22.325       14.947      641.334      498.422      223.423        0.234        0.068       57.565       10.555        0.034      334.107        3.859      855.256
12/16/2014  21:35:00      -43.741      -15.437       -1.300       18.447       20.533       10.936      340.298      421.602      119.591        0.152        0.044       46.385       11.830        0.065      334.110        3.866      855.265
12/16/2014  21:36:00        0.349        7.704        3.351       27.772       12.146        8.328      771.294      147.531       69.351        0.053        0.049        7.712        4.875        0.400      334.133        3.904      855.278
12/16/2014  21:37:00       62.210       54.088       16.721       26.109       19.657       17.175      681.682      386.413      294.982        0.422        0.068       82.435       12.713        0.024      334.142        3.917      855.306
12/16/2014  21:38:00       72.681       53.228       29.493       55.879       33.167       46.962     3122.421     1100.061     2205.393        0.771        0.321       90.088       38.130        0.179      334.077        3.812      855.324
12/16/2014  21:39:00      111.510       67.113        5.906       30.275       22.356       23.687      916.579      499.806      561.082        0.948        0.099      130.149       10.883        0.007      333.996        3.678      855.330
12/16/2014  21:40:00       94.851       30.451       10.670       40.138       37.817       31.876     1611.095     1430.112     1016.062        0.705        0.203       99.619       14.942        0.022      334.027        3.728      855.334
12/16/2014  21:41:00       24.776       50.785       -0.571       37.528       28.554       24.343     1408.348      815.342      592.576        0.300        0.141       56.507       18.210        0.104      334.314        4.205      855.324
12/16/2014  21:42:00       21.970       25.833        9.847       31.159       26.997       18.527      970.854      728.857      343.234        0.164        0.102       33.912       18.106        0.285      334.241        4.086      855.321
12/16/2014  21:43:00       -4.217      -14.127       17.107       10.397       12.205        7.138      108.090      148.969       50.945        0.041        0.015       14.743        5.994        0.165      334.317        4.211      855.317
12/16/2014  21:44:00      -25.571        0.168        2.041       21.452        5.351        9.415      460.179       28.634       88.636        0.062        0.029       25.571       11.773        0.212      334.207        4.029      855.311
12/16/2014  21:45:00      -36.317       -7.956       -4.968       11.491       13.286       11.419      132.037      176.527      130.391        0.092        0.022       37.178        8.118        0.048      334.224        4.054      855.298
12/16/2014  21:46:00        5.580       15.680        6.391       18.767       13.051       10.547      352.183      170.330      111.250        0.048        0.032       16.644        7.276        0.191      334.289        4.164      855.298
12/16/2014  21:47:00       20.832       28.326       -1.122       10.581        6.105        8.232      111.948       37.274       67.770        0.073        0.011       35.162        4.875        0.019      334.260        4.115      855.306
12/16/2014  21:48:00       25.499       13.104       10.942       15.169        9.152        9.652      230.096       83.751       93.162        0.067        0.020       28.669        6.380        0.050      334.255        4.108      855.309
12/16/2014  21:49:00       41.406       29.945       11.166        8.249       10.456        8.944       68.039      109.336       79.991        0.150        0.013       51.099        5.323        0.011      334.274        4.137      855.307
12/16/2014  21:50:00       40.245       41.278        0.296       16.111       11.783       15.502      259.553      138.830      240.327        0.198        0.032       57.650        8.375        0.021      334.304        4.188      855.297
12/16/2014  21:51:00       37.682       38.119       -1.454       14.391       22.205       13.033      207.099      493.074      169.850        0.187        0.044       53.601       11.406        0.045      334.342        4.252      855.291
12/16/2014  21:52:00       38.718       34.577        3.161       11.618        8.590        6.401      134.966       73.788       40.976        0.148        0.012       51.910        4.678        0.008      334.329        4.233      855.296
12/16/2014  21:53:00       47.808       26.614        8.988       22.582       17.282       15.959      509.937      298.681      254.684        0.207        0.053       54.716        7.340        0.018      334.373        4.305      855.297
12/16/2014  21:54:00       41.664       26.618        6.524       16.328       12.869       13.371      266.608      165.603      178.786        0.155        0.031       49.441       10.409        0.044      334.428        4.394      855.296
12/16/2014  21:55:00       44.517       31.819        4.675       21.483       18.795       13.546      461.520      353.240      183.505        0.201        0.050       54.719       12.606        0.053      334.413        4.370      855.290
12/16/2014  21:56:00       31.580       32.576        3.836       14.040       16.644       12.594      197.130      277.011      158.610        0.135        0.032       45.371       11.065        0.059      334.396        4.343      855.296
12/16/2014  21:57:00       52.708       24.913        3.796       23.039       16.219       13.583      530.788      263.044      184.498        0.220        0.049       58.299       10.521        0.033      334.435        4.408      855.302
12/16/2014  21:58:00       67.979       45.145        6.737       17.690       15.660       14.264      312.928      245.237      203.460        0.373        0.038       81.604       10.433        0.016      334.471        4.467      855.303
12/16/2014  21:59:00       70.635       52.220       13.251       24.166       13.957       19.243      584.007      194.787      370.276        0.452        0.057       87.842       12.349        0.020      334.474        4.470      855.307
12/16/2014  22:00:00       38.322       34.981        9.879       23.778       25.006       18.688      565.400      625.324      349.253        0.216        0.077       51.887       12.694        0.060      334.457        4.442      855.297
12/16/2014  22:01:00       41.761       43.233        0.274       23.921       25.184       23.048      572.199      634.233      531.188        0.268        0.087       60.109       17.035        0.080      334.500        4.513      855.284
12/16/2014  22:02:00       65.087       50.359        7.584       20.440       17.784       16.342      417.785      316.278      267.047        0.392        0.050       82.294       13.250        0.026      334.538        4.576      855.274
12/16/2014  22:03:00       45.950       50.822        4.471       35.627       29.682       23.276     1269.270      881.016      541.773        0.370        0.135       68.515       20.565        0.090      334.532        4.564      855.268
12/16/2014  22:04:00       55.084       38.463        1.733       27.044       22.259       20.390      731.355      495.443      415.770        0.308        0.082       67.184       15.032        0.050      334.508        4.527      855.252
12/16/2014  22:05:00       37.888       49.187        4.860       26.924       29.220       18.379      724.882      853.780      337.801        0.290        0.096       62.088       17.248        0.077      334.514        4.537      855.243
12/16/2014  22:06:00       35.681       56.638       -6.478       20.680       35.703       22.778      427.669     1274.717      518.828        0.337        0.111       66.940       19.408        0.084      334.506        4.524      855.243
12/16/2014  22:07:00       27.351       53.377        3.287       23.504       35.389       27.095      552.447     1252.382      734.143        0.307        0.127       59.977       24.519        0.167      334.527        4.559      855.257
12/16/2014  22:08:00       24.936       36.296        5.131       25.091       25.374       20.363      629.569      643.830      414.634        0.183        0.084       44.036       17.373        0.156      334.514        4.536      855.269
12/16/2014  22:09:00       31.888       66.531       -8.522       19.566       27.949       15.698      382.833      781.161      246.433        0.346        0.071       73.779        7.244        0.010      334.523        4.551      855.276
12/16/2014  22:10:00       22.056       76.825      -10.699       19.463       23.810       14.955      378.790      566.919      223.667        0.384        0.058       79.929       13.301        0.028      334.518        4.542      855.287
12/16/2014  22:11:00       19.756       37.536       -4.217       18.030       30.114       15.011      325.073      906.824      225.320        0.164        0.073       42.418       13.093        0.095      334.519        4.546      855.304
12/16/2014  22:12:00       29.608       24.736       -1.816       17.662       14.933       13.327      311.938      223.004      177.618        0.110        0.036       38.581        7.354        0.036      334.559        4.611      855.308
12/16/2014  22:13:00       58.798       35.441        7.855       23.042       16.560       13.402      530.952      274.243      179.608        0.288        0.049       68.653       10.705        0.024      334.610        4.695      855.321
12/16/2014  22:14:00       49.974       36.471       12.746       16.538       12.971       14.420      273.489      168.248      207.944        0.232        0.032       61.867        9.839        0.025      334.577        4.640      855.329
12/16/2014  22:15:00       64.567       43.112       12.470       25.438       15.358       18.781      647.114      235.881      352.741        0.371        0.062       77.637       16.644        0.046      334.553        4.600      855.341
12/16/2014  22:16:00       89.836       53.291        9.373       34.307       21.186       17.852     1176.963      448.830      318.684        0.647        0.097      104.453       12.197        0.014      334.530        4.561      855.345
12/16/2014  22:17:00       65.408       36.421       21.650       50.493       39.798       31.738     2549.513     1583.866     1007.290        0.561        0.257       74.864       21.143        0.080      334.538        4.576      855.341
12/16/2014  22:18:00      108.737       65.090       12.078       28.687       22.332       18.472      822.950      498.720      341.199        0.893        0.083      126.730       11.267        0.008      334.508        4.527      855.338
12/16/2014  22:19:00       99.377       59.156       34.477       22.415       23.439       17.225      502.421      549.365      296.707        0.796        0.067      115.651       11.298        0.010      334.494        4.505      855.334
12/16/2014  22:20:00       81.385       61.046       25.367       26.901       22.568       18.167      723.684      509.335      330.047        0.628        0.078      101.736       12.433        0.015      334.494        4.503      855.341
12/16/2014  22:21:00       87.456       56.755       27.658       20.260       21.427       18.261      410.474      459.105      333.461        0.642        0.060      104.258       11.430        0.012      334.518        4.542      855.356
12/16/2014  22:22:00       82.468       51.785       19.472       27.618       21.998       15.389      762.729      483.915      236.812        0.567        0.074       97.379        8.482        0.008      334.518        4.545      855.372
12/16/2014  22:23:00       80.475       47.773       21.741       20.651       16.177       17.834      426.447      261.709      318.051        0.512        0.050       93.586        8.287        0.008      334.498        4.512      855.375
12/16/2014  22:24:00       77.411       38.408       13.741       18.257       19.260       15.126      333.311      370.942      228.810        0.429        0.047       86.416        9.153        0.011      334.522        4.550      855.373
12/16/2014  22:25:00       81.933       38.922       23.414       24.361       17.673       18.034      593.467      312.341      325.222        0.500        0.062       90.708       14.573        0.026      334.539        4.579      855.367
12/16/2014  22:26:00       98.505       61.520       11.270       28.472       18.755       20.504      810.628      351.765      420.417        0.760        0.079      116.137       19.821        0.029      334.569        4.626      855.353
12/16/2014  22:27:00       85.135       62.698       22.462       17.344       15.484       19.364      300.801      239.769      374.982        0.630        0.046      105.731        6.214        0.003      334.599        4.678      855.344
12/16/2014  22:28:00       80.401       57.105       20.177       17.048       17.414       15.395      290.620      303.239      237.015        0.548        0.042       98.617        6.482        0.004      334.509        4.528      855.346
12/16/2014  22:29:00       77.541       41.042       16.609       18.721       17.749       15.701      350.471      315.012      246.524        0.444        0.046       87.733        9.508        0.012      334.520        4.547      855.347
12/16/2014  22:30:00       55.112       19.432        7.616       29.004       24.522       18.387      841.228      601.319      338.087        0.263        0.089       58.437       12.409        0.045      334.557        4.608      855.356
12/16/2014  22:31:00       28.314        9.493        0.178       27.115       18.328       12.570      735.206      335.917      158.010        0.106        0.061       29.863        4.185        0.020      334.515        4.537      855.371
12/16/2014  22:32:00        9.551        0.105        1.660       12.638       11.915        7.483      159.722      141.962       56.002        0.023        0.018        9.551        6.593        0.476      334.527        4.557      855.384
12/16/2014  22:33:00       11.669        7.177        4.246        6.872        6.835        7.829       47.231       46.715       61.296        0.018        0.008       13.699        6.378        0.217      334.549        4.594      855.391
12/16/2014  22:34:00       34.491       18.784        4.039       11.157       10.123        9.875      124.470      102.472       97.524        0.094        0.016       39.274        5.787        0.022      334.543        4.584      855.406
12/16/2014  22:35:00       14.637      -18.427       -0.081        9.820       19.217       11.997       96.441      369.286      143.923        0.058        0.030       23.533       13.500        0.329      334.587        4.655      855.412
12/16/2014  22:36:00       14.231       -4.306       17.875       12.787       21.469       10.954      163.502      460.917      119.982        0.064        0.037       14.869        7.150        0.231      334.603        4.684      855.417
12/16/2014  22:37:00       59.942      -17.429       14.438       26.366       15.214       14.906      695.140      231.455      222.195        0.263        0.057       62.424       13.035        0.044      334.615        4.705      855.426
12/16/2014  22:38:00       13.135       -3.370       14.069       16.309       18.003       10.638      265.973      324.114      113.158        0.054        0.035       13.561       10.366        0.584      334.633        4.735      855.437
12/16/2014  22:39:00       23.993       24.515        6.723       15.086        9.353       12.871      227.582       87.478      165.672        0.085        0.024       34.302       10.543        0.094      334.610        4.697      855.450
12/16/2014  22:40:00        7.994        3.460       13.773       23.074       18.868       11.815      532.409      356.002      139.600        0.065        0.051        8.710       15.416        3.133      334.605        4.689      855.478
12/16/2014  22:41:00      -25.452       -2.893        3.983       18.712       13.768       11.731      350.132      189.563      137.624        0.067        0.034       25.615        6.736        0.069      334.540        4.578      855.505
12/16/2014  22:42:00      -72.373      -52.071       -3.995       25.452       22.861       16.157      647.785      522.628      261.038        0.470        0.072       89.159       12.387        0.019      334.505        4.524      855.523
12/16/2014  22:43:00      -59.492      -42.178       -2.530       43.093       32.569       23.700     1857.044     1060.755      561.701        0.440        0.174       72.926       15.679        0.046      334.491        4.499      855.534
12/16/2014  22:44:00      -76.050      -42.854       -0.965       24.793       20.101       12.671      614.707      404.068      160.544        0.440        0.059       87.293       10.425        0.014      334.425        4.390      855.552
12/16/2014  22:45:00      -64.706      -35.058       -2.951       21.120       17.764       11.644      446.070      315.574      135.577        0.316        0.045       73.593       11.877        0.026      334.388        4.329      855.570
12/16/2014  22:46:00      -44.549      -50.404      -11.274       28.083       14.625       13.646      788.662      213.902      186.215        0.292        0.059       67.270        9.748        0.021      334.442        4.420      855.575
12/16/2014  22:47:00      -54.332      -16.589       -4.228       28.811       25.203       14.765      830.066      635.197      218.005        0.246        0.084       56.808       12.465        0.048      334.487        4.492      855.579
12/16/2014  22:48:00      -48.392      -23.767       -9.371       16.438       18.132       11.080      270.196      328.757      122.768        0.186        0.036       53.913        9.691        0.032      334.325        4.222      855.577
12/16/2014  22:49:00      -61.249      -10.935       -5.868       13.912        9.441        8.193      193.544       89.126       67.131        0.213        0.017       62.218        5.771        0.009      334.259        4.112      855.582
12/16/2014  22:50:00      -73.405      -13.425       -8.311       10.819       11.002        7.998      117.056      121.040       63.972        0.297        0.015       74.623        1.709        0.001      334.249        4.097      855.599
12/16/2014  22:51:00      -47.313      -12.625       -0.906       13.371       10.923        9.317      178.771      119.310       86.798        0.139        0.019       48.968        6.719        0.019      334.262        4.120      855.609
12/16/2014  22:52:00      -62.340      -28.365       -9.557       15.714        8.082        8.371      246.934       65.322       70.075        0.258        0.019       68.490        6.052        0.008      334.275        4.140      855.620
12/16/2014  22:53:00      -48.331      -42.350       -0.496       44.593       24.707       17.351     1988.559      610.431      301.061        0.351        0.145       64.260       21.676        0.114      334.296        4.176      855.630
12/16/2014  22:54:00      -20.296      -21.393        6.238       37.714       21.269       18.000     1422.317      452.387      324.013        0.155        0.110       29.489       19.693        0.446      334.263        4.123      855.634
12/16/2014  22:55:00      -55.666      -43.592       -0.223       40.625       19.160       11.380     1650.395      367.111      129.499        0.357        0.107       70.703        7.859        0.012      334.230        4.066      855.644
12/16/2014  22:56:00      -87.377      -12.021       -4.832       22.906       13.608       11.891      524.678      185.191      141.404        0.433        0.043       88.200       11.213        0.016      334.275        4.140      855.639
12/16/2014  22:57:00      -82.111      -11.561      -12.960       15.386       18.763       12.387      236.716      352.065      153.446        0.389        0.037       82.921        3.349        0.002      334.338        4.246      855.635
12/16/2014  22:58:00      -62.849      -33.310       -6.803       11.317       11.110        9.266      128.078      123.424       85.856        0.272        0.017       71.131        7.826        0.012      334.295        4.174      855.639
12/16/2014  22:59:00      -14.486      -10.233        0.058       26.611       14.405       10.334      708.152      207.514      106.786        0.067        0.051       17.736       10.358        0.341      334.298        4.180      855.643
12/16/2014  23:00:00      -26.558       -1.042        1.347       13.486        8.248        8.589      181.867       68.033       73.769        0.052        0.016       26.578        6.713        0.064      334.254        4.106      855.642
12/16/2014  23:01:00      -26.704      -19.782       -1.070       17.645       16.172        9.277      311.340      261.541       86.068        0.088        0.033       33.233        8.499        0.065      334.253        4.103      855.638
12/16/2014  23:02:00      -91.906      -20.301      -10.139       31.501       16.718       14.607      992.301      279.501      213.368        0.522        0.074       94.121       17.490        0.035      334.291        4.167      855.648
12/16/2014  23:03:00     -108.799      -20.015       -8.970       13.472       12.338        9.317      181.502      152.238       86.814        0.637        0.021      110.625        8.121        0.005      334.216        4.042      855.656
12/16/2014  23:04:00      -52.510      -23.675       -3.373       19.427       11.531        9.925      377.427      132.966       98.509        0.197        0.030       57.600        6.255        0.012      334.191        4.000      855.661
12/16/2014  23:05:00      -56.715      -23.272       -7.955       21.373       15.472        7.846      456.814      239.380       61.554        0.229        0.038       61.304        8.912        0.021      334.238        4.079      855.652
12/16/2014  23:06:00      -69.561      -16.189      -10.403       12.434        9.608        9.234      154.601       92.306       85.266        0.277        0.017       71.420        5.803        0.007      334.211        4.034      855.637
12/16/2014  23:07:00      -72.338      -13.554      -12.409       11.151       12.964       10.734      124.351      168.065      115.223        0.299        0.020       73.596        7.410        0.010      334.254        4.105      855.627
12/16/2014  23:08:00      -40.957      -17.110       -2.591        8.969       11.104        6.881       80.440      123.308       47.351        0.111        0.013       44.387        5.537        0.016      334.411        4.367      855.621
12/16/2014  23:09:00        8.325       -1.845       -1.638       16.735       20.980       12.650      280.047      440.150      160.025        0.048        0.044        8.527       12.412        2.119      334.484        4.489      855.615
12/16/2014  23:10:00       17.206        2.691        3.436       10.737       10.661        8.207      115.292      113.649       67.361        0.031        0.015       17.415        5.730        0.108      334.601        4.682      855.618
12/16/2014  23:11:00       31.779       10.552        6.227       14.242       11.951       10.365      202.847      142.830      107.433        0.081        0.023       33.485        6.290        0.035      334.578        4.642      855.617
12/16/2014  23:12:00       35.524       -4.014        8.455       25.502       16.469       10.252      650.338      271.228      105.096        0.119        0.051       35.750        9.019        0.064      334.596        4.672      855.609
12/16/2014  23:13:00       53.781       16.192       12.393       17.881       15.293       17.040      319.731      233.876      290.355        0.208        0.042       56.166       12.045        0.046      334.675        4.803      855.602
12/16/2014  23:14:00       31.189       13.474       10.194       19.546       12.685       12.188      382.059      160.915      148.554        0.097        0.035       33.975        8.321        0.060      334.622        4.716      855.589
12/16/2014  23:15:00       15.055       26.708       22.416       15.207       13.960       14.207      231.262      194.891      201.844        0.104        0.031       30.659       10.398        0.115      334.583        4.651      855.587
12/16/2014  23:16:00       16.037       32.368        3.539       12.896       12.538       11.158      166.294      157.212      124.506        0.088        0.022       36.123        7.146        0.039      334.625        4.723      855.580
12/16/2014  23:17:00       18.725       24.338       -1.225        9.713        8.076        7.442       94.350       65.228       55.383        0.058        0.011       30.707        3.088        0.010      334.622        4.716      855.571
12/16/2014  23:18:00       11.340       40.620       -3.735        9.788        8.685        3.991       95.809       75.421       15.927        0.099        0.009       42.173        3.265        0.006      334.586        4.657      855.570
12/16/2014  23:19:00        5.895       34.896       -5.782        6.247        5.594        4.241       39.029       31.295       17.987        0.069        0.004       35.390        3.525        0.010      334.575        4.639      855.562
12/16/2014  23:20:00        9.641       37.042       -7.014       11.163       11.279        8.297      124.613      127.214       68.843        0.092        0.016       38.276        6.075        0.025      334.553        4.601      855.552
12/16/2014  23:21:00        5.530       42.785       -8.253        8.165       12.293        5.196       66.674      151.125       27.001        0.109        0.012       43.141        4.268        0.010      334.551        4.597      855.552
12/16/2014  23:22:00       -6.792       31.868       -1.117       12.888       10.543        4.281      166.113      111.154       18.327        0.068        0.015       32.584        5.104        0.025      334.549        4.594      855.531
12/16/2014  23:23:00      -49.720      -18.114        1.721       26.776       11.142       14.652      716.971      124.152      214.684        0.193        0.053       52.917       16.683        0.099      334.110        3.867      855.524
12/16/2014  23:24:00      -86.197      -12.383       -7.310       22.306       17.704       14.705      497.567      313.426      216.228        0.433        0.051       87.081       10.224        0.014      334.152        3.936      855.522
12/16/2014  23:25:00     -104.663       -9.962       -9.175       19.276       20.094       12.945      371.549      403.771      167.561        0.604        0.047      105.136       10.782        0.011      333.980        3.653      855.522
12/16/2014  23:26:00      -50.618      -18.743        0.016       29.313       24.669       21.205      859.268      608.573      449.647        0.242        0.096       53.977       20.691        0.147      334.135        3.908      855.533
12/16/2014  23:27:00      -23.301       -2.842       -4.658       24.504       19.541       17.950      600.431      381.862      322.193        0.094        0.065       23.474       15.467        0.434      334.362        4.285      855.541
12/16/2014  23:28:00      -24.122       -2.444       -5.625       22.956       18.379       12.610      526.958      337.800      159.019        0.082        0.051       24.246       12.448        0.264      334.337        4.243      855.557
12/16/2014  23:29:00      -21.031      -13.910        3.509       25.419       18.631       13.979      646.123      347.131      195.425        0.092        0.059       25.215       10.665        0.179      334.387        4.328      855.565
12/16/2014  23:30:00      -83.977        2.375       -7.705       39.537       23.950       20.729     1563.182      573.584      429.685        0.484        0.128       84.011       19.865        0.056      334.575        4.639      855.562
12/16/2014  23:31:00      -95.212        4.363       -5.976       51.610       36.070       26.182     2663.619     1301.056      685.506        0.688        0.233       95.312       29.513        0.096      334.354        4.273      855.553
12/16/2014  23:32:00      -89.813        9.238      -14.016       37.717       26.998       24.071     1422.579      728.895      579.403        0.554        0.137       90.287       21.247        0.055      334.388        4.328      855.545
12/16/2014  23:33:00      -83.935       -6.955      -14.055       36.439       29.224       20.013     1327.793      854.063      400.516        0.494        0.129       84.222       15.975        0.036      334.200        4.017      855.554
12/16/2014  23:34:00      -49.642      -15.883       -3.748       31.106       23.550       17.523      967.612      554.582      307.068        0.228        0.091       52.121        9.538        0.033      334.144        3.924      855.564
12/16/2014  23:35:00      -52.818       -6.222       -0.633       29.336       34.056       18.359      860.621     1159.818      337.051        0.259        0.118       53.183        9.660        0.033      334.265        4.124      855.564
12/16/2014  23:36:00      -58.656       12.201      -14.419       36.086       20.560       16.607     1302.200      422.719      275.804        0.290        0.100       59.911       16.315        0.074      334.266        4.125      855.549
12/16/2014  23:37:00      -49.686        3.544      -14.208       23.015       19.974       16.362      529.699      398.970      267.713        0.194        0.060       49.812       10.747        0.047      334.401        4.350      855.538
12/16/2014  23:38:00      -66.272        4.282      -15.818       19.611       24.243       14.419      384.598      587.722      207.900        0.292        0.059       66.410        9.238        0.019      334.407        4.360      855.529
12/16/2014  23:39:00      -48.052        1.654       -7.653       17.858       16.173       13.916      318.915      261.561      193.666        0.157        0.039       48.080       10.252        0.045      334.315        4.206      855.512
12/16/2014  23:40:00      -36.320       20.226       -9.106       20.593       33.166       12.281      424.076     1099.997      150.833        0.174        0.084       41.572       10.618        0.065      334.386        4.325      855.494
12/16/2014  23:41:00      -26.050       79.016      -16.437       36.975       37.326       18.811     1367.131     1393.259      353.835        0.515        0.156       83.199       15.275        0.034      334.634        4.736      855.491
12/16/2014  23:42:00       -8.130       65.234       -8.474       30.817       27.339       23.175      949.669      747.448      537.096        0.331        0.112       65.738       21.822        0.110      334.629        4.727      855.487
12/16/2014  23:43:00      -17.603       61.806       -2.414       24.738       24.433       15.282      611.966      596.961      233.554        0.279        0.072       64.264        7.827        0.015      334.601        4.681      855.481
12/16/2014  23:44:00      -26.505       46.225      -10.934       18.613       19.835       18.691      346.433      393.413      349.349        0.202        0.054       53.285        9.010        0.029      334.647        4.758      855.468
12/16/2014  23:45:00       -4.923       82.204      -10.557       26.748       24.191       15.423      715.443      585.187      237.873        0.422        0.077       82.352       11.196        0.018      334.564        4.618      855.449
12/16/2014  23:46:00       -6.761      122.845      -18.196       26.212       26.788       19.720      687.076      717.604      388.883        0.863        0.090      123.031        9.676        0.006      334.561        4.616      855.429
12/16/2014  23:47:00       11.526      164.818      -25.439       21.334       37.096       14.668      455.143     1376.100      215.139        1.500        0.102      165.221       16.351        0.010      334.455        4.439      855.403
12/16/2014  23:48:00       19.482      165.121      -25.399       24.864       31.448       15.670      618.240      988.996      245.550        1.507        0.093      166.267        7.941        0.002      334.398        4.344      855.382
12/16/2014  23:49:00       31.439      169.662      -22.891       27.833       36.142       22.718      774.670     1306.241      516.111        1.645        0.130      172.551       17.411        0.010      334.360        4.280      855.368
12/16/2014  23:50:00       31.178      154.078      -26.358       41.281       46.554       23.341     1704.101     2167.263      544.779        1.491        0.221      157.201       21.565        0.019      334.342        4.250      855.350
12/16/2014  23:51:00       24.395      138.397      -13.790       41.239       72.344       36.910     1700.634     5233.692     1362.348        1.412        0.415      140.531       40.066        0.081      334.326        4.224      855.341
12/16/2014  23:52:00       45.643       96.660        4.677       44.368       59.215       40.445     1968.518     3506.444     1635.808        0.928        0.356      106.895       39.057        0.133      334.330        4.232      855.341
12/16/2014  23:53:00       46.891       72.052      -11.772       38.482       52.083       34.516     1480.885     2712.677     1191.338        0.646        0.269       85.966       32.117        0.140      334.327        4.227      855.340
12/16/2014  23:54:00       35.209       80.541       -8.353       40.864       45.635       33.636     1669.902     2082.587     1131.361        0.634        0.244       87.901       23.131        0.069      334.330        4.232      855.340
12/16/2014  23:55:00       39.144      115.059       -7.698       35.557       57.066       37.791     1264.332     3256.507     1428.178        1.039        0.297      121.535       32.624        0.072      334.349        4.264      855.338
12/16/2014  23:56:00       36.884      144.546       -9.479       39.410       45.469       32.548     1553.151     2067.418     1059.358        1.351        0.234      149.178       29.457        0.039      334.362        4.284      855.344
12/16/2014  23:57:00       22.056      131.422      -14.537       31.776       52.220       27.715     1009.716     2726.879      768.144        1.124        0.225      133.260       29.869        0.050      334.360        4.280      855.360
12/16/2014  23:58:00      108.413       79.390       -6.030       40.784       34.547       32.942     1663.311     1193.524     1085.167        1.102        0.197      134.374       21.217        0.025      334.325        4.224      855.371
12/16/2014  23:59:00       86.303       80.751        5.365       53.284       37.040       33.654     2839.173     1371.967     1132.579        0.967        0.267      118.190       23.543        0.040      334.357        4.277      855.386
